GFSSGP_2pvu_pres_000.txt.gz
Presure
141 144 136 118 125 149 146 153 130 162 162 162 149 164 160 116 117 120 153 139 143 152 139 178 162 151 166 168 134 174 170 191 219 225 234 232 222 242 261 272 246 258 267 247 264 257 263 260 244
122 122 116 129 133 147 142 158 147 144 124 114 114 122 122 132 139 156 138 161 176 160 159 143 162 181 170 164 182 218 231 242 264 247 244 265 263 191 263 257 257 257 257 258 274 251 265 231 254
111 125 122 121 156 125 125 134 138 123 136 126 128 141 146 157 162 160 163 166 174 166 171 152 184 172 171 184 240 271 266 262 269 243 271 276 256 262 245 255 258 251 245 248 254 253 240 242 253
114 173 141 131 131 132 127 124 124 149 151 141 139 129 175 155 159 161 171 167 150 173 182 184 179 217 242 290 280 270 269 283 266 270 268 266 244 245 283 260 269 253 258 267 263 252 258 246 227
130 127 125 122 146 178 123 155 154 135 131 151 165 168 155 137 163 168 175 154 172 181 189 336 358 325 311 243 289 281 282 278 280 266 284 270 266 283 265 272 275 274 259 258 245 252 238 248 248
121 140 148 158 142 155 119 118 128 132 144 169 158 151 153 167 165 172 174 178 172 235 344 251 260 250 275 286 296 288 270 254 276 268 264 260 258 253 251 255 259 260 266 265 261 231 253 250 236
123 171 164 180 175 155 124 133 170 158 161 149 142 142 169 164 172 192 198 262 274 262 265 224 263 263 265 257 267 284 285 247 288 280 248 248 260 252 247 244 244 244 251 256 259 255 252 240 232
179 172 122 123 117 124 130 130 161 138 173 184 170 164 167 183 195 220 286 267 209 243 273 277 269 258 215 255 258 246 253 245 243 247 255 261 264 266 260 249 240 240 236 239 250 250 242 233 235
129 132 126 121 149 166 144 163 135 158 163 175 181 179 182 270 276 269 224 255 268 213 255 254 234 246 245 235 233 226 189 195 235 239 202 217 226 237 239 238 242 252 249 235 233 239 246 233 240
124 129 176 150 149 179 136 143 169 168 158 173 180 198 259 205 216 265 214 240 216 229 222 211 235 203 204 224 203 213 206 229 192 225 235 232 235 234 230 195 213 231 241 249 243 229 232 235 241
119 137 130 182 144 138 150 191 188 197 185 265 190 249 249 258 212 250 258 251 254 245 230 231 221 232 225 224 208 205 203 213 207 207 201 213 210 121 203 204 213 217 214 205 228 244 248 233 229
168 132 130 136 200 194 210 197 176 194 222 283 249 237 246 254 231 235 224 227 224 216 214 221 202 206 222 200 196 211 194 195 206 195 201 199 195 192 195 201 214 206 196 202 210 217 221 237 244
149 129 169 182 189 187 233 197 195 221 193 232 224 230 234 229 222 218 218 211 201 200 209 208 215 192 190 194 190 197 185 163 167 171 195 201 195 191 187 185 187 191 194 198 203 204 204 212 221
202 181 155 173 192 259 244 233 251 246 227 233 233 215 218 224 196 215 197 143 214 196 190 200 183 193 194 171 194 184 191 190 171 175 178 186 186 180 195 200 202 201 194 190 193 195 198 206 205
197 196 176 185 227 237 246 194 227 244 219 218 207 219 211 198 213 205 145 210 196 202 183 184 179 178 176 180 179 183 182 182 173 178 180 182 183 191 193 188 189 184 189 194 197 193 193 199 196
255 251 190 250 244 230 230 218 217 216 218 213 213 210 204 196 209 210 193 202 199 181 190 182 179 174 173 179 180 180 179 175 174 169 168 181 187 182 179 173 181 181 183 180 183 183 184 194 194
230 237 244 217 228 223 225 200 219 211 210 201 201 201 197 198 194 195 196 179 187 180 187 188 177 181 182 164 174 180 181 181 180 180 176 182 160 165 180 182 185 176 184 183 177 175 182 182 190
211 245 223 233 210 217 204 219 206 200 194 200 194 190 191 187 198 190 183 180 174 173 127 169 182 165 173 170 165 174 174 173 188 177 182 178 181 155 170 185 191 192 189 187 178 178 193 186 181
239 224 217 217 213 208 212 206 202 195 199 195 191 198 191 184 173 192 193 193 181 180 173 179 174 172 173 170 168 159 163 161 173 177 184 188 159 172 184 192 192 190 193 187 192 195 196 191 193
207 216 224 209 209 207 199 205 197 193 193 186 187 188 185 187 171 171 186 181 183 183 170 161 175 174 168 165 158 146 146 184 178 186 159 193 194 152 185 177 186 192 188 197 190 193 194 191 195
209 219 210 209 207 204 209 197 193 193 191 190 187 174 173 178 160 169 170 168 163 152 179 169 185 187 184 168 144 151 180 183 150 144 168 135 145 183 148 188 160 163 191 193 190 202 199 212 211
210 215 206 205 203 208 211 204 198 189 194 187 189 185 164 185 164 181 177 165 174 102 126 178 179 173 160 179 174 135 182 184 136 176 173 138 181 179 186 188 185 152 185 162 217 229 233 205 240
190 214 209 206 209 200 213 215 211 201 191 196 179 182 186 191 100 131 171 183 181 178 131 171 172 171 169 176 155 170 169 113 124 151 185 190 190 190 174 198 221 232 229 224 246 243 242 240 266
206 212 210 201 206 202 199 198 202 202 202 185 169 178 175 184 111 132 148 121 173 172 170 173 162 165 170 172 127 172 167 143 183 190 192 198 211 222 224 219 224 251 245 243 235 277 287 274 283
161 214 197 204 207 185 193 193 195 190 191 187 186 173 185 194 142 138 144 95 184 170 174 166 161 124 131 121 182 165 145 191 205 197 208 219 223 211 235 219 248 254 247 277 274 287 306 324 321
196 185 204 190 182 183 175 184 186 199 191 198 205 198 188 168 161 162 127 184 182 179 177 127 130 177 136 143 185 180 151 203 216 216 223 141 206 230 224 263 256 291 289 287 286 304 311 292 289
198 185 194 195 190 178 191 196 208 206 198 190 188 184 172 184 109 179 176 172 158 175 116 183 173 157 184 186 203 211 214 211 201 213 207 199 218 245 264 250 298 289 293 294 303 305 298 269 268
179 186 191 186 140 190 191 188 203 172 175 96 180 183 143 175 175 177 178 183 151 109 123 183 191 191 206 202 204 206 185 178 153 229 207 243 266 270 276 294 298 307 304 308 304 302 286 260 256
189 186 186 188 192 188 183 186 159 174 176 178 171 153 184 175 130 139 149 182 136 185 193 148 205 209 200 202 209 205 196 207 221 250 261 265 256 288 306 302 308 305 304 283 287 267 270 255 256
137 188 195 122 186 168 174 144 169 173 161 161 171 172 177 178 176 179 113 184 192 209 208 202 202 205 214 221 202 222 231 236 241 187 255 285 281 297 312 310 311 303 278 292 314 294 385 371 360

GFSSGP_2pvu_pres_003.txt.gz
Presure
138 96 140 144 147 166 141 154 117 132 129 133 157 144 155 140 142 155 125 126 121 167 160 162 167 147 155 167 159 182 178 191 185 223 241 248 287 267 254 260 280 256 242 283 276 279 264 266 254
132 154 142 148 140 120 143 120 153 122 152 118 138 120 136 136 120 124 127 140 150 160 170 168 169 149 175 172 193 219 205 232 240 265 275 267 268 268 273 265 264 269 257 261 255 257 263 252 257
122 134 122 121 121 117 123 118 112 116 121 124 147 117 130 161 146 138 130 134 176 166 151 170 164 173 182 194 212 228 312 289 315 259 286 261 282 275 285 269 276 284 264 278 262 260 257 245 246
132 112 99 128 122 90 114 117 118 98 147 168 154 110 152 128 125 135 169 167 167 169 140 182 161 192 211 244 277 272 212 254 293 263 293 283 271 275 268 262 259 295 270 281 283 286 286 251 246
137 88 128 106 117 116 115 119 121 162 162 113 146 127 123 132 169 158 155 151 156 152 179 183 188 206 259 264 212 296 305 294 289 277 268 274 270 265 258 261 252 255 253 262 270 264 278 265 252
99 114 117 117 113 128 122 167 161 162 143 136 125 133 130 159 146 135 161 160 163 187 171 190 206 234 257 272 304 295 292 282 263 276 288 293 275 262 254 253 249 250 249 243 251 257 272 257 255
126 130 121 114 117 157 162 155 122 133 125 128 155 161 166 152 142 154 156 173 183 185 237 209 248 219 261 230 251 248 228 228 224 220 235 229 222 252 266 259 248 247 242 241 237 242 250 261 258
116 125 124 154 171 159 119 129 127 126 146 144 164 159 137 146 176 190 198 175 183 241 253 235 237 224 259 225 227 219 229 239 237 247 244 196 230 230 228 228 243 252 259 253 237 240 235 241 234
123 133 142 149 159 150 130 127 174 166 130 170 138 149 166 170 181 183 186 245 250 190 235 232 232 233 233 229 230 211 216 212 223 215 214 200 206 207 203 217 214 223 220 225 253 250 243 238 238
122 159 127 171 132 136 129 151 131 164 147 140 161 164 181 177 180 228 259 216 203 230 223 233 230 234 218 212 205 200 214 207 201 196 197 195 196 212 201 203 212 206 206 208 213 215 233 259 248
137 126 141 134 133 132 160 165 127 138 144 167 180 188 177 203 247 238 237 244 236 235 227 188 214 183 198 204 191 193 196 195 192 193 195 188 192 191 196 197 199 212 208 206 201 207 207 225 226
185 133 141 136 136 173 158 131 167 181 198 151 192 196 228 226 236 232 197 223 223 217 213 209 179 135 174 203 194 196 184 174 192 180 187 185 183 183 188 191 199 190 185 200 203 205 204 206 207
137 132 186 158 173 127 168 200 186 200 186 174 177 181 164 199 227 234 220 209 212 216 202 195 201 185 186 190 186 185 175 186 187 188 181 180 179 175 182 189 186 189 187 187 189 191 187 193 194
131 152 170 158 162 160 167 193 173 188 212 239 225 219 213 221 230 214 216 210 202 195 194 195 192 187 183 182 172 186 189 185 177 178 175 168 180 175 173 180 171 176 181 179 183 181 184 184 186
143 138 196 155 232 212 194 220 246 234 233 223 217 227 225 215 219 209 199 199 199 193 192 199 187 191 177 181 180 181 180 166 156 176 176 172 178 174 180 183 182 186 172 172 182 191 184 182 180
162 113 202 154 215 222 256 225 235 229 225 204 224 220 211 201 203 193 192 182 197 186 180 187 178 177 157 139 177 181 164 154 165 161 169 167 166 185 183 189 177 178 190 162 189 190 191 173 188
130 267 199 249 221 223 239 233 218 215 207 210 208 200 199 200 191 193 190 193 184 176 170 171 170 167 155 167 177 173 176 174 172 178 158 175 181 171 188 173 172 165 194 181 182 182 181 185 177
173 225 245 226 238 222 232 203 219 213 209 204 197 193 194 191 192 195 192 187 172 185 185 183 191 174 180 174 172 166 180 175 180 168 150 151 183 184 176 181 176 183 185 175 183 177 178 182 184
140 240 219 216 207 209 216 214 211 209 200 199 195 186 190 190 192 188 180 192 190 172 166 182 181 183 143 187 182 152 175 166 175 180 176 161 180 171 143 138 172 188 138 143 171 190 196 192 193
220 207 210 206 214 224 219 212 199 196 196 191 190 188 193 192 190 185 182 188 200 167 178 174 177 184 175 128 173 164 177 173 176 176 176 184 164 149 169 130 167 186 153 162 188 185 212 222 219
216 213 202 210 197 212 204 201 208 209 207 202 200 199 198 197 200 189 193 193 126 116 166 97 195 178 189 182 181 173 171 169 179 168 164 168 126 156 135 162 182 197 204 215 217 227 200 222 216
211 205 199 191 221 212 207 205 211 216 209 206 204 200 198 196 181 175 187 188 116 156 96 100 189 165 183 188 187 168 170 179 168 178 179 167 163 168 195 203 208 217 222 118 218 215 214 228 229
205 210 197 208 220 210 203 210 203 200 195 193 190 191 191 189 189 186 188 174 184 152 96 179 181 182 178 158 166 176 138 131 130 181 146 194 201 206 214 216 224 207 231 240 251 251 230 228 261
207 197 196 216 201 209 212 205 190 187 181 179 174 185 195 197 193 134 183 179 163 181 175 174 164 150 123 127 183 182 158 188 192 202 207 212 204 215 222 227 215 187 230 185 250 244 262 264 264
212 202 186 187 196 208 194 189 183 184 194 198 200 193 187 183 185 180 174 179 174 174 177 143 112 116 150 188 156 196 198 204 210 215 217 213 215 196 223 232 202 229 237 252 268 264 279 270 278
215 199 200 181 182 185 197 195 196 201 195 187 180 172 167 179 168 135 167 179 150 132 180 113 178 150 192 199 200 204 153 203 219 207 194 202 189 236 229 220 231 238 251 289 289 276 293 302 301
215 187 187 184 185 189 188 200 200 154 176 168 160 179 167 168 175 185 179 170 179 173 152 179 189 143 194 205 204 202 196 206 226 227 143 231 231 235 254 256 260 264 278 306 316 303 314 317 322
189 187 186 189 184 186 194 190 172 159 170 172 180 184 180 180 178 179 169 163 144 166 144 199 195 203 208 208 199 208 210 221 217 206 226 239 249 261 263 272 279 313 318 318 323 336 336 327 298
191 191 191 189 170 195 173 178 176 175 172 178 179 180 170 169 174 169 176 181 194 192 203 151 123 199 203 210 208 204 206 227 221 228 238 253 274 275 277 286 321 327 325 305 288 292 317 408 415
193 194 193 186 190 173 180 173 173 171 174 178 183 173 171 163 164 182 193 182 122 201 206 205 211 212 205 199 215 219 225 224 231 262 266 288 278 277 315 329 323 285 296 362 463 461 445 440 435

GFSSGP_2pvu_pres_006.txt.gz
Presure
162 135 154 166 132 139 139 154 140 141 149 124 111 128 121 123 119 149 114 110 133 144 157 158 164 139 159 166 164 154 157 174 178 183 215 312 304 291 286 309 291 284 240 254 280 266 285 264 267
146 141 130 135 154 143 161 130 153 112 127 136 119 108 108 118 116 108 147 159 151 151 122 136 132 160 154 179 170 167 185 185 190 214 241 229 214 216 252 289 277 274 284 279 278 283 267 260 266
104 159 151 96 171 151 119 107 126 121 118 110 106 117 118 115 122 148 164 141 124 132 127 127 162 154 148 165 190 189 184 185 224 222 241 310 273 214 289 285 285 280 274 265 265 274 274 286 289
124 137 111 114 103 117 119 115 147 114 106 113 119 117 113 147 160 169 119 131 130 160 156 152 167 161 172 196 185 191 234 228 266 299 205 296 302 281 276 274 267 264 263 260 257 258 265 272 270
124 83 124 109 128 109 123 125 119 100 123 184 115 104 169 175 128 122 125 132 149 159 140 170 176 178 177 178 241 250 197 203 245 231 254 265 254 242 241 235 247 267 261 258 255 247 251 260 271
96 129 109 107 119 114 120 124 106 133 163 101 154 154 134 123 130 121 142 145 148 139 160 168 169 184 220 246 255 229 237 255 256 226 243 241 235 237 240 237 244 238 248 265 254 245 244 243 267
115 117 104 101 138 112 113 150 123 121 105 139 169 128 128 123 119 154 150 145 140 164 176 173 183 238 253 239 249 242 228 226 224 223 223 215 217 212 188 206 187 204 223 230 242 258 247 243 242
172 109 116 178 116 111 150 148 165 117 120 175 124 119 112 127 158 129 137 154 171 177 179 188 177 206 252 241 235 234 228 238 135 221 217 214 211 207 211 212 207 207 217 217 217 220 234 239 241
108 118 115 127 147 119 153 120 136 148 178 152 125 169 153 149 147 167 175 174 180 189 185 191 235 238 227 221 217 215 208 142 212 205 208 205 201 194 195 191 192 197 202 203 215 224 219 217 236
126 132 122 128 162 127 123 117 129 168 146 124 122 123 141 162 173 170 182 177 191 174 234 218 227 230 225 215 205 194 189 206 202 193 185 201 195 190 183 185 187 195 194 196 196 203 204 205 216
116 124 150 121 135 127 173 181 133 147 120 158 135 164 171 160 181 178 206 253 228 221 219 232 225 207 208 198 193 196 202 185 184 180 194 188 186 189 180 184 180 188 188 191 194 189 192 199 188
177 165 133 126 126 129 171 134 135 167 158 170 166 177 174 188 169 227 185 229 224 214 213 220 195 195 206 181 194 194 192 185 190 193 185 184 183 186 180 181 184 179 188 187 189 189 185 191 190
127 149 134 120 131 133 130 146 143 146 175 169 180 188 189 205 191 241 239 228 217 215 211 204 194 184 184 185 192 191 172 188 181 186 175 178 154 177 170 170 171 183 184 191 184 184 187 187 195
189 136 141 131 132 171 153 166 169 162 171 187 186 182 213 183 214 231 221 216 202 205 196 190 195 187 183 191 182 174 173 176 153 180 168 172 171 169 159 169 181 182 187 189 181 184 161 184 183
130 127 129 128 158 132 173 188 201 200 182 183 244 234 227 227 231 214 215 210 201 197 195 195 187 174 181 180 182 180 174 175 174 175 180 187 186 182 187 161 164 185 182 184 185 177 186 190 189
133 138 129 136 141 148 163 141 134 199 245 235 220 229 200 216 209 209 210 201 197 193 192 186 182 177 186 183 190 186 184 184 176 188 181 180 171 180 182 168 156 170 181 167 185 188 171 185 188
139 135 231 168 137 245 168 250 223 198 221 218 223 221 203 206 201 202 199 195 192 192 189 188 172 185 163 144 178 176 182 185 182 174 182 180 176 177 173 182 161 181 166 189 181 144 183 174 166
260 232 221 236 129 155 162 219 238 225 213 218 205 207 205 202 202 197 197 200 194 193 182 176 195 194 108 147 176 174 199 184 145 184 183 183 170 174 176 183 182 166 145 152 143 139 152 168 182
242 227 185 125 141 157 213 218 225 224 223 210 201 204 202 202 202 200 202 205 209 194 200 192 192 98 123 199 194 191 187 181 181 184 175 173 177 171 183 190 182 136 123 194 199 193 202 163 214
136 160 227 178 209 167 207 207 216 210 200 200 207 210 213 215 216 214 205 196 194 190 164 190 193 146 106 171 175 177 183 178 166 165 176 186 170 186 154 171 167 199 203 205 187 210 211 208 208
171 220 225 210 176 198 201 216 207 200 207 217 217 212 208 203 195 191 190 191 194 194 194 193 187 95 164 180 177 179 148 183 156 173 183 160 194 182 175 203 208 206 206 205 202 207 213 211 216
216 231 216 213 206 193 213 212 205 208 181 208 193 184 184 189 198 196 199 199 188 181 147 182 182 188 187 168 169 180 181 179 188 177 194 194 159 206 207 207 205 204 206 208 222 211 204 203 212
224 219 212 199 196 210 212 210 203 217 198 183 179 190 195 201 192 181 175 171 180 170 167 182 171 168 162 164 178 107 139 188 198 197 139 204 204 212 210 197 213 197 202 188 218 235 235 249 234
218 221 207 199 194 203 199 203 209 193 193 188 188 195 199 180 177 169 166 176 176 174 181 177 175 175 181 137 117 132 195 166 205 206 209 206 195 199 208 207 225 234 194 206 232 246 259 258 269
218 217 212 216 198 190 188 166 200 199 195 191 195 146 177 170 171 179 183 173 171 175 177 172 178 165 170 113 153 152 186 203 205 204 212 216 216 221 215 221 214 226 229 238 244 265 279 289 278
230 220 217 196 194 184 186 190 189 197 190 194 181 175 168 168 174 128 175 173 173 177 115 180 129 161 198 137 123 206 198 194 206 198 218 221 227 219 222 223 223 235 241 256 280 299 302 326 322
254 235 191 185 192 186 190 188 192 187 179 178 176 177 177 172 177 183 178 174 182 170 179 173 187 197 193 194 195 203 207 202 210 213 217 226 225 226 226 228 246 253 273 303 315 323 323 329 323
240 218 193 192 190 191 194 196 176 177 169 179 176 173 180 178 180 173 179 172 171 179 172 132 201 196 192 197 205 207 207 205 214 213 216 228 223 225 237 257 260 294 319 321 324 336 340 338 310
197 199 197 194 192 186 186 193 176 173 172 178 184 182 172 179 180 177 154 168 180 183 111 198 194 203 202 203 203 213 197 216 218 213 227 223 227 249 256 278 326 336 338 343 339 334 329 418 408
195 208 210 184 184 188 189 177 175 168 170 182 181 179 172 177 178 174 160 101 180 200 192 196 203 201 202 121 125 128 218 217 212 231 219 244 258 274 336 349 349 338 290 299 422 411 435 434 422

GFSSGP_2pvu_pres_009.txt.gz
Presure
113 118 134 131 156 137 120 151 142 138 145 127 136 157 145 140 108 120 118 106 106 121 113 126 122 140 120 166 126 132 136 170 164 169 178 135 227 229 236 242 239 309 306 278 285 274 285 284 285
124 131 108 150 171 114 134 134 142 108 141 140 141 124 137 132 118 110 103 120 115 131 122 142 170 169 125 130 137 160 156 152 176 180 202 224 324 326 243 221 219 250 287 280 287 283 274 278 286
119 122 110 110 117 117 154 133 102 139 129 121 100 124 117 118 106 107 118 130 146 126 141 180 124 133 152 130 149 139 164 172 191 203 188 244 202 249 249 258 280 292 290 285 275 269 265 263 267
112 111 97 111 92 151 105 113 116 118 138 156 154 111 119 114 110 114 161 148 129 153 156 127 125 149 153 137 141 163 185 188 210 267 271 232 267 264 262 265 261 256 195 256 285 278 258 252 249
146 135 116 100 135 121 108 107 111 116 109 112 122 118 115 131 127 143 123 158 149 122 126 126 140 140 139 157 167 173 173 264 257 240 228 237 233 218 210 230 236 232 231 237 236 232 249 257 251
125 159 128 111 152 131 99 129 113 111 105 108 164 132 121 148 139 123 146 141 130 142 132 147 133 152 168 166 190 227 250 244 242 232 239 243 239 203 137 221 217 216 218 215 199 231 173 230 249
103 128 108 119 172 99 119 111 132 116 104 118 170 135 116 159 130 160 153 112 122 131 160 148 159 156 173 227 201 239 232 225 232 217 230 200 214 213 214 211 208 209 199 200 205 208 207 216 221
129 98 111 121 109 167 123 121 101 104 115 158 146 119 160 135 127 150 160 133 127 156 155 169 172 175 193 194 228 222 226 216 215 216 218 213 208 203 199 189 191 202 202 196 204 203 204 201 202
125 145 125 129 131 134 112 114 115 127 155 139 157 154 155 141 130 158 139 161 161 151 153 159 166 187 217 238 231 223 209 208 196 201 195 196 187 183 196 198 193 188 190 193 191 193 190 192 205
129 122 129 122 119 117 116 147 159 134 168 167 124 137 142 140 157 150 150 142 157 151 162 165 197 207 230 229 213 212 209 199 206 202 201 193 196 194 193 192 189 186 185 182 193 193 193 192 192
128 124 158 131 118 118 125 117 156 156 165 161 130 125 122 150 166 143 161 155 160 160 178 190 214 234 225 202 199 198 195 192 186 192 184 193 189 195 181 168 182 183 181 182 189 189 186 191 192
178 136 137 172 143 167 169 162 113 165 147 128 131 123 168 158 149 159 163 172 174 183 181 227 212 193 206 193 202 195 184 185 192 183 176 174 174 185 175 169 164 165 186 175 177 197 192 187 177
162 138 147 126 151 175 147 156 171 130 128 129 133 175 164 171 165 160 167 179 209 190 216 196 210 205 197 195 192 195 184 182 179 183 191 194 189 185 200 174 188 194 188 159 173 181 187 185 185
190 160 125 137 128 124 184 164 128 127 127 128 168 154 163 148 175 171 167 186 217 214 205 199 196 191 191 196 194 188 189 200 175 197 190 180 189 186 142 187 181 159 183 183 172 164 180 174 181
197 138 138 135 179 156 152 130 174 127 124 164 150 132 179 186 185 214 221 201 207 205 194 196 184 199 195 195 196 184 198 170 129 188 170 186 196 192 192 165 189 184 184 178 189 161 166 170 187
250 133 164 126 189 172 130 147 125 199 209 126 189 159 144 185 170 204 211 214 205 209 199 200 195 195 196 194 170 185 195 178 123 163 198 192 190 178 151 184 184 180 175 183 186 184 161 184 188
123 191 247 147 181 131 130 202 167 230 161 179 133 234 217 203 221 221 205 208 197 204 200 202 207 209 195 195 195 156 202 158 122 186 182 183 186 181 182 178 174 178 184 187 187 187 190 156 203
241 234 128 237 138 133 215 238 239 156 175 223 226 224 220 212 214 222 223 219 216 216 216 208 195 198 189 191 161 189 175 183 175 183 183 179 174 163 183 175 179 187 190 194 166 201 207 193 136
255 261 254 247 239 241 230 133 133 134 217 222 222 208 212 215 229 233 232 218 202 201 197 202 200 199 194 186 121 97 184 180 180 168 182 180 183 185 194 197 200 203 118 145 202 153 202 123 208
232 218 224 225 222 134 148 206 221 221 216 219 213 209 214 223 211 199 193 197 205 206 198 190 182 184 186 103 170 187 177 177 176 172 128 126 202 201 206 204 204 205 206 205 206 205 204 204 203
227 223 173 138 137 224 132 215 211 209 220 215 208 211 215 198 188 81 210 208 187 180 185 170 171 184 183 183 179 184 179 181 193 200 168 203 188 204 196 194 200 194 196 194 194 205 199 201 196
227 135 131 174 225 211 209 209 213 216 218 217 217 214 195 188 198 207 194 182 180 182 173 190 186 181 179 179 178 178 179 179 142 193 134 193 192 139 199 203 203 200 205 203 219 224 229 196 223
132 151 224 228 215 212 205 209 213 207 214 221 195 189 191 199 88 195 181 183 173 169 141 185 184 182 181 181 170 125 169 181 138 143 125 192 194 201 209 209 198 151 224 192 220 225 228 225 220
231 215 225 218 220 202 202 196 198 200 191 204 195 190 196 200 196 179 181 175 172 174 179 180 179 180 173 179 163 169 174 123 144 175 192 202 201 201 211 214 213 206 228 224 214 231 237 226 227
233 231 227 222 209 215 208 193 196 194 194 188 192 195 195 195 182 182 178 181 178 176 182 178 179 179 175 178 184 171 192 112 194 202 200 207 205 212 212 217 218 219 221 224 230 239 241 250 258
241 237 237 231 220 206 191 200 193 194 192 188 194 192 190 182 182 183 180 182 174 173 179 181 180 178 183 182 186 198 194 195 197 199 207 212 214 160 225 213 221 228 238 252 256 256 265 272 281
236 242 248 265 231 198 191 193 205 194 191 192 194 179 175 171 172 179 177 175 175 176 182 181 168 181 174 199 190 195 201 202 204 208 125 139 177 223 214 230 235 250 259 261 272 296 331 333 371
201 200 224 219 213 193 192 194 192 187 187 185 187 182 180 177 187 182 179 184 170 182 181 150 180 155 199 191 198 199 201 207 214 197 210 225 228 216 238 251 260 285 310 307 340 365 329 284 285
193 204 203 201 201 196 192 196 188 189 190 179 174 176 186 186 177 180 181 185 182 132 180 185 196 197 203 195 196 204 210 213 211 222 224 226 234 248 253 265 305 281 345 274 272 289 300 391 439
195 189 188 193 192 193 191 195 188 178 176 178 189 189 178 180 183 183 179 179 124 182 189 195 201 190 193 199 204 205 205 214 226 232 232 241 254 271 334 339 350 268 279 289 437 428 423 411 401

GFSSGP_2pvu_pres_012.txt.gz
Presure
121 123 135 164 129 108 142 120 111 131 128 94 135 137 141 106 151 138 138 120 117 135 110 107 124 110 116 126 130 147 140 133 141 134 139 151 173 144 239 294 279 292 309 314 305 300 287 289 289
130 118 113 127 123 128 142 101 108 127 119 144 138 112 117 133 146 109 119 140 110 111 123 126 123 116 127 126 137 157 120 144 157 127 155 177 176 209 298 262 262 242 264 227 251 305 295 280 273
160 172 121 129 120 112 102 104 116 100 151 103 139 138 117 108 103 118 117 126 115 124 125 124 126 120 148 137 136 157 157 173 148 154 159 171 179 260 245 239 252 239 252 248 244 249 249 285 269
132 105 168 129 163 110 140 116 115 120 112 111 111 99 117 102 115 119 114 128 145 123 123 169 170 132 119 167 165 143 134 169 160 169 174 196 223 261 245 237 238 232 227 219 151 136 230 232 238
126 159 165 144 99 158 158 112 118 120 116 113 126 139 109 103 118 126 128 120 125 150 122 155 132 144 159 165 127 138 160 155 153 173 195 252 231 236 233 211 214 216 218 216 216 219 217 217 222
177 170 143 134 143 143 124 147 117 169 111 137 116 112 107 118 117 143 124 126 114 136 137 118 147 150 147 146 147 151 159 163 165 225 242 234 223 232 223 217 209 213 214 208 204 206 214 208 214
150 149 175 140 132 118 105 127 102 124 113 114 119 111 115 116 125 127 128 156 145 133 152 127 137 147 157 130 153 159 173 160 201 235 226 220 223 204 210 198 188 192 195 201 201 204 202 179 207
175 84 178 162 169 124 120 133 110 115 111 119 160 171 165 124 125 169 153 166 142 146 126 161 127 150 159 161 163 160 165 190 230 199 217 208 208 205 209 211 205 202 200 190 195 193 200 203 197
141 138 154 172 135 145 133 117 107 124 157 120 114 143 122 145 167 144 149 160 144 119 130 170 162 155 168 162 160 174 171 198 205 215 215 204 196 193 196 184 194 196 189 192 187 182 192 192 202
127 123 114 156 168 117 125 130 119 118 114 141 130 149 128 121 134 164 151 119 137 139 159 142 157 159 167 173 169 182 228 222 218 208 203 198 187 184 186 179 181 186 186 173 184 180 179 187 198
112 175 172 173 128 179 140 119 137 128 126 120 154 118 176 159 164 134 118 125 150 155 162 162 161 162 163 165 210 226 218 209 205 203 196 191 186 184 186 190 196 195 186 192 180 199 163 169 188
127 134 122 132 131 128 137 128 130 127 128 119 136 176 163 157 145 121 125 142 150 136 134 163 161 170 202 218 200 218 213 207 199 201 197 192 191 187 205 197 175 198 187 172 183 189 194 191 172
104 99 153 144 121 125 173 173 172 172 119 172 137 148 172 162 121 123 153 150 146 168 161 165 186 188 220 205 212 196 207 203 196 198 191 183 178 169 151 175 202 200 197 197 197 181 196 187 184
133 124 188 188 187 184 132 178 124 125 135 140 121 155 166 121 125 158 178 129 135 175 197 212 219 209 210 209 185 205 202 211 198 207 214 201 205 211 131 207 192 190 194 185 192 193 186 183 189
246 200 188 144 190 174 164 173 135 127 125 157 167 156 124 119 179 171 178 219 206 224 207 181 214 204 181 208 207 211 211 205 196 199 201 207 197 186 187 177 190 187 184 184 175 190 182 190 194
240 252 204 249 191 197 122 145 122 124 141 236 130 130 159 182 137 206 187 185 241 223 216 177 161 204 217 217 217 220 211 197 205 201 118 191 193 193 182 182 145 177 190 191 186 191 194 193 197
251 243 242 241 139 142 120 128 157 215 130 131 133 166 157 148 137 177 215 229 227 221 232 227 226 220 223 212 207 207 203 199 194 192 182 184 184 183 178 186 187 196 180 203 202 201 203 189 206
237 236 233 141 207 230 228 223 159 134 209 246 226 223 127 201 235 234 227 225 237 221 217 209 203 197 205 211 197 192 168 187 173 184 190 172 180 179 179 141 140 209 207 208 206 206 206 202 204
220 226 224 130 126 146 253 236 235 239 233 138 231 180 231 227 222 220 203 218 206 204 193 205 214 213 190 186 188 189 189 187 180 176 176 170 184 184 182 127 202 136 210 204 198 203 199 201 202
241 242 246 262 245 223 234 234 231 184 133 164 230 219 221 224 217 212 208 203 194 195 216 216 192 189 186 181 166 182 186 183 184 182 176 184 189 159 148 118 199 198 196 204 207 202 202 199 200
193 242 233 231 223 214 220 187 134 153 218 214 221 223 221 213 215 209 198 195 201 207 210 191 185 183 181 178 179 185 189 174 186 177 161 124 188 199 151 203 204 152 203 161 213 222 214 218 224
217 228 232 227 229 153 139 217 239 217 210 217 221 210 216 212 213 194 193 208 207 216 193 181 182 181 184 183 183 182 190 187 186 185 190 193 157 194 195 122 197 206 215 218 217 215 225 225 209
222 221 222 194 222 222 223 228 215 206 222 206 210 216 216 197 198 196 206 209 204 184 184 185 182 189 186 183 177 189 182 152 188 192 193 110 202 202 202 204 211 214 213 225 219 226 221 231 232
231 230 225 189 215 217 221 216 223 208 205 206 199 192 192 195 193 199 204 189 181 182 183 180 183 187 183 182 185 183 184 191 189 190 196 197 200 196 199 166 126 125 128 171 172 223 230 229 243
216 234 227 229 232 225 220 217 213 213 213 199 199 197 194 192 195 199 189 180 174 180 186 188 185 185 185 187 141 184 187 137 196 198 203 195 190 204 212 217 213 223 237 222 232 240 243 246 251
250 254 245 240 237 233 235 230 227 191 208 188 191 192 190 192 192 191 190 177 178 185 185 182 182 183 185 177 191 192 198 190 199 199 199 193 210 212 219 226 230 231 242 248 243 257 266 274 282
229 230 231 231 232 230 238 243 231 191 185 193 194 195 186 197 192 177 173 187 187 183 183 188 185 181 140 189 197 192 195 195 186 204 192 212 221 224 229 238 240 242 263 257 259 277 298 353 272
202 203 204 202 200 200 198 201 212 186 187 190 193 190 190 186 179 185 187 180 175 187 187 150 182 123 195 187 189 196 195 193 201 211 218 224 232 240 243 249 258 267 272 277 284 342 287 329 302
193 192 194 190 196 195 196 207 199 197 188 189 184 178 175 184 185 184 173 190 185 187 188 186 126 187 192 191 195 196 198 199 212 219 233 243 241 247 270 339 341 361 354 343 290 311 303 447 442
196 198 199 199 199 191 192 185 171 178 188 187 186 191 193 189 183 190 184 185 94 190 187 194 128 97 190 196 195 201 194 214 233 242 246 240 272 275 267 277 288 285 305 310 434 438 425 420 415

GFSSGP_2pvu_pres_015.txt.gz
Presure
171 165 169 111 172 144 138 126 158 130 114 127 138 101 116 132 153 131 115 133 107 115 116 106 131 128 117 112 111 113 136 132 151 159 127 128 123 168 155 179 167 186 204 276 266 235 274 308 293
172 148 125 140 116 140 165 109 107 110 87 125 99 115 137 112 147 109 118 107 115 159 111 142 124 122 118 110 147 161 131 151 125 123 173 151 142 159 172 161 172 204 231 248 250 243 242 243 247
153 178 170 132 111 164 145 113 103 134 124 119 98 129 121 119 119 115 123 109 139 116 117 124 122 123 149 121 135 160 120 123 173 150 167 164 164 168 163 174 184 252 231 214 220 213 221 218 226
175 168 178 126 111 138 139 116 165 134 142 116 109 114 110 116 112 118 104 118 110 120 125 113 119 138 148 155 126 122 168 170 170 162 134 141 169 160 173 174 232 225 223 226 210 214 222 197 201
171 186 146 144 132 159 168 167 132 158 103 170 128 120 126 117 124 123 127 115 120 126 118 138 124 148 126 132 144 126 156 126 160 160 158 175 164 163 179 222 224 218 207 205 210 195 192 206 204
135 194 178 174 180 177 176 169 167 155 121 117 112 115 159 116 117 114 118 148 156 120 115 123 145 150 147 133 139 164 151 163 162 160 160 162 157 210 218 223 206 207 212 200 206 192 195 212 202
131 184 121 150 135 168 168 171 186 130 133 124 110 111 172 126 111 121 140 133 118 178 124 143 122 125 149 151 129 160 166 150 171 154 160 181 168 215 217 211 214 202 195 200 202 203 198 190 197
129 129 164 175 152 95 179 178 182 180 138 113 165 148 119 119 119 141 125 107 115 123 144 123 120 150 124 158 126 161 163 160 163 159 176 182 211 219 213 205 199 201 195 190 182 182 185 189 185
185 132 160 166 134 147 133 175 175 184 185 153 151 123 125 119 125 126 115 118 123 159 123 119 144 135 128 144 130 147 170 173 166 197 226 192 219 213 207 202 198 197 193 194 203 200 187 200 173
123 145 138 151 132 131 117 135 129 130 139 149 135 142 134 140 134 117 127 131 164 161 128 125 159 156 137 146 161 150 164 176 217 225 197 217 196 205 211 195 200 199 172 172 181 176 199 196 186
134 139 131 122 136 164 119 138 124 182 159 181 178 126 152 120 118 123 138 130 121 128 161 158 158 162 139 160 171 177 179 220 225 217 215 202 208 208 196 201 189 195 180 179 198 179 209 203 198
217 122 145 118 118 108 109 127 178 119 153 184 170 138 123 117 130 177 170 124 133 122 126 161 162 148 161 165 176 197 178 219 199 178 205 214 208 208 202 225 205 202 198 206 208 207 195 196 189
118 110 120 101 108 117 150 129 126 181 159 177 171 167 181 182 150 120 127 173 152 141 154 160 156 160 189 173 168 171 224 207 204 212 215 214 211 206 199 204 205 210 199 188 183 178 188 189 189
184 102 136 132 123 115 126 121 170 188 185 139 177 164 135 125 124 124 170 126 131 148 161 127 186 216 170 158 191 208 198 216 229 223 219 219 206 198 198 196 192 192 194 186 181 182 185 179 189
235 220 221 217 216 205 211 173 187 133 189 188 188 159 122 125 159 168 173 129 167 199 126 143 145 152 165 165 216 224 215 204 226 213 206 206 203 194 192 172 177 183 188 180 179 184 141 209 207
232 227 224 168 230 222 228 205 220 219 200 180 126 164 178 143 189 161 161 178 127 145 160 184 209 223 211 201 222 214 202 215 220 203 190 173 190 186 183 196 180 180 174 178 186 183 192 209 209
248 236 253 153 174 235 247 246 254 253 211 173 220 161 209 145 198 192 163 129 228 208 212 229 239 196 233 204 219 215 216 212 187 189 190 195 189 192 189 186 185 174 182 107 118 160 203 199 200
236 239 240 239 239 241 240 246 234 234 176 170 233 237 250 227 217 193 228 207 209 212 232 219 202 215 210 202 207 219 198 189 190 182 177 185 191 193 180 190 178 186 192 107 197 205 195 158 196
219 218 225 257 239 241 234 234 231 232 228 222 222 228 130 131 148 224 231 232 211 228 216 201 213 203 202 209 216 190 186 183 181 188 186 185 181 185 191 187 156 125 191 193 203 106 120 122 194
235 233 229 206 165 223 222 223 235 250 249 252 133 132 166 227 213 230 214 214 225 222 213 207 203 206 204 217 193 183 179 184 183 195 191 187 192 193 188 195 192 202 143 200 201 117 195 200 203
233 234 236 234 183 157 244 255 243 240 232 133 138 201 220 214 210 218 227 224 222 209 203 199 204 206 209 197 186 181 182 185 194 191 193 196 192 197 197 206 194 200 119 197 161 195 211 208 210
224 215 140 147 150 213 215 218 213 202 176 211 221 205 216 216 220 214 225 200 203 199 195 202 203 195 187 182 176 184 190 197 192 197 143 191 184 198 195 196 207 201 206 210 212 210 213 225 120
219 225 223 225 227 221 215 218 217 210 222 213 217 212 212 205 209 203 191 199 199 197 200 202 194 191 181 189 185 195 192 195 195 145 191 183 200 195 197 208 201 196 206 214 217 219 232 192 134
233 233 233 231 228 225 228 226 231 233 220 207 213 213 211 220 201 197 193 191 190 196 194 190 193 190 176 191 186 190 192 191 147 188 198 194 201 201 202 204 208 208 220 221 230 241 242 247 249
242 247 253 255 236 229 231 246 250 252 253 235 212 206 202 198 199 197 190 190 188 186 192 191 184 193 191 197 197 193 190 193 152 194 197 197 195 198 211 212 215 223 225 238 243 258 255 269 274
153 228 236 236 234 236 241 227 227 234 244 240 236 216 205 184 192 191 192 187 187 190 183 190 192 184 193 187 186 189 191 183 120 197 198 195 207 194 211 217 229 243 250 261 273 294 301 339 306
212 208 207 208 198 204 201 199 198 198 199 213 212 195 190 191 193 190 182 185 183 194 196 190 191 190 188 185 189 116 99 195 191 195 199 196 210 217 225 234 250 261 269 280 284 301 342 327 331
206 205 204 200 203 208 209 201 204 205 203 201 201 201 198 199 195 190 191 198 193 190 191 190 162 188 188 183 197 167 191 194 195 195 204 222 233 225 241 248 268 304 288 351 347 342 340 340 382
198 197 197 189 195 201 203 208 206 165 194 189 188 183 186 183 194 198 200 190 190 183 181 184 155 154 184 186 186 194 195 195 205 205 214 234 239 248 261 291 282 352 351 349 420 446 429 418 416
194 202 198 201 193 195 193 196 195 189 189 191 197 192 194 216 207 182 195 188 180 181 181 191 183 183 193 194 195 193 198 203 213 215 228 256 261 297 284 274 357 344 453 439 427 413 405 401 396

GFSSGP_2pvu_pres_018.txt.gz
Presure
125 128 127 171 124 132 141 154 154 127 161 142 116 96 119 101 99 126 119 112 106 112 134 124 126 108 114 140 137 111 135 131 135 164 129 143 121 176 125 158 187 159 168 173 207 241 241 220 219
127 125 145 143 165 170 178 170 120 139 117 160 98 103 135 118 116 122 122 112 105 134 108 117 110 112 124 122 116 136 128 161 118 120 125 145 147 129 170 163 180 174 176 229 230 227 222 220 222
139 126 114 129 87 163 125 161 115 129 103 148 165 160 131 129 134 124 128 109 123 114 124 140 106 124 124 112 147 146 136 129 134 128 162 122 132 147 161 167 162 172 182 219 226 213 212 207 216
126 163 120 128 176 149 165 174 101 153 132 108 159 163 117 134 131 134 111 120 111 117 149 129 114 140 118 143 112 178 120 152 121 144 138 133 170 137 164 171 169 234 218 221 214 209 205 214 194
195 147 133 125 179 189 163 164 179 132 134 153 163 166 171 156 161 115 113 170 168 172 138 113 126 120 125 119 167 141 121 131 169 151 159 160 138 164 166 175 173 211 214 216 212 207 203 206 202
186 193 170 176 165 132 189 186 131 149 167 168 172 163 132 144 141 127 119 120 131 160 125 126 145 119 119 137 129 119 129 153 152 148 160 153 160 177 178 167 168 201 187 218 195 196 196 192 183
218 188 134 126 139 90 135 181 189 95 156 141 174 167 179 175 128 124 166 132 124 115 143 132 118 143 173 173 130 121 159 144 160 132 165 162 178 173 155 162 199 200 205 202 201 201 197 185 203
252 198 126 134 185 174 156 144 82 185 168 137 183 185 178 180 176 165 142 118 118 141 111 176 125 136 126 124 119 125 173 158 147 172 159 182 171 164 162 220 203 216 206 206 198 196 205 187 161
138 202 130 115 128 115 134 147 168 155 121 145 134 174 167 163 156 135 128 165 146 127 114 123 133 126 125 139 125 126 166 140 164 181 183 189 182 208 205 216 214 213 203 200 201 195 191 171 181
186 140 126 158 125 121 181 132 190 154 146 117 131 118 123 153 181 190 159 154 132 115 119 134 167 130 162 175 168 159 126 172 168 174 184 201 160 163 202 214 215 206 204 206 200 214 199 198 207
226 147 127 139 186 170 110 125 127 134 102 175 131 129 149 135 126 175 183 191 169 170 180 172 128 133 172 164 157 150 222 179 171 183 164 170 220 209 218 220 222 216 205 197 204 195 215 203 197
189 138 229 203 217 140 147 115 108 117 135 123 123 124 112 109 146 172 177 171 175 176 120 119 145 170 165 135 157 152 145 192 182 191 209 212 199 217 231 220 204 212 199 201 201 186 191 187 190
203 198 220 171 199 168 130 137 124 177 113 119 136 130 133 177 112 181 181 175 165 120 139 172 167 168 155 163 177 172 190 169 207 181 202 201 202 223 205 213 208 195 192 183 176 173 193 183 183
229 189 144 148 230 119 116 113 117 126 131 113 115 136 158 186 184 180 177 120 131 173 177 175 173 175 168 138 171 182 232 217 212 184 193 195 206 211 215 195 189 186 195 191 186 188 172 175 171
131 134 135 130 202 193 226 221 141 221 200 191 179 184 187 195 188 177 125 187 182 180 159 166 156 152 181 184 182 224 198 212 220 213 204 207 212 212 193 186 194 174 183 194 187 182 190 163 179
216 205 227 206 208 208 211 215 206 142 221 219 217 191 208 201 127 176 208 160 194 207 191 198 230 219 228 217 210 222 209 214 211 230 205 200 207 194 199 192 183 192 191 178 183 194 184 161 189
176 243 244 213 216 225 209 208 209 178 217 224 222 221 215 232 201 174 258 232 241 240 168 223 212 218 221 226 204 222 216 229 209 217 202 213 189 191 176 183 186 190 186 190 191 186 181 184 193
160 228 228 231 229 239 222 226 233 232 223 225 213 258 237 229 259 230 230 169 134 208 245 216 207 209 211 222 215 211 208 201 205 205 218 197 192 183 183 183 188 193 189 195 185 188 198 157 146
227 226 226 226 231 234 240 238 240 249 253 248 240 238 231 231 228 190 135 136 213 211 205 219 226 211 227 216 209 198 203 202 203 206 205 178 182 183 188 191 196 175 184 182 182 197 192 197 194
222 221 222 179 224 223 228 229 161 238 217 173 231 231 243 227 237 242 233 220 216 216 206 207 206 228 213 205 199 193 198 203 205 191 186 183 185 188 194 194 202 189 185 197 198 201 198 195 192
214 216 216 226 234 235 235 234 135 197 226 236 238 216 224 209 213 210 218 218 203 203 206 224 207 205 199 198 194 202 200 195 195 193 185 196 197 201 204 197 195 198 204 205 195 195 196 201 210
234 207 224 227 226 223 206 230 206 216 225 217 213 214 222 221 214 223 208 209 215 218 208 206 186 194 194 199 203 195 196 195 191 197 193 199 195 199 200 205 207 208 203 194 202 206 219 224 226
220 220 220 141 142 222 222 226 224 221 210 215 217 220 220 229 221 211 210 209 211 200 195 197 193 194 195 184 195 182 194 193 193 199 196 195 194 197 111 205 207 196 206 213 219 213 226 218 231
219 213 194 169 231 232 234 238 232 226 226 219 212 212 220 218 218 216 215 208 199 198 200 194 196 191 190 185 188 195 191 194 188 190 188 191 92 187 199 202 202 208 213 218 222 227 231 248 264
244 240 247 247 253 271 262 246 243 241 244 239 244 249 239 218 210 207 208 201 202 191 191 186 192 191 189 194 195 190 185 187 159 190 192 196 196 205 206 206 207 212 219 225 239 256 271 271 287
238 230 227 226 224 219 218 213 214 214 212 211 212 220 222 223 225 220 204 189 188 186 192 187 189 189 203 191 180 185 195 185 192 189 195 204 196 195 207 215 214 218 237 259 269 274 294 309 354
215 214 213 211 210 207 202 204 206 209 211 208 205 207 205 204 202 200 200 194 184 182 182 198 206 192 184 183 189 188 185 182 189 194 196 202 207 213 218 237 256 263 269 258 283 305 331 368 360
202 201 201 203 201 201 200 201 200 204 205 205 203 198 197 193 185 189 193 193 200 207 194 188 187 187 192 194 189 184 183 188 195 202 203 204 207 227 242 252 269 258 278 313 367 359 446 454 518
198 197 197 189 194 207 207 203 201 200 197 197 199 199 202 206 212 211 208 206 197 196 192 183 190 181 187 179 190 187 184 195 202 204 204 206 225 256 258 269 263 279 368 371 454 433 435 405 456
203 203 197 199 200 195 207 208 200 203 200 204 208 208 209 210 207 203 202 201 190 177 184 195 190 186 182 185 187 186 194 204 203 205 222 231 253 265 272 277 310 362 443 447 434 441 397 442 423

GFSSGP_2pvu_pres_021.txt.gz
Presure
123 110 122 125 117 115 113 129 124 122 116 159 113 83 169 136 115 106 116 105 112 130 136 116 135 121 114 146 107 137 124 128 113 132 145 142 121 120 154 136 148 167 128 182 142 189 177 171 230
124 125 112 126 113 137 130 121 140 156 146 170 170 166 147 102 90 128 178 138 131 131 114 132 134 126 124 122 122 126 132 114 147 133 129 133 118 125 135 174 133 158 198 151 173 179 215 232 224
118 108 121 111 158 139 127 120 110 122 150 142 134 146 108 103 148 163 168 116 141 129 149 130 121 140 138 116 133 173 122 122 140 136 169 165 137 117 165 123 177 177 170 188 182 190 172 205 220
86 123 116 179 129 129 117 169 177 127 131 158 178 175 173 132 155 152 157 161 166 119 116 158 118 133 183 180 188 125 126 140 117 134 186 104 126 125 139 171 168 191 185 183 163 183 227 214 217
117 113 122 169 141 129 134 131 160 121 136 168 169 159 132 123 129 133 158 186 162 171 179 171 179 150 166 183 134 127 118 118 182 169 121 121 141 125 134 177 183 191 177 163 202 219 212 210 215
136 134 182 123 167 124 120 194 186 165 167 131 178 95 151 177 138 155 171 186 179 164 176 146 129 170 137 127 134 122 141 158 120 125 164 154 126 140 167 170 168 166 185 172 221 218 215 213 213
220 249 242 219 194 128 198 190 132 133 112 146 155 159 163 145 181 160 137 189 183 184 175 165 125 121 156 178 126 114 128 161 146 136 177 170 175 172 178 169 180 195 225 173 215 216 207 213 209
232 252 236 222 205 130 155 135 199 138 118 116 124 181 165 180 125 187 158 183 168 169 180 173 173 171 179 143 133 130 170 126 128 178 175 124 174 163 135 181 181 212 231 198 217 213 205 211 207
240 241 205 213 119 177 143 179 137 116 138 118 127 185 163 124 131 121 123 118 126 160 139 171 161 161 166 144 147 178 125 149 190 167 127 173 174 148 197 185 209 223 204 202 220 222 218 217 206
254 125 160 188 149 112 186 140 115 115 117 192 168 175 176 186 113 136 150 132 146 126 130 182 167 174 176 156 135 123 152 177 172 174 172 172 175 180 180 164 185 161 204 192 217 216 212 213 212
234 146 226 97 224 220 126 167 124 115 108 108 189 103 101 130 129 125 118 127 110 125 152 117 174 182 180 175 125 174 167 132 178 177 163 173 206 233 237 204 228 227 181 190 216 215 195 193 195
136 245 89 212 217 121 201 144 130 166 196 183 132 164 172 121 114 125 134 178 126 131 162 134 179 180 124 137 174 189 181 179 177 171 194 223 194 208 203 220 207 206 183 205 211 190 192 185 183
238 245 196 220 242 234 166 172 227 225 208 203 130 119 102 139 126 118 170 146 167 164 179 180 159 126 182 195 187 187 196 138 209 220 231 193 226 210 216 219 215 205 193 208 189 190 176 183 188
185 224 217 220 219 209 206 235 225 198 148 114 99 111 122 118 150 123 193 202 207 178 180 185 188 180 192 194 200 134 200 228 180 218 239 214 208 235 210 225 200 198 208 197 192 179 181 179 184
235 226 219 210 224 221 220 210 209 216 135 127 213 220 178 181 176 177 175 162 188 189 199 198 187 191 239 237 168 226 191 198 222 204 206 218 211 203 222 214 218 210 213 190 188 182 180 180 188
240 140 224 115 115 118 139 206 187 201 193 197 215 218 221 221 219 184 216 199 200 205 189 213 204 229 218 137 157 227 231 227 203 207 233 208 219 205 198 192 198 217 201 182 179 182 183 191 192
121 177 123 121 123 120 126 206 211 212 214 213 213 209 203 208 210 209 210 206 217 235 210 239 233 215 206 218 222 218 213 207 209 208 225 210 203 193 200 196 208 203 193 182 186 189 192 189 193
230 125 122 123 154 123 217 220 205 210 210 212 208 206 208 204 204 211 237 261 236 235 231 217 215 212 213 208 210 220 202 206 207 219 213 195 193 195 205 198 193 186 181 189 188 195 196 197 192
226 227 231 235 131 231 233 236 240 236 217 209 224 245 232 274 244 234 234 254 226 230 251 214 215 204 206 206 210 205 219 212 228 190 190 194 203 199 194 193 194 193 190 193 196 193 190 192 201
230 232 228 226 223 221 219 225 230 229 224 222 229 231 234 231 225 222 216 229 217 216 208 209 212 203 211 203 198 195 213 201 184 191 196 189 193 191 195 196 196 196 196 193 191 195 199 196 195
223 222 223 224 225 222 217 215 213 230 230 227 232 238 238 245 230 229 213 213 214 212 213 209 215 210 205 201 200 198 185 188 192 195 192 188 191 202 190 190 200 198 143 198 204 207 203 212 216
212 212 214 213 209 159 232 227 222 229 203 233 225 220 221 220 220 218 219 219 222 218 219 218 206 204 200 202 194 192 193 192 197 194 190 201 197 183 195 196 191 198 204 207 212 215 211 212 222
217 220 227 231 233 225 225 224 229 218 220 227 227 228 227 223 222 217 217 222 233 229 226 211 210 209 209 216 189 192 197 193 199 197 206 195 197 203 199 197 202 204 204 210 210 204 219 231 227
226 224 222 222 217 229 243 238 226 230 230 231 237 244 246 246 249 254 259 259 246 232 223 222 214 201 193 196 194 189 194 195 195 194 192 198 192 192 199 195 196 201 213 207 205 224 230 255 261
216 224 241 268 246 242 217 253 247 240 233 125 224 222 217 212 211 204 208 207 209 204 200 195 196 193 191 190 193 200 206 200 188 197 193 188 186 192 194 194 204 208 205 213 224 251 265 275 273
261 247 239 233 226 222 218 214 210 210 208 180 204 203 201 201 201 202 202 195 188 188 191 193 194 198 203 213 205 197 188 181 195 186 184 189 187 193 202 206 213 208 221 235 262 270 278 276 286
227 220 217 219 210 206 206 205 200 199 202 195 191 203 202 199 193 189 192 192 197 201 203 204 202 199 194 196 178 180 184 192 186 184 192 185 194 200 202 211 213 234 267 269 282 279 290 319 458
212 207 202 202 201 201 204 195 193 209 206 201 199 197 190 191 198 203 205 206 206 207 206 202 200 199 186 174 182 191 193 187 183 187 192 194 205 210 210 223 252 265 274 271 282 298 459 441 453
201 191 196 201 199 199 191 198 198 201 202 198 193 192 199 196 192 198 194 190 187 209 204 204 201 202 198 199 194 191 186 183 192 197 197 207 208 214 249 245 261 278 271 290 442 453 471 445 399
189 199 198 200 204 203 197 206 201 196 198 199 200 198 194 188 194 199 193 190 186 205 212 208 205 201 193 194 194 184 192 194 196 204 204 218 233 251 242 274 277 270 315 469 455 491 406 394 384

GFSSGP_2pvu_pres_024.txt.gz
Presure
152 109 126 146 131 122 109 110 104 132 129 125 124 124 124 116 146 155 127 182 90 101 172 125 173 143 166 141 132 136 125 132 164 134 119 143 132 116 158 136 128 117 122 115 150 171 147 173 176
122 128 112 128 118 114 109 110 117 126 133 115 119 112 136 119 133 155 157 119 101 103 143 164 114 178 178 154 156 120 149 132 132 115 168 158 121 176 174 155 126 112 120 125 126 164 177 195 180
124 116 124 118 135 130 107 137 121 120 135 123 135 142 126 122 121 136 159 166 177 150 161 128 160 162 161 111 169 158 174 138 185 135 147 126 185 124 187 120 118 132 146 183 123 167 194 204 162
130 126 127 133 126 125 119 110 117 125 178 123 131 133 177 130 127 150 156 171 176 119 122 133 173 169 166 168 196 180 188 125 182 178 120 191 118 143 134 140 132 195 126 121 188 191 207 173 237
135 131 133 128 126 126 117 109 127 128 150 167 128 123 146 162 154 127 152 170 156 176 139 177 178 180 178 211 178 135 170 169 128 122 185 118 175 134 179 124 171 136 186 178 192 157 195 232 212
120 122 126 119 121 113 138 122 197 123 132 126 129 146 183 155 120 177 178 182 169 144 168 125 128 192 166 162 180 178 127 154 185 165 173 158 179 155 128 178 165 178 181 178 201 196 208 214 210
129 146 133 126 132 131 122 130 182 121 154 182 135 181 109 153 116 146 141 186 183 166 161 134 186 148 186 135 123 131 144 139 175 145 170 191 124 171 179 198 177 188 204 195 185 213 203 228 220
129 125 116 147 139 119 133 132 199 146 124 188 198 149 182 125 109 119 164 113 183 124 126 125 119 123 116 186 127 127 178 123 172 179 184 140 180 184 136 205 205 187 142 227 228 201 231 231 211
140 135 139 109 128 129 200 185 209 194 190 194 210 185 183 117 140 202 191 163 193 176 190 119 133 160 122 116 133 112 172 172 183 144 198 185 191 194 190 196 154 200 233 211 205 212 226 203 207
132 141 125 181 115 236 263 111 145 222 180 191 138 173 119 116 118 184 133 123 122 137 145 131 127 168 153 186 143 179 179 178 187 170 179 194 178 189 194 198 208 205 217 207 195 206 209 210 203
131 154 129 211 247 232 224 225 246 221 208 135 195 175 124 113 117 194 190 184 181 114 121 194 115 128 132 135 183 154 185 180 170 193 191 188 193 136 229 233 204 228 212 209 214 231 216 208 203
243 249 140 257 235 262 170 196 214 220 126 240 142 197 200 185 190 192 130 124 195 194 184 118 128 178 153 191 179 185 184 196 193 187 197 175 148 216 233 208 226 229 220 202 215 198 206 211 204
187 248 250 235 195 178 222 217 223 177 221 169 162 202 228 208 158 203 162 130 125 120 116 151 157 183 187 178 174 190 170 183 198 189 173 213 239 233 228 185 199 209 208 220 204 198 194 194 197
245 244 231 235 230 222 224 220 217 218 216 220 217 214 214 125 153 136 137 160 134 147 153 183 200 184 197 199 197 195 207 198 185 177 234 224 227 214 206 202 207 230 208 203 194 190 194 200 208
243 135 169 237 221 229 214 216 214 210 207 203 201 224 214 214 138 158 193 191 192 202 207 208 208 195 211 202 213 202 221 217 224 237 227 197 213 206 210 211 202 222 196 193 193 193 196 186 185
123 136 228 227 221 223 117 226 214 201 220 217 215 198 194 195 197 213 206 194 183 197 201 197 197 202 202 198 210 227 232 243 235 214 215 217 214 210 209 206 215 192 194 192 197 200 192 191 192
129 231 237 224 218 211 173 167 117 117 170 207 210 211 213 208 207 207 210 209 204 200 202 198 202 201 212 216 216 223 211 224 226 215 214 204 200 201 209 205 191 192 192 189 184 189 196 195 197
236 233 234 230 229 116 174 149 216 210 208 165 204 205 198 203 201 209 211 206 204 206 231 240 226 221 221 209 201 219 216 207 206 211 208 205 203 204 193 191 193 193 192 188 187 199 184 181 193
234 238 241 235 228 223 221 216 226 202 207 209 209 201 202 207 222 209 212 211 227 229 224 214 223 180 223 237 236 210 204 204 213 205 200 203 201 194 191 185 197 191 184 192 196 188 190 95 155
221 222 221 222 227 230 234 232 230 235 237 236 235 228 229 229 232 224 223 231 219 227 249 242 226 239 208 207 208 211 214 214 203 204 204 199 186 185 192 190 194 200 195 191 194 188 191 193 195
220 224 226 226 230 228 226 226 222 222 221 218 219 220 224 177 219 218 229 240 227 222 208 212 216 213 208 214 216 215 203 202 202 197 194 188 191 185 192 197 194 185 184 195 188 193 190 192 195
217 222 223 221 219 217 214 212 213 196 132 201 225 228 134 236 233 224 215 220 222 183 216 216 216 217 224 221 217 215 206 204 202 201 192 187 187 194 199 197 183 197 196 192 202 195 203 195 213
220 215 214 212 207 207 132 191 215 219 225 226 221 221 220 224 230 225 245 246 249 238 229 223 215 216 222 210 206 200 193 188 188 191 195 202 209 200 196 186 206 200 199 202 204 205 210 212 217
216 217 221 228 225 224 222 222 221 224 228 230 239 248 241 235 229 182 203 208 208 207 208 203 197 193 191 191 195 198 202 204 206 205 201 193 183 191 208 209 201 200 203 203 207 208 216 219 220
228 223 219 218 214 233 243 256 259 253 245 236 227 213 209 209 206 202 203 206 202 193 201 208 214 219 218 215 212 211 209 208 208 207 210 210 212 206 200 199 195 201 202 206 213 217 218 262 273
215 213 244 246 238 230 225 219 213 212 209 207 203 201 200 196 206 206 204 202 202 200 203 201 199 200 200 198 211 215 216 213 210 207 205 203 199 195 188 198 201 207 206 213 218 282 276 291 297
249 239 228 221 219 216 211 208 206 199 199 192 208 208 207 201 200 197 194 193 194 191 198 202 191 198 195 201 196 198 201 195 206 204 203 194 188 188 198 197 205 208 219 267 281 273 290 281 348
225 220 213 212 208 204 201 204 206 197 192 201 197 201 194 192 192 198 198 198 191 191 189 194 189 192 194 203 195 194 202 203 194 190 186 186 194 195 207 222 231 256 268 277 279 286 289 504 475
209 207 204 194 198 200 204 203 208 205 200 199 195 195 198 202 201 200 195 192 188 185 218 219 225 229 225 192 200 198 193 188 188 188 186 204 215 232 249 257 254 276 257 285 289 434 480 451 425
203 198 197 194 204 204 199 200 197 195 191 197 201 195 192 188 190 216 223 231 229 227 227 223 196 216 207 204 201 189 190 188 197 203 214 213 236 256 248 274 246 274 274 294 492 469 439 407 387

GFSSGP_2pvu_pres_027.txt.gz
Presure
138 120 116 101 111 117 121 110 114 97 126 113 107 126 129 120 112 131 115 105 121 123 123 134 106 102 108 170 179 150 178 168 169 164 127 140 185 144 117 190 160 135 110 123 182 124 119 124 187
128 119 106 118 115 132 145 92 123 121 147 120 134 131 117 130 132 132 157 187 123 112 127 126 146 153 186 148 172 166 124 134 158 148 176 181 149 180 175 186 137 159 117 128 198 131 161 138 214
114 153 115 139 127 121 114 112 137 140 133 130 110 126 126 122 120 124 126 119 129 139 130 122 182 160 177 170 166 130 177 182 171 170 192 205 195 176 133 127 190 179 194 170 180 196 125 197 192
125 136 115 121 140 132 130 112 127 127 132 132 127 125 131 149 117 157 158 132 135 174 167 125 165 181 178 174 190 146 181 159 156 184 186 199 177 174 188 163 125 169 181 122 121 179 190 199 215
105 113 132 150 112 133 121 133 131 107 120 122 145 143 140 141 160 149 127 164 145 164 125 126 174 171 169 179 184 191 143 145 185 186 127 177 201 133 128 192 186 204 118 144 184 200 144 212 218
123 129 138 118 122 134 127 125 124 122 128 138 135 140 136 131 142 157 156 138 141 127 116 145 134 177 188 192 126 155 162 159 146 131 125 151 154 149 144 182 151 121 173 182 181 194 225 200 220
141 139 163 131 125 133 116 136 131 132 132 126 128 128 138 140 182 170 186 161 114 116 115 160 171 164 175 177 125 129 124 123 147 117 131 110 165 143 189 189 127 193 197 187 193 222 147 208 229
141 123 161 135 128 140 134 108 146 114 125 118 131 204 116 195 137 193 187 188 119 119 163 146 183 179 183 194 202 179 126 186 132 176 118 137 183 195 185 191 209 183 200 191 224 218 208 216 184
135 265 131 139 144 122 132 117 139 109 124 126 144 165 183 183 127 191 184 177 116 114 112 116 179 121 125 111 126 136 133 137 133 135 137 164 174 189 185 192 201 192 195 221 227 213 218 213 234
127 144 140 143 133 130 142 119 132 139 156 160 234 189 210 168 189 155 112 119 115 123 120 162 208 163 108 189 195 194 159 130 192 167 182 183 194 188 192 201 181 227 190 230 217 211 231 204 219
148 131 136 127 133 136 139 138 145 98 165 221 215 215 207 220 203 189 195 187 192 194 187 176 124 198 189 117 116 136 136 184 133 185 148 204 195 190 203 208 206 139 218 219 199 207 216 216 219
145 135 141 217 143 217 212 185 163 196 247 231 229 214 228 120 135 194 124 133 200 108 195 188 128 203 137 121 129 128 135 147 189 181 204 198 202 202 205 147 229 239 212 223 209 214 210 224 207
196 137 149 139 149 121 244 248 226 230 229 122 246 237 164 214 211 221 213 217 195 192 190 220 164 193 171 194 189 184 195 191 196 209 214 194 208 223 238 238 225 205 216 211 215 215 216 216 202
157 242 162 228 205 138 244 240 231 228 219 226 224 224 229 214 218 219 202 211 196 197 138 169 195 195 190 192 208 206 201 205 200 198 204 206 255 235 241 227 211 218 210 207 209 215 203 196 197
150 143 174 190 240 242 236 239 230 239 227 221 220 224 221 221 121 121 133 219 219 214 218 221 211 188 193 182 187 205 192 199 202 228 245 240 225 226 223 211 224 218 213 211 210 192 192 191 192
240 245 236 234 246 235 224 201 197 215 217 216 196 216 198 117 122 124 207 208 208 213 197 199 205 205 202 201 196 201 198 234 216 219 223 217 215 214 219 218 215 208 206 206 194 192 187 193 193
240 238 237 236 241 222 181 218 210 214 214 175 121 159 206 206 156 189 208 204 208 208 200 199 200 201 201 196 213 211 213 207 224 212 214 209 217 210 215 211 205 206 201 189 189 193 190 192 192
237 233 233 229 151 186 221 223 216 209 210 213 129 160 217 213 208 203 206 204 201 201 200 201 203 225 203 165 214 141 209 215 219 205 207 206 206 214 211 206 205 206 198 193 193 184 193 197 198
234 213 184 224 226 228 232 225 220 218 220 211 211 210 208 210 213 203 203 206 203 203 237 248 226 237 158 227 182 214 233 204 202 204 204 208 215 216 208 203 201 200 196 190 192 198 202 201 184
242 234 231 234 229 232 232 228 231 230 227 223 228 222 222 226 225 224 214 230 224 230 216 226 215 227 242 238 200 204 209 208 213 216 219 224 209 194 195 193 193 195 197 202 207 203 191 184 191
227 173 222 207 222 223 224 224 225 227 231 232 230 221 215 220 225 227 225 222 215 224 226 216 209 195 212 219 225 231 231 211 197 216 188 191 193 197 201 203 205 205 205 200 189 198 191 204 205
218 217 122 215 221 222 220 222 220 216 217 219 218 218 212 212 217 228 229 221 218 232 241 244 233 228 210 201 201 202 195 193 195 204 208 207 207 207 207 205 203 203 207 210 205 205 204 201 207
211 114 115 182 212 213 214 216 217 217 214 141 220 220 222 216 217 233 238 234 223 215 206 201 198 202 202 198 193 204 207 203 201 191 184 198 205 208 210 206 206 208 210 209 210 206 207 210 211
187 112 122 192 209 211 208 211 225 222 218 230 244 251 244 236 223 213 205 204 202 202 202 204 203 193 197 200 202 204 203 194 194 194 200 200 198 203 209 210 201 197 199 205 205 210 214 216 231
111 116 186 212 220 224 220 226 254 254 239 227 218 211 207 201 200 199 199 203 210 209 203 200 202 195 198 195 192 191 197 194 224 226 231 202 209 208 196 194 197 203 201 206 206 217 259 264 265
227 230 221 212 213 243 238 223 219 216 206 208 202 198 198 194 206 208 201 200 200 198 204 207 206 205 201 190 236 240 242 236 203 208 215 205 194 198 197 200 195 204 200 219 258 267 252 269 266
219 221 196 242 227 219 213 211 206 199 198 198 199 192 199 193 196 199 193 196 203 199 193 199 234 236 237 237 233 227 221 209 200 195 193 196 200 196 194 197 204 228 256 264 250 250 248 306 323
239 234 225 217 212 209 203 197 190 195 200 205 203 202 197 194 193 200 198 191 200 219 221 253 240 235 239 233 229 207 201 192 186 191 190 192 193 202 211 213 235 249 258 237 264 268 293 298 306
222 212 208 202 204 199 191 203 207 206 199 195 196 192 195 197 196 204 212 211 211 212 216 233 243 237 225 214 202 193 181 187 180 193 193 196 205 216 225 251 252 263 229 246 271 279 305 318 460
209 204 204 200 194 194 202 203 200 194 197 195 190 194 194 205 208 202 203 205 205 206 222 225 246 214 200 195 189 195 184 194 184 194 200 221 233 233 256 253 262 230 247 256 299 317 340 451 425

GFSSGP_2pvu_pres_030.txt.gz
Presure
121 115 115 115 113 104 120 142 150 105 92 113 144 123 118 127 118 122 90 126 125 124 125 109 123 122 118 117 125 128 144 161 173 165 190 161 169 174 129 177 174 171 185 184 162 132 132 200 194
119 117 110 108 120 142 109 107 109 129 123 109 114 126 112 134 133 113 124 136 118 124 142 135 152 158 160 132 124 161 184 144 172 134 172 164 154 184 188 142 166 182 195 158 194 127 193 125 185
140 144 136 136 112 111 117 141 116 126 113 125 121 112 127 131 130 131 122 129 126 140 144 149 156 169 173 178 163 174 137 182 182 180 167 178 175 149 193 156 167 123 191 143 121 185 199 191 204
124 113 130 120 142 134 125 137 119 105 109 131 126 126 132 113 130 127 134 127 135 122 143 144 169 177 118 173 125 149 144 171 175 174 181 122 183 188 185 177 115 139 120 111 116 135 139 209 184
129 129 124 149 147 135 131 157 142 128 141 125 131 106 116 125 120 143 153 134 146 138 152 144 147 128 173 160 113 140 116 156 175 183 194 190 155 166 174 119 172 108 120 165 150 188 198 124 141
122 121 108 129 123 124 139 132 145 145 132 119 132 126 122 131 121 127 141 155 128 158 156 152 147 150 113 116 146 113 157 185 159 187 200 174 128 193 135 193 120 133 165 185 154 187 131 193 207
125 133 136 141 127 130 126 140 133 128 129 135 110 117 136 110 133 137 142 148 145 147 152 187 174 198 134 125 128 163 178 176 188 138 205 204 192 159 121 115 125 125 174 186 204 197 186 204 229
142 145 135 110 144 145 129 131 149 134 130 128 130 111 111 114 118 133 145 150 150 162 187 145 116 187 172 124 119 125 127 126 110 131 113 119 202 122 183 125 124 183 186 204 197 192 204 226 213
132 143 136 140 148 125 129 139 131 124 134 114 111 117 122 128 125 121 151 152 153 154 197 190 151 185 130 140 125 139 106 196 189 139 134 179 121 124 126 126 204 155 186 186 210 200 231 212 230
269 128 139 136 135 140 132 131 145 136 138 113 128 128 126 101 129 150 147 154 160 197 198 189 195 184 189 190 205 178 184 184 135 194 129 160 155 174 194 188 182 202 210 208 192 232 237 210 208
125 137 155 122 157 120 183 135 151 154 112 108 114 129 131 138 140 152 185 193 194 196 202 121 126 182 199 206 198 199 182 182 176 193 180 192 190 193 198 213 218 201 205 236 240 245 226 209 216
148 144 154 156 128 129 125 159 144 141 140 143 140 131 161 230 172 218 205 202 127 190 191 140 194 192 185 200 194 125 189 191 190 188 195 203 206 206 193 200 212 233 261 218 218 217 206 207 213
136 140 226 127 150 132 209 125 158 140 134 126 124 154 220 234 211 212 213 211 210 205 213 168 197 201 197 184 189 189 191 188 185 186 201 203 203 201 210 214 240 248 203 217 215 212 222 215 209
155 146 158 146 208 202 141 212 153 129 136 151 140 154 231 227 220 223 214 206 204 204 117 122 132 193 189 193 192 192 193 209 229 199 205 205 213 212 202 235 241 225 229 226 234 235 215 208 210
133 139 134 128 142 233 150 217 243 197 114 240 230 229 227 217 226 230 120 223 124 118 123 193 197 211 210 224 220 217 211 206 202 196 200 209 219 242 211 221 227 227 224 225 223 217 217 212 211
217 142 148 206 144 147 156 211 138 239 193 224 224 221 219 220 225 230 225 223 222 143 220 220 214 216 207 210 205 194 192 195 200 213 231 241 205 210 211 207 223 216 216 216 211 212 210 205 203
153 194 150 214 234 233 224 228 236 227 229 220 220 217 224 220 215 214 215 163 212 209 206 210 203 207 201 195 192 196 198 211 232 213 194 218 206 203 207 216 216 212 211 195 193 193 197 199 201
132 156 231 155 232 231 238 239 221 230 224 185 219 210 209 212 213 211 208 208 208 209 205 203 198 198 203 195 196 215 200 219 209 222 219 209 214 210 215 210 196 202 194 201 202 205 207 210 210
148 141 229 229 231 231 236 232 223 219 216 214 210 207 207 205 204 203 205 208 205 204 206 206 236 227 224 247 219 195 219 234 214 205 217 221 225 222 186 195 200 204 209 211 214 212 211 210 211
228 231 226 227 139 225 221 218 217 216 214 213 214 217 213 213 213 214 216 221 233 223 214 217 219 217 234 229 224 220 213 215 241 221 198 197 196 194 203 203 194 196 199 199 200 195 199 199 199
227 223 222 224 224 211 197 131 222 225 228 228 226 223 223 223 230 230 221 213 214 215 213 220 223 215 232 234 229 225 210 198 194 198 200 193 198 198 195 194 195 190 193 198 199 196 196 202 207
225 226 230 231 225 227 187 115 141 228 228 225 222 220 217 215 214 212 208 210 219 223 236 228 220 215 206 204 202 201 202 202 193 193 195 186 192 192 193 195 215 225 225 215 209 205 203 195 198
225 222 218 216 215 211 111 116 117 219 219 214 212 208 206 209 215 214 216 236 226 218 210 203 201 201 201 198 197 196 196 196 196 200 194 191 200 236 236 224 211 195 197 201 201 208 211 209 209
218 210 208 206 177 169 118 118 215 205 203 208 214 216 226 246 236 225 217 207 201 201 198 202 207 196 198 199 197 202 202 200 208 211 244 239 231 221 209 203 199 195 193 199 202 207 216 212 214
211 214 216 212 116 129 208 205 211 218 214 239 236 223 218 208 207 200 200 200 208 203 198 202 192 193 201 195 219 232 241 237 230 244 244 213 203 200 194 191 198 193 202 202 205 206 217 240 267
211 210 211 209 203 213 219 213 206 233 221 217 207 205 199 197 201 197 208 195 199 200 190 196 201 205 217 224 229 243 248 247 234 212 203 201 194 197 199 195 189 200 206 207 195 258 257 254 246
210 207 121 215 214 210 207 227 216 214 205 199 196 214 198 207 207 198 201 197 193 196 193 215 219 214 211 214 218 221 230 207 202 195 194 195 194 192 188 204 209 214 229 244 257 255 251 248 277
213 208 205 215 212 156 218 213 207 201 197 193 190 204 203 199 198 198 193 201 208 204 204 205 203 199 201 202 209 202 203 196 196 193 194 187 188 184 206 217 231 233 246 259 262 229 253 282 286
243 206 228 195 212 208 204 202 195 195 203 201 204 197 192 196 191 198 209 202 199 201 206 204 214 215 215 210 207 186 191 194 190 185 188 185 187 221 221 227 234 260 258 259 270 275 276 266 295
225 222 211 207 205 202 199 193 190 199 196 195 197 197 191 197 207 207 201 201 196 199 194 212 217 221 210 203 202 203 190 187 191 200 189 208 215 218 237 250 251 245 218 244 259 267 270 314 423

GFSSGP_2pvu_pres_033.txt.gz
Presure
125 134 139 123 142 122 102 117 117 102 129 123 112 113 132 108 102 127 101 121 133 129 127 116 123 145 123 139 132 142 140 144 126 152 174 166 156 169 156 139 174 179 175 163 160 191 192 190 147
133 132 158 159 134 132 127 127 120 97 108 115 147 114 115 124 136 144 129 125 142 115 112 127 125 116 123 133 129 125 143 147 153 169 181 173 174 132 182 187 170 180 172 189 189 186 206 119 117
184 118 132 133 117 135 133 112 139 120 113 111 117 125 123 112 130 128 118 128 126 115 132 126 137 132 135 132 141 132 143 152 122 164 172 167 168 137 189 189 183 190 196 181 182 112 121 158 109
155 133 123 125 137 125 134 114 122 128 131 143 130 130 125 121 127 119 124 123 103 125 126 154 150 142 134 138 144 148 144 157 201 173 190 171 181 173 126 190 125 198 193 184 160 183 110 116 129
101 132 115 125 119 143 146 142 130 138 124 129 129 119 135 140 131 126 146 117 125 123 139 160 116 132 143 152 149 144 177 161 124 161 123 156 108 201 184 97 188 200 186 173 122 119 119 124 132
122 167 145 219 124 146 116 123 139 150 138 144 142 141 124 124 129 135 131 122 117 138 127 116 113 149 124 143 158 157 123 190 188 185 124 114 161 170 140 187 108 111 124 118 118 120 149 125 128
123 135 138 132 124 143 128 117 126 146 152 132 138 132 130 137 120 114 132 129 130 121 138 134 143 147 150 123 140 155 115 124 197 185 181 121 181 105 180 177 111 186 134 127 188 195 195 125 202
129 139 126 137 138 137 141 105 130 117 114 146 139 134 115 124 129 108 104 124 124 103 126 132 153 159 165 151 159 189 180 122 188 182 185 198 195 191 203 116 159 195 182 190 184 192 205 204 200
141 144 130 143 141 150 117 132 107 155 139 146 132 117 124 131 171 115 126 131 132 122 145 132 168 142 155 166 188 191 202 166 194 206 202 187 188 199 193 192 198 186 194 192 192 216 204 190 240
145 147 148 141 144 130 144 137 137 129 142 148 141 116 118 137 131 113 123 130 117 128 139 121 142 121 151 159 185 182 191 203 189 202 149 197 202 197 183 187 186 195 188 185 210 197 206 223 238
151 156 142 150 122 148 158 119 143 142 128 145 118 153 135 146 115 119 130 140 146 137 133 142 164 152 203 210 187 199 190 139 197 197 185 198 184 180 188 189 185 192 186 206 204 217 239 238 227
148 260 140 150 150 228 118 212 138 123 140 141 146 131 138 142 123 133 133 124 140 130 197 208 202 194 201 193 188 193 122 124 181 187 186 197 190 186 192 183 196 218 195 203 229 232 231 262 239
127 121 146 131 129 136 190 150 134 138 129 138 137 144 143 134 131 132 137 138 132 158 172 199 160 184 202 202 118 123 142 183 203 190 186 183 191 204 208 215 210 201 142 255 232 216 243 239 224
119 135 149 151 117 126 122 120 148 152 129 141 125 129 174 134 110 175 132 184 139 215 210 206 199 195 199 144 120 197 196 195 193 190 193 208 213 208 204 204 200 243 216 228 228 230 229 222 224
139 126 139 118 140 235 140 132 147 134 141 136 232 203 137 135 147 140 223 228 222 208 204 203 203 202 201 198 194 193 190 196 204 218 202 203 202 190 133 237 219 220 238 223 217 216 203 208 210
143 139 158 130 132 141 158 158 138 141 156 133 214 144 157 215 150 225 225 226 229 234 235 229 214 212 158 215 223 214 212 207 201 197 195 201 210 243 223 223 229 222 226 215 220 203 197 205 210
237 135 138 193 187 153 147 133 129 146 144 242 242 201 193 189 222 222 217 219 220 220 221 219 219 214 210 208 203 201 198 196 200 208 216 227 230 209 230 221 224 228 202 201 201 203 204 200 193
131 151 221 207 151 187 239 232 234 150 136 230 222 221 226 221 218 218 219 216 213 214 203 208 205 203 199 199 205 206 211 228 230 215 206 197 221 216 222 223 213 203 207 199 202 199 201 201 198
229 231 139 130 226 210 134 142 227 221 143 219 230 235 217 218 209 212 209 199 202 199 202 203 203 207 208 219 229 211 205 205 221 217 238 234 219 216 200 192 199 199 195 195 197 190 188 192 218
135 139 227 182 161 229 226 223 236 234 232 223 221 216 218 215 215 210 209 199 208 203 208 210 222 231 211 208 210 223 226 222 227 220 213 204 199 200 201 203 196 197 198 194 183 203 226 231 217
226 223 220 220 221 219 222 219 222 219 218 174 213 119 207 205 204 205 208 209 213 230 231 217 210 209 225 234 226 222 217 210 203 200 200 201 199 199 201 202 202 203 218 234 235 224 211 200 198
223 221 224 221 221 215 218 215 215 217 218 216 117 115 136 218 222 226 230 221 214 207 206 230 220 226 218 217 207 206 211 206 201 203 205 204 207 210 229 239 238 239 234 209 199 197 197 197 191
223 221 220 221 223 225 226 223 220 231 123 136 117 155 219 221 213 210 204 208 214 233 226 223 216 208 200 209 193 200 204 203 205 214 241 249 255 255 257 257 223 208 202 200 200 200 196 200 198
223 216 220 219 218 221 212 205 209 211 211 156 213 211 207 205 212 213 228 229 222 217 210 200 203 202 194 204 199 200 217 216 215 223 224 225 226 228 212 204 200 197 197 196 203 201 196 211 204
216 216 219 216 211 205 206 208 213 169 207 206 205 215 216 225 229 222 215 210 205 200 207 195 200 197 204 214 215 214 214 213 212 208 206 212 203 201 200 200 202 200 198 202 195 207 207 215 261
209 209 206 207 210 212 207 211 205 200 205 217 215 228 218 216 211 206 200 217 211 198 203 194 210 203 204 205 205 213 221 223 213 205 199 206 194 197 196 196 193 194 184 201 207 229 235 263 275
211 210 211 209 206 206 163 216 220 214 209 227 216 214 209 198 219 201 213 195 201 196 211 201 201 202 203 195 207 217 223 216 217 209 205 211 186 207 196 193 190 183 198 221 235 243 262 272 264
209 210 207 204 213 214 208 206 214 219 218 210 208 203 189 203 207 199 203 197 200 209 201 200 193 194 199 207 205 213 207 206 212 209 216 205 198 192 194 193 191 201 216 236 264 265 252 274 286
206 207 210 217 208 203 214 217 214 210 205 199 198 214 193 202 197 201 197 199 206 195 196 191 191 192 199 207 202 203 213 212 219 215 202 196 194 201 198 195 206 227 239 266 256 242 243 255 293
214 213 204 204 224 214 208 205 204 200 200 197 194 204 194 198 200 200 204 205 194 197 190 192 193 193 185 204 203 207 219 227 216 204 196 196 194 192 213 214 221 241 256 261 244 231 230 292 304

GFSSGP_2pvu_pres_036.txt.gz
Presure
111 142 145 108 166 123 132 135 98 104 112 123 127 114 104 133 109 117 120 114 99 105 122 122 116 129 122 151 134 113 121 129 117 128 140 114 142 147 168 142 163 187 133 132 171 175 176 175 169
114 116 119 126 123 150 148 137 119 129 116 132 92 91 119 106 107 115 102 109 128 128 144 140 138 121 129 120 150 132 130 120 150 136 134 156 143 147 145 159 199 173 120 181 183 158 128 195 183
125 138 116 135 130 123 140 143 152 129 133 127 123 120 117 121 106 115 124 122 147 126 116 138 131 103 120 140 162 144 137 126 129 137 141 141 150 144 188 140 186 188 201 121 128 188 195 147 202
135 117 139 209 129 145 112 126 152 136 118 128 120 119 121 125 137 107 139 131 129 133 122 140 122 124 144 125 148 109 121 134 156 144 144 139 153 141 165 126 127 118 119 180 184 113 192 113 117
114 142 128 130 128 138 131 128 126 104 141 128 128 129 139 112 122 128 129 124 129 124 123 128 136 118 115 139 128 110 130 141 135 149 204 151 161 148 127 175 196 149 118 113 134 141 126 205 187
125 130 134 136 131 126 130 142 127 119 116 150 135 133 138 135 119 124 138 127 107 129 130 132 140 124 135 127 127 119 108 143 168 155 155 152 206 189 179 202 202 186 206 192 158 184 187 174 187
141 112 131 134 117 132 123 236 128 136 147 144 145 147 146 112 135 136 134 121 135 124 133 135 113 125 100 124 124 130 120 146 134 206 154 164 178 127 132 193 178 182 171 195 195 198 191 184 188
140 148 135 133 137 188 144 141 137 142 159 141 123 139 130 142 110 143 109 131 89 123 131 139 126 123 135 126 133 142 140 146 114 166 157 162 179 191 180 199 193 197 190 182 185 183 190 190 182
275 136 137 123 132 111 168 149 149 151 148 142 117 141 130 144 121 112 123 125 113 127 134 140 134 153 141 134 184 134 192 152 181 169 179 137 179 197 184 185 193 198 196 185 190 188 200 184 186
139 146 141 130 128 122 130 142 132 129 138 134 133 120 152 141 133 122 109 118 130 142 138 157 116 133 178 138 131 153 142 150 180 178 178 185 193 117 174 126 206 186 184 201 185 187 186 197 187
121 132 137 131 129 163 151 106 127 124 124 135 113 118 207 104 147 135 137 225 130 125 140 184 139 138 134 135 138 137 153 179 186 182 190 199 119 199 186 201 190 183 191 185 185 187 192 219 206
137 143 132 133 157 133 132 142 146 139 128 120 126 134 112 126 145 127 137 139 131 131 119 131 133 133 134 189 157 156 177 195 191 150 134 189 196 183 208 187 188 192 185 182 191 207 212 208 244
149 143 126 125 123 126 171 151 134 138 134 114 134 109 153 184 132 131 122 135 142 117 132 179 136 140 168 199 163 191 156 193 194 189 200 183 189 191 187 190 190 194 193 209 212 204 225 233 223
128 116 122 144 113 179 118 139 123 151 128 125 133 144 200 186 191 128 124 129 122 192 153 128 120 175 197 163 193 192 192 194 201 189 191 191 192 193 197 187 200 215 217 204 239 228 240 248 232
127 131 137 117 119 122 135 126 115 130 121 139 137 173 124 127 132 130 206 217 138 142 126 136 196 196 197 200 201 192 187 188 187 193 190 193 193 189 189 217 205 208 241 215 250 218 224 228 213
129 143 141 121 133 140 145 124 154 127 132 157 167 144 141 138 147 146 138 137 167 211 213 213 196 205 207 201 202 201 197 196 195 188 191 193 194 219 200 204 223 214 223 218 216 224 212 205 213
123 157 214 117 192 207 134 136 125 211 183 174 132 132 139 180 151 204 154 144 215 180 146 219 221 217 213 209 206 202 216 211 211 214 204 201 198 215 225 215 224 226 222 230 216 206 214 208 202
200 140 232 161 206 132 131 142 133 136 209 191 207 241 239 200 199 196 193 215 146 202 226 215 212 220 217 219 209 201 200 201 196 203 209 233 218 216 235 236 226 221 214 205 209 205 203 204 204
232 234 244 231 226 127 229 233 233 228 222 226 135 138 144 235 224 219 217 237 229 214 214 210 206 198 195 197 196 195 203 209 226 225 209 235 230 222 219 214 204 205 213 207 205 204 213 225 250
228 236 231 142 202 193 226 222 133 161 166 220 221 220 219 212 218 198 212 209 214 215 209 201 203 205 196 197 204 217 225 210 215 229 217 215 209 204 201 208 205 207 222 236 264 266 266 254 227
226 132 185 226 231 136 203 223 224 226 230 228 224 224 211 211 206 210 206 160 200 201 200 202 201 199 198 207 226 208 222 221 215 210 203 203 206 198 212 218 223 239 240 236 235 224 214 208 207
230 240 230 227 223 211 221 221 223 220 225 221 218 220 221 216 214 127 191 205 202 202 203 209 220 226 211 216 226 217 214 204 199 209 211 202 231 217 224 223 221 219 218 217 213 210 202 197 204
240 229 223 222 220 212 219 221 217 217 223 217 209 214 217 219 116 216 222 225 229 230 215 209 211 237 224 214 205 197 203 213 195 206 225 233 219 219 224 217 215 210 206 207 203 202 209 204 202
225 226 216 213 216 145 216 222 219 226 212 207 220 212 210 211 213 212 210 207 208 222 232 231 217 207 207 202 210 212 211 211 212 209 204 200 199 216 218 228 227 212 204 210 201 205 199 203 205
184 219 212 214 219 223 220 215 220 199 208 213 203 207 209 205 206 206 224 231 217 217 211 204 205 207 213 216 207 214 204 199 201 200 210 208 215 217 223 220 217 225 214 206 204 195 207 202 216
211 211 214 210 221 216 205 206 201 202 200 197 205 201 204 207 224 216 209 212 210 202 197 207 213 201 212 204 207 200 197 191 194 197 205 210 222 232 232 231 224 209 203 200 207 204 206 222 246
211 214 211 210 208 202 202 208 212 201 158 204 202 212 220 216 208 213 211 195 191 203 209 210 206 209 204 203 194 194 193 194 199 194 196 208 223 236 231 220 206 204 205 209 216 224 229 252 265
214 210 205 206 206 208 205 207 202 203 206 217 219 222 213 213 206 208 190 202 203 205 206 209 211 208 201 194 194 191 194 196 199 198 209 209 230 230 213 204 201 205 210 223 227 241 257 257 261
209 205 203 207 208 207 206 201 206 214 213 219 211 210 205 201 203 201 206 202 204 206 211 205 211 203 191 190 187 187 197 197 201 201 203 222 229 206 203 201 206 214 216 227 238 257 254 270 253
208 205 211 207 203 204 207 220 232 225 213 209 208 199 196 198 208 200 201 203 204 212 201 203 212 196 191 191 185 190 193 189 199 202 219 234 202 204 201 207 211 212 225 241 243 259 242 262 265

GFSSGP_2pvu_pres_039.txt.gz
Presure
110 142 128 138 98 131 120 120 103 127 128 144 129 92 126 131 97 96 97 115 127 101 118 120 104 126 122 129 128 141 134 111 112 124 129 129 132 141 133 125 137 140 145 182 154 151 127 156 151
129 135 138 139 123 137 121 168 124 131 119 151 138 143 141 135 126 100 106 104 112 103 121 119 124 144 128 147 118 108 120 130 113 139 146 131 141 111 125 133 144 143 123 148 138 171 170 156 201
154 156 141 143 117 121 149 117 140 125 130 129 140 131 126 122 95 116 117 133 117 123 116 123 120 134 135 119 119 129 120 115 103 123 126 124 112 127 150 142 129 139 170 151 202 159 200 174 201
125 117 153 123 144 140 130 157 133 130 114 140 122 141 157 132 102 140 127 125 126 125 124 144 135 141 140 136 141 123 103 123 115 124 110 107 109 143 135 182 138 164 155 164 164 188 108 102 203
173 153 189 166 148 144 130 117 139 125 118 126 131 142 128 149 139 128 121 123 108 127 110 128 127 133 140 131 133 138 106 112 104 112 119 124 118 108 139 142 144 183 177 211 205 169 127 126 193
220 155 165 165 136 143 124 122 94 124 122 135 129 139 140 147 123 131 118 129 119 118 128 136 126 147 125 140 142 104 113 108 134 137 117 142 132 140 121 139 178 165 193 163 180 183 160 185 191
261 152 157 138 253 127 137 126 131 105 117 135 143 135 137 132 138 140 109 105 126 126 133 124 132 99 129 138 141 116 130 140 155 156 155 131 133 141 162 145 180 201 162 190 177 182 183 190 191
128 151 146 143 110 144 130 117 126 135 97 132 155 133 144 129 133 130 139 137 111 134 118 136 139 148 141 150 126 138 134 140 138 129 111 141 173 162 156 168 176 105 112 114 113 190 185 183 197
144 163 145 139 137 130 137 137 142 142 141 148 142 126 145 131 140 145 142 136 132 133 136 140 133 139 142 148 122 125 128 177 136 134 149 145 150 192 153 167 171 181 136 186 181 194 187 201 194
133 146 177 148 178 131 139 151 146 141 141 144 143 111 204 126 150 120 127 131 136 129 123 142 143 151 131 126 124 131 130 135 132 134 130 155 181 165 188 151 178 184 190 184 186 180 197 186 192
136 163 218 126 147 194 113 129 137 123 118 131 144 129 118 141 145 107 131 118 138 130 124 119 96 171 127 128 143 141 136 134 203 142 189 145 183 188 188 183 192 178 192 188 191 202 186 189 184
143 143 144 276 145 257 134 163 130 107 108 130 137 139 141 124 129 118 112 115 145 170 137 137 203 134 129 119 134 136 127 136 139 161 166 186 189 185 182 192 184 192 187 190 206 189 197 193 190
133 211 148 202 131 175 174 148 142 139 122 174 143 143 150 147 124 122 115 128 128 136 134 137 126 127 132 168 180 135 134 198 158 186 193 193 195 193 185 192 189 180 182 190 192 196 196 192 196
185 163 216 203 186 157 127 138 132 156 131 177 138 137 132 124 127 125 123 134 123 131 122 130 138 139 138 178 162 196 204 203 156 196 205 195 193 192 191 183 184 200 203 192 185 200 204 226 217
156 113 156 119 136 226 134 125 138 123 114 168 126 120 120 114 119 137 125 142 125 130 182 141 132 133 136 135 145 179 139 202 187 191 209 194 193 188 196 196 198 181 181 194 204 217 257 245 219
116 136 125 245 258 138 137 148 121 115 128 115 125 112 131 156 141 125 135 126 148 122 129 216 177 138 148 125 137 203 203 189 198 190 182 187 202 198 190 186 195 215 220 208 225 240 235 229 224
109 181 106 136 141 142 133 134 133 120 127 211 127 121 139 131 135 133 128 166 228 230 132 144 216 166 213 144 200 194 201 212 190 200 205 204 201 205 209 201 203 213 222 220 230 225 218 210 213
143 147 234 141 146 131 115 132 128 138 137 196 127 148 130 131 124 129 212 219 194 176 178 157 212 199 200 197 206 201 179 200 216 215 202 195 196 200 200 239 228 214 230 216 207 199 206 208 224
137 234 117 238 126 140 129 125 146 236 117 128 143 134 134 214 221 223 222 224 214 205 209 117 115 215 224 217 230 230 212 203 193 189 185 193 195 197 226 226 215 207 204 205 216 214 216 215 218
229 232 226 234 166 227 227 234 129 125 196 198 201 178 220 165 231 159 243 212 225 218 205 111 112 224 212 202 200 194 192 198 195 204 209 210 224 226 211 202 196 223 220 208 229 228 231 236 235
235 233 225 229 237 227 226 225 227 148 205 135 219 214 191 203 219 217 216 202 213 218 225 213 213 200 202 199 201 200 197 201 205 227 218 222 209 208 194 216 217 213 214 215 216 233 224 222 235
226 153 232 236 222 221 175 224 220 221 221 223 228 224 222 226 220 222 219 215 209 202 133 184 195 197 200 200 201 200 202 227 222 222 210 198 193 215 205 203 210 214 222 227 247 242 239 239 229
230 228 223 227 217 222 227 225 219 222 223 224 217 217 216 222 221 228 220 218 217 209 208 210 213 215 213 228 224 210 233 223 204 197 193 221 205 207 207 199 198 199 203 224 240 235 232 221 210
225 223 230 226 215 219 216 216 214 226 222 214 215 217 215 217 211 214 219 217 216 219 217 213 206 205 217 230 229 214 201 202 205 212 204 202 201 199 197 204 208 209 216 240 232 217 208 203 200
223 222 228 224 226 221 225 226 220 219 220 224 219 229 228 213 205 208 209 207 218 206 212 228 225 216 206 199 199 200 203 214 214 207 206 204 201 201 208 209 208 211 239 228 208 207 207 212 223
212 214 218 222 224 224 223 227 219 215 214 202 210 207 212 209 212 201 208 217 229 223 217 213 199 191 203 201 209 201 220 218 207 201 196 195 195 194 203 199 209 223 240 205 209 215 214 215 222
221 217 209 212 217 217 212 221 212 206 206 202 202 205 210 204 206 216 228 219 212 210 206 193 203 197 195 202 222 217 221 215 199 199 198 196 194 199 200 206 213 236 203 208 210 208 217 220 240
217 218 225 214 213 212 213 203 205 212 213 210 209 205 204 215 222 217 212 203 201 200 199 197 198 201 208 219 211 212 217 199 198 195 191 193 192 197 203 207 210 221 208 206 204 213 218 234 247
222 216 212 210 210 208 210 206 208 210 209 207 206 218 229 215 211 207 199 201 199 200 198 198 209 216 215 207 203 203 199 194 192 189 188 190 198 199 201 208 208 237 206 198 212 218 227 251 242
210 207 213 210 207 206 208 207 210 207 207 215 216 219 216 211 202 203 200 201 194 194 193 203 202 202 200 203 206 208 195 191 188 181 192 195 195 193 207 204 236 224 209 210 218 221 248 255 243

GFSSGP_2pvu_pres_042.txt.gz
Presure
133 113 247 148 137 141 145 137 136 125 107 126 87 139 135 150 136 136 130 111 112 106 102 128 125 107 119 97 126 120 125 122 103 111 144 131 131 126 119 127 148 106 123 123 125 138 131 129 132
123 123 133 137 109 117 122 126 147 134 130 134 128 129 129 129 106 132 144 126 111 118 112 121 129 126 130 125 132 134 140 112 142 123 138 122 113 119 138 110 132 123 130 104 122 130 134 137 141
143 141 228 133 150 134 169 144 155 107 130 124 116 138 137 140 120 130 130 133 128 124 136 134 125 129 118 107 137 135 123 139 147 142 119 107 130 120 122 105 120 104 137 99 135 144 149 139 170
122 258 135 151 146 122 120 195 142 144 123 126 130 127 137 127 128 120 143 131 130 116 109 133 129 122 110 146 132 125 139 113 133 152 112 99 102 139 103 141 158 135 122 140 123 142 145 137 220
270 143 134 183 132 174 154 138 148 143 149 133 125 143 140 140 118 148 135 138 126 130 131 131 137 148 139 136 138 132 143 118 142 107 104 109 101 103 138 117 124 114 140 126 145 142 147 159 164
151 146 128 274 139 220 151 129 141 122 148 132 128 108 134 142 117 117 112 129 136 118 114 139 136 145 95 144 129 141 148 142 116 109 108 115 108 117 139 132 119 142 130 129 144 169 206 185 187
166 129 238 295 117 118 152 139 111 129 139 136 127 157 147 137 150 125 129 133 148 141 139 139 104 113 102 89 95 101 134 96 117 154 125 120 130 136 145 121 170 144 129 150 198 186 188 183 181
134 125 117 153 143 163 135 134 131 139 151 144 108 142 145 103 115 118 135 139 120 106 120 141 139 167 151 114 121 144 131 125 141 132 118 138 138 120 131 126 133 135 184 145 181 166 185 193 180
283 265 134 139 236 185 191 218 152 163 150 125 131 139 139 119 123 134 119 112 133 138 133 142 142 138 144 124 124 168 125 120 124 114 126 138 125 125 121 133 138 156 139 181 194 194 178 179 180
178 244 180 142 143 135 153 148 145 167 159 136 134 130 120 131 102 128 138 135 138 113 131 136 134 125 131 148 140 139 139 134 130 120 139 127 139 142 142 145 192 166 192 178 184 182 187 183 184
249 225 150 268 150 159 147 124 146 153 151 140 116 132 141 124 115 130 114 137 127 125 128 112 112 111 121 136 129 143 122 136 167 134 127 140 132 152 133 176 150 185 180 187 187 179 187 196 190
136 144 214 124 265 134 143 137 133 146 141 154 135 133 130 138 130 133 135 235 132 213 125 120 118 130 137 124 128 117 137 132 127 172 132 134 131 133 145 180 191 178 186 191 196 194 196 191 183
195 252 150 179 144 141 145 139 140 131 126 149 115 138 118 130 135 129 130 119 128 132 127 123 120 130 134 134 121 129 133 162 157 197 167 193 141 153 193 196 199 202 183 187 193 181 183 188 202
206 240 242 204 146 221 137 146 144 139 137 146 143 129 121 119 135 142 118 138 148 144 121 130 130 131 129 126 122 128 144 138 165 143 177 170 201 205 201 194 191 195 191 183 185 185 185 189 192
233 230 234 233 150 228 142 147 147 227 158 123 121 129 124 129 138 115 118 129 125 131 145 120 145 127 132 127 135 194 137 193 139 200 190 199 187 197 195 184 185 186 186 177 190 196 218 217 201
228 203 217 235 129 136 258 201 144 158 217 118 134 122 125 117 137 122 139 130 114 132 132 126 127 124 186 187 132 202 144 201 120 152 196 193 192 175 189 186 192 196 198 193 207 198 192 202 207
115 200 238 124 236 120 168 183 230 147 115 154 118 140 117 133 122 174 159 136 120 124 129 124 127 214 150 212 206 192 162 157 201 199 192 189 203 203 180 178 179 191 211 193 186 198 223 227 220
243 243 197 118 129 125 121 124 200 170 206 117 119 115 114 122 127 143 120 146 119 129 128 166 218 206 168 207 200 160 192 200 200 199 186 183 184 197 196 199 207 203 189 205 219 234 214 207 211
221 236 119 159 128 121 139 116 219 130 247 119 130 125 174 139 126 124 128 125 132 135 134 216 216 211 197 211 216 190 200 203 205 198 200 196 207 198 189 188 195 202 204 240 207 224 197 219 210
233 206 151 129 205 191 139 213 120 156 167 124 124 143 228 169 211 213 196 133 126 180 199 212 228 221 223 213 206 209 207 203 211 215 207 197 202 204 200 198 201 227 213 223 198 200 209 209 205
235 225 226 226 226 171 205 227 125 196 143 142 191 229 231 211 224 181 203 217 217 209 214 216 206 217 211 212 202 194 198 208 199 198 194 195 198 196 222 226 228 216 205 202 213 207 205 210 203
237 221 222 217 218 221 221 227 218 226 230 228 221 220 130 138 144 226 200 219 212 215 210 214 206 203 213 217 213 207 200 197 200 201 199 199 212 231 224 206 210 192 213 202 210 204 195 203 209
230 224 217 220 217 226 237 222 219 221 219 217 139 219 218 218 214 212 225 208 213 214 212 210 219 213 212 206 206 205 204 208 238 233 245 220 205 201 203 216 212 205 209 204 198 198 199 207 211
230 230 217 219 225 226 221 215 226 230 218 181 215 208 216 215 216 211 213 220 219 216 218 220 212 216 214 219 218 212 217 229 218 204 204 200 197 202 211 210 204 201 196 201 194 193 205 207 212
219 231 217 216 224 236 224 222 222 211 208 212 217 218 214 213 214 221 238 226 218 213 209 211 206 210 210 227 229 215 199 195 202 195 195 200 207 213 209 203 199 199 197 191 197 200 199 215 223
233 226 220 225 230 235 233 239 221 220 220 219 229 226 222 221 221 217 214 204 197 211 227 218 228 220 214 206 196 197 196 194 195 205 219 205 205 215 207 200 199 192 191 199 201 202 214 223 234
242 229 212 211 219 229 227 214 222 224 222 225 226 225 209 201 200 201 209 211 218 215 219 214 205 202 199 198 194 196 200 212 214 203 205 209 209 203 199 199 191 193 202 202 198 213 220 236 212
225 219 216 219 219 217 215 210 215 211 213 211 210 212 216 210 211 210 219 217 221 206 207 203 199 202 194 195 191 206 206 199 201 203 203 210 214 214 196 192 198 195 201 195 210 220 235 209 215
211 218 219 216 215 221 216 210 207 208 204 204 206 203 207 207 211 217 229 218 211 205 203 201 195 196 186 192 190 193 198 195 195 214 216 217 210 202 199 200 194 201 200 211 219 233 209 221 221
215 217 214 214 213 212 214 211 211 209 210 205 207 206 209 204 217 225 215 206 202 200 202 199 193 193 187 187 193 203 211 212 217 210 204 198 194 195 202 201 205 208 211 221 229 207 220 239 259

GFSSGP_2pvu_pres_045.txt.gz
Presure
145 123 149 108 132 139 139 148 177 153 131 133 132 107 129 120 119 77 133 118 86 128 138 132 136 101 105 105 116 118 125 105 123 120 129 121 115 113 104 110 97 113 137 106 90 104 129 134 115
116 136 267 119 131 129 137 128 137 131 144 168 135 127 116 127 130 149 132 128 143 136 125 137 126 141 115 132 135 123 119 114 121 131 133 138 126 116 143 151 104 139 111 126 103 106 121 119 109
134 244 114 188 265 148 132 123 101 100 117 116 111 143 140 116 136 130 141 135 108 156 99 126 128 115 95 143 136 116 111 131 144 132 124 104 121 132 148 118 151 120 104 112 105 120 119 117 128
144 146 130 264 297 120 154 136 124 191 168 150 136 149 133 126 137 144 122 137 129 96 122 105 125 90 102 138 144 143 121 151 145 152 128 143 127 98 111 108 103 139 102 140 124 140 122 131 140
282 298 310 305 168 165 262 142 146 156 139 153 180 131 132 139 121 128 125 146 141 120 94 122 135 93 115 125 138 135 129 149 134 115 130 129 119 125 116 108 108 107 113 148 123 121 115 111 138
288 288 205 296 222 170 220 209 135 167 150 164 139 134 133 144 150 136 117 131 139 115 127 137 117 130 140 139 128 136 137 114 126 118 121 139 130 122 143 149 123 118 171 126 117 137 129 124 134
255 138 157 122 145 245 137 136 247 135 136 129 135 132 160 150 147 127 112 119 129 133 124 135 131 137 131 142 140 146 130 139 150 104 131 138 122 118 132 122 120 144 134 146 129 136 137 141 145
267 271 136 139 139 149 309 261 127 129 141 131 135 187 152 152 145 145 97 108 124 99 144 138 75 133 119 141 137 121 127 152 127 114 137 118 129 128 124 122 127 127 159 133 219 202 187 188 173
127 152 200 191 295 289 305 129 128 135 142 135 164 150 136 150 141 150 141 126 143 133 124 125 129 140 133 125 117 127 122 130 128 125 125 151 110 124 128 127 133 171 159 195 219 144 196 194 197
167 107 174 113 291 141 130 134 275 217 201 142 158 146 142 134 125 117 119 120 117 126 138 136 137 125 125 144 130 107 106 120 117 120 123 125 126 119 133 137 203 217 135 168 174 155 198 188 192
253 133 285 264 126 225 132 142 145 151 148 262 156 142 150 146 155 146 116 134 147 125 138 136 116 116 133 133 124 120 117 123 141 129 124 118 131 172 184 134 202 187 198 181 202 186 192 207 196
263 284 274 267 132 254 146 243 147 140 233 203 149 142 160 251 116 124 141 118 133 139 132 139 125 121 121 124 119 119 128 121 132 126 118 128 142 151 135 176 202 205 180 195 211 184 197 200 188
265 261 257 241 245 195 221 149 141 175 220 174 147 246 213 178 162 158 145 139 123 137 133 131 122 123 134 124 118 139 191 127 122 129 127 140 126 188 107 157 158 147 196 200 197 202 175 189 196
270 260 247 244 203 167 145 143 214 156 207 261 153 123 142 137 136 130 134 122 122 136 133 129 117 122 131 120 140 138 120 127 122 153 137 167 194 200 204 201 173 196 197 191 184 191 200 199 182
251 236 125 201 141 140 246 161 255 222 192 134 146 128 148 143 143 123 117 117 121 149 131 120 118 141 140 131 119 123 131 125 133 136 208 187 208 206 190 200 191 190 181 196 189 186 182 185 192
246 246 228 235 238 243 259 151 250 152 126 132 144 145 133 146 126 121 122 122 123 125 116 120 117 106 138 115 118 129 122 182 189 191 216 205 206 183 213 194 193 184 192 188 189 183 183 199 214
237 137 231 234 236 245 248 181 209 133 144 130 126 233 123 139 134 130 118 158 122 118 121 124 122 121 119 116 124 135 175 134 201 163 205 214 194 193 198 190 184 185 190 201 195 184 212 192 198
237 235 213 215 237 230 219 157 133 116 129 128 212 200 165 187 128 120 117 114 119 124 119 120 118 120 224 125 205 226 218 219 210 207 196 204 201 110 188 195 186 187 183 183 205 196 195 191 196
107 224 138 188 117 232 234 235 131 118 120 131 114 210 148 218 142 117 118 112 123 144 122 123 123 222 218 135 127 205 207 202 197 211 195 192 182 189 201 197 196 200 210 196 191 194 190 215 212
228 234 232 153 147 206 139 201 131 138 120 127 136 200 197 202 119 127 130 122 131 134 133 126 199 193 202 219 218 213 212 213 201 208 206 206 194 192 195 205 196 197 198 192 191 214 213 196 200
232 226 227 239 225 225 123 221 120 123 126 136 131 159 227 223 232 157 124 139 134 204 202 206 165 210 170 211 219 210 210 227 213 208 213 219 211 202 205 202 197 194 210 219 204 188 201 215 207
234 229 226 228 222 220 231 144 139 124 194 213 125 220 128 208 216 202 160 215 210 207 134 204 208 204 203 202 211 224 215 209 204 207 204 200 198 195 199 214 226 208 208 202 203 210 216 214 208
225 232 219 217 221 222 223 219 218 219 222 227 229 222 225 223 228 232 233 222 236 236 244 215 213 225 212 212 203 198 211 213 210 209 208 216 222 205 216 212 187 201 203 224 215 210 222 220 206
225 221 227 215 222 224 222 223 233 221 218 220 218 220 216 213 216 199 213 221 211 213 214 211 221 217 219 218 217 215 214 220 214 211 213 218 206 195 190 202 207 226 209 208 213 208 204 199 198
243 226 228 222 214 215 232 235 228 219 212 224 219 215 215 217 211 212 216 215 212 209 212 211 213 209 205 203 216 204 219 220 218 207 204 202 199 197 208 210 205 205 206 205 206 209 211 208 204
242 234 222 227 213 226 220 231 224 213 226 221 213 209 211 213 223 220 213 213 220 211 222 208 189 191 197 213 219 208 207 202 202 202 196 192 193 188 198 202 202 198 213 212 206 203 201 198 200
236 222 227 230 226 223 228 208 221 223 217 218 220 217 216 221 223 219 203 210 197 192 197 199 218 212 215 206 201 202 202 201 197 191 188 185 193 200 207 212 215 206 194 197 198 200 205 209 211
235 232 237 232 225 206 217 217 218 214 213 219 217 214 213 207 206 205 204 209 207 205 206 225 225 211 207 200 200 204 192 195 192 187 187 195 208 214 206 199 195 195 195 196 205 210 212 242 238
233 239 218 220 221 225 218 210 213 217 213 207 206 209 206 204 204 203 205 204 207 205 230 218 207 199 196 201 196 194 192 191 190 194 204 208 205 198 198 196 195 192 206 201 205 224 236 220 218
228 224 218 205 215 219 217 218 217 210 208 205 203 204 204 210 211 209 213 207 227 222 211 201 200 198 196 193 196 190 188 194 201 210 207 199 195 196 199 195 205 203 208 215 225 233 220 217 236

GFSSGP_2pvu_pres_048.txt.gz
Presure
126 107 184 151 147 115 155 150 135 131 149 132 152 131 135 103 113 135 112 114 140 132 120 132 132 97 97 128 102 113 139 103 127 113 120 108 123 131 119 117 111 131 129 119 120 101 129 108 122
206 290 275 168 219 146 166 139 133 93 129 128 131 143 137 178 134 115 116 118 115 129 131 146 139 98 109 137 109 126 136 107 142 126 118 124 141 109 146 137 135 142 124 116 126 113 110 102 99
277 175 106 306 138 154 185 129 141 145 136 128 135 146 140 146 135 136 141 118 129 120 140 133 147 124 117 136 141 126 134 102 112 123 142 143 144 117 126 110 142 118 115 133 116 98 125 104 100
123 318 301 102 148 189 192 132 140 148 128 113 146 133 149 170 151 149 146 143 145 127 134 117 146 134 111 116 111 109 102 133 139 138 110 134 121 117 154 114 109 111 101 98 120 129 103 100 126
345 300 123 139 300 259 316 150 123 140 119 133 141 132 140 132 139 147 142 147 135 141 129 134 148 125 149 106 153 129 141 120 136 108 144 140 149 147 108 116 135 117 117 122 120 112 110 111 128
316 107 289 226 299 310 310 137 131 264 194 189 145 136 162 126 131 170 136 135 112 136 127 119 115 128 144 137 132 114 118 117 142 142 121 125 98 111 106 129 115 119 134 147 117 119 120 123 156
286 146 282 245 251 300 282 289 301 272 140 254 131 118 147 134 163 145 157 159 140 135 136 142 140 110 140 131 107 137 135 126 103 126 119 133 130 154 130 122 117 120 123 120 117 121 120 137 131
254 281 280 114 288 298 300 300 296 303 241 139 135 158 144 141 125 196 112 158 126 133 124 142 120 146 117 131 145 112 141 137 123 122 119 120 108 123 127 127 128 120 119 121 125 121 142 134 225
273 183 269 231 290 295 297 289 292 266 128 274 153 214 135 157 148 142 125 128 138 134 128 141 136 114 111 127 125 137 118 116 135 144 115 123 111 124 142 120 117 122 114 128 129 137 127 183 198
264 267 174 126 127 125 193 256 141 142 148 199 245 240 141 146 147 152 141 137 152 122 139 124 141 138 129 129 133 120 120 124 140 113 125 128 109 110 119 124 125 113 124 154 129 150 192 164 159
253 261 168 259 131 111 206 173 273 136 235 153 143 147 151 156 142 151 142 139 154 158 140 121 121 140 133 142 122 113 127 123 127 119 116 109 140 112 124 118 130 123 126 139 199 193 201 170 173
278 255 265 289 135 155 126 122 125 266 128 240 127 208 135 141 176 128 141 184 141 157 148 152 116 132 136 130 129 129 122 116 126 116 111 129 123 118 126 117 132 130 138 207 195 205 111 110 118
260 172 278 261 119 162 221 253 210 141 200 238 235 134 170 146 147 135 177 153 153 122 131 140 113 140 126 138 126 121 142 117 137 143 120 141 119 122 126 128 133 207 188 179 206 195 154 205 201
254 256 260 237 249 242 220 238 139 130 198 142 135 168 270 133 236 153 268 146 149 226 156 140 130 121 125 130 134 117 118 133 128 133 116 139 124 127 137 132 156 208 128 176 212 209 191 199 195
248 253 243 249 249 160 243 244 236 234 231 224 251 252 136 164 154 116 182 154 139 131 141 120 143 135 125 125 122 104 124 124 122 129 118 118 123 213 207 182 199 188 197 195 200 113 195 196 191
240 254 249 250 233 231 232 236 130 219 237 233 257 140 149 123 142 152 220 125 135 134 134 117 119 126 121 119 120 121 122 118 120 118 120 189 168 184 211 206 212 199 196 190 204 195 188 197 197
238 242 239 237 233 218 188 245 209 191 226 143 140 162 165 126 134 141 171 189 135 194 123 122 117 118 123 125 119 121 123 120 118 122 204 152 184 190 195 199 202 198 198 209 195 193 196 199 199
239 237 235 227 228 236 242 251 249 242 231 226 224 220 132 160 138 137 123 150 144 129 124 123 144 116 117 118 125 120 125 126 126 188 203 190 204 210 214 207 211 204 206 201 202 194 193 193 215
236 235 233 227 228 233 228 239 236 239 234 156 220 218 135 124 153 153 136 237 121 151 144 124 121 120 117 131 123 127 136 206 212 199 209 204 212 213 192 199 195 191 191 195 196 209 225 200 190
237 234 242 236 227 223 129 236 231 233 227 157 214 151 171 132 124 121 120 190 143 120 125 113 117 122 123 156 150 226 127 207 211 203 210 201 204 194 191 190 195 220 208 215 198 194 222 216 202
234 228 228 232 229 138 125 122 224 231 205 164 142 132 123 118 189 118 155 203 202 183 173 125 118 119 159 130 181 187 200 176 207 206 195 200 214 239 213 216 198 200 200 203 225 210 211 205 192
217 227 228 225 234 121 201 183 120 130 132 158 115 205 225 116 131 117 127 146 225 211 127 130 125 192 204 204 204 174 212 211 199 209 204 209 196 194 200 199 207 215 207 210 207 194 199 207 203
233 201 227 225 229 204 220 222 221 221 217 125 129 127 124 214 198 188 126 125 153 228 211 220 212 202 196 210 216 208 201 199 207 208 205 205 206 213 205 209 213 211 196 202 205 204 192 209 210
242 226 215 227 218 215 216 220 223 226 221 222 129 162 226 224 223 226 222 219 219 218 219 224 217 221 216 206 210 212 212 214 218 216 221 201 199 215 209 207 204 204 201 197 194 201 210 213 209
259 239 224 221 222 209 212 218 215 218 235 221 216 216 215 213 216 218 216 215 221 219 220 215 218 216 211 210 209 211 213 200 208 195 218 212 204 207 204 202 196 194 193 195 203 209 206 201 202
243 242 237 219 227 222 215 212 212 227 223 216 213 212 221 221 215 215 215 217 218 217 214 214 213 222 215 214 207 201 202 200 225 214 208 203 209 196 198 198 195 196 202 211 208 207 202 192 195
220 237 236 230 218 230 214 214 218 225 230 220 208 224 215 210 214 215 216 220 222 220 210 211 203 199 196 204 203 213 220 206 204 200 196 201 195 195 190 192 197 211 204 202 196 189 192 202 207
213 231 242 233 228 227 218 218 226 207 212 210 212 211 213 214 212 210 212 211 209 204 200 200 203 178 202 204 204 208 202 194 194 197 196 195 192 188 193 201 205 194 195 194 189 189 198 214 215
220 221 233 236 236 230 217 208 206 215 211 212 213 213 210 205 208 210 231 203 205 205 185 200 200 197 223 213 202 201 196 193 196 191 196 191 189 194 211 188 195 193 194 188 194 203 215 217 215
268 223 216 240 218 213 214 218 216 210 212 215 212 211 209 204 204 203 203 202 203 203 203 212 207 221 213 204 198 198 193 209 194 190 188 191 201 208 191 191 194 193 193 194 207 208 217 221 238

GFSSGP_2pvu_pres_051.txt.gz
Presure
258 87 128 292 120 156 140 132 320 133 112 134 118 121 133 142 133 151 133 121 123 120 105 123 137 100 140 134 127 133 104 93 100 95 134 128 115 144 133 124 141 132 104 132 114 140 123 122 120
94 136 235 217 200 106 209 222 229 266 206 144 103 141 121 132 133 155 137 125 145 113 101 124 115 126 140 129 126 133 109 117 138 137 139 96 125 119 139 138 132 127 130 145 131 123 114 129 118
361 293 246 94 254 109 241 197 346 245 220 159 136 152 126 127 123 136 142 161 122 140 125 138 121 123 120 132 134 130 143 130 131 120 96 87 111 138 129 151 145 140 155 114 110 116 116 116 104
329 272 305 343 100 108 297 305 103 122 196 144 155 234 152 127 123 131 134 144 145 135 147 126 110 124 131 124 131 150 140 129 120 121 140 115 129 125 92 133 112 136 121 134 115 127 113 106 112
292 261 360 263 155 144 294 288 328 311 265 267 140 130 142 129 133 121 135 140 139 134 153 134 139 134 127 143 133 113 100 145 148 127 143 128 110 144 110 117 114 122 127 109 105 117 117 112 112
266 255 325 307 296 292 286 239 310 301 270 126 263 205 186 135 127 135 136 142 129 130 123 141 129 123 119 142 133 142 130 142 141 130 135 135 136 128 117 138 122 111 114 113 122 120 116 116 116
143 316 300 276 284 282 302 297 312 261 311 256 119 250 125 139 142 133 140 121 114 142 138 122 115 116 132 143 128 105 134 109 111 131 122 138 110 109 109 117 116 118 124 116 140 116 115 120 117
339 294 283 260 284 283 286 289 104 297 263 259 237 245 134 152 161 128 101 146 137 85 126 74 167 132 103 141 145 145 126 134 137 127 132 124 118 143 98 104 108 107 116 140 136 121 117 116 120
331 96 277 263 124 273 181 266 279 278 255 262 275 241 252 243 267 142 113 126 142 137 126 140 112 164 155 156 109 142 142 114 120 132 121 128 124 138 118 128 120 112 110 137 115 122 120 123 120
324 287 277 220 256 270 128 201 292 280 279 237 228 229 203 231 180 209 237 112 154 129 134 150 154 146 146 128 141 137 150 134 126 123 121 115 120 122 130 120 112 128 119 121 121 116 140 143 124
317 129 270 258 263 114 279 170 116 278 264 176 223 231 223 144 220 150 172 141 225 144 130 126 161 134 121 139 131 117 135 137 134 121 119 117 137 115 124 120 127 136 119 137 120 120 118 137 135
290 270 262 269 275 291 273 119 129 112 237 218 227 179 154 262 242 252 245 135 143 134 125 143 134 150 135 140 152 105 132 127 126 127 128 123 111 118 125 120 130 127 137 129 123 125 138 203 182
290 254 268 258 276 260 261 256 177 165 116 243 238 177 230 232 186 238 203 254 189 143 146 149 207 141 187 153 121 108 130 123 125 130 124 109 122 130 119 136 123 117 116 131 121 125 172 199 205
260 258 256 261 241 243 251 257 168 127 125 127 134 228 128 211 126 161 149 133 212 148 145 168 141 151 140 122 144 147 130 123 137 136 120 114 121 121 121 119 119 129 129 139 160 145 176 195 205
255 253 263 251 252 237 240 254 250 241 226 245 137 174 239 228 226 134 242 160 137 138 141 219 152 119 150 142 225 122 123 126 150 124 121 122 124 126 122 119 125 126 140 154 194 196 199 202 199
252 251 256 252 254 232 238 245 224 235 240 251 119 123 161 165 138 230 133 155 255 234 146 136 136 125 137 128 119 114 122 117 122 122 123 122 122 122 130 124 125 133 148 190 207 192 205 205 209
253 243 231 235 237 238 242 246 238 228 231 239 193 255 240 235 137 125 230 141 213 187 230 245 181 126 133 139 128 120 116 113 115 117 117 123 127 128 138 129 134 188 165 197 200 209 207 198 192
246 239 233 222 225 229 230 250 262 244 228 175 244 232 228 201 227 153 136 236 141 126 149 138 119 138 139 144 123 124 122 120 123 122 127 128 131 127 137 130 165 201 202 210 207 209 197 197 199
243 236 237 238 227 224 229 231 259 251 135 226 137 171 228 223 124 205 134 124 122 125 224 204 128 127 147 133 130 126 117 125 123 118 215 124 209 136 129 205 209 211 200 206 195 206 239 224 215
253 226 230 241 234 227 227 228 240 240 236 228 223 218 219 213 164 220 169 133 210 204 137 136 159 134 127 123 117 205 118 123 120 136 188 132 190 147 210 208 204 209 211 202 207 195 196 211 226
252 198 225 229 233 226 227 231 233 233 234 238 238 213 217 206 216 198 131 131 133 132 169 119 136 131 174 205 129 133 127 127 142 166 221 208 198 200 207 199 195 203 202 208 209 203 229 200 212
258 243 229 226 225 228 238 200 217 222 225 123 234 243 220 209 209 135 191 141 130 137 126 211 134 218 215 216 211 216 128 197 206 204 201 204 205 205 207 203 204 204 201 227 212 205 208 200 203
238 254 237 224 224 231 237 223 146 140 116 213 219 223 112 223 123 215 119 139 181 118 119 131 119 126 133 212 214 221 218 219 206 202 215 205 208 214 213 245 217 195 200 204 205 202 204 197 202
214 235 242 223 227 220 221 221 215 222 192 147 125 218 143 218 217 120 124 122 120 120 129 218 217 216 217 220 223 220 219 225 220 205 207 211 220 211 198 206 204 204 207 205 206 194 201 199 205
258 222 235 231 216 219 215 217 217 216 216 219 219 221 220 218 125 215 166 187 217 214 212 209 213 215 213 212 209 214 216 216 209 214 217 213 202 219 223 204 205 203 205 198 203 196 203 207 206
301 243 227 246 237 217 221 215 213 216 217 226 227 221 219 218 218 215 213 216 214 214 213 215 217 215 215 213 214 214 213 205 195 194 204 212 224 212 198 205 207 199 202 197 193 195 213 203 196
234 250 221 219 243 230 226 232 213 215 211 216 227 217 217 215 220 220 218 215 213 214 216 219 222 222 217 203 200 196 196 197 203 205 206 210 206 201 195 199 195 195 186 192 201 209 203 194 193
220 279 230 225 239 225 222 227 224 212 215 221 223 227 227 226 216 213 216 216 218 215 214 213 208 204 201 202 204 200 201 211 214 208 213 201 199 197 195 200 200 189 194 205 209 202 194 196 196
213 227 254 214 230 229 225 227 224 126 208 199 210 213 212 211 211 213 215 213 213 213 209 204 203 202 201 203 198 198 214 210 210 209 193 200 195 195 199 197 194 196 206 207 202 200 200 190 202
223 239 237 248 213 216 231 235 224 221 210 204 209 209 207 210 210 216 214 208 206 206 206 203 203 203 197 199 209 214 205 196 205 193 193 195 195 195 193 196 204 204 195 198 195 198 191 203 211

GFSSGP_2pvu_pres_054.txt.gz
Presure
128 98 231 100 87 296 212 291 109 133 130 133 106 235 100 81 81 129 122 110 127 139 118 126 121 100 111 98 111 136 135 139 123 124 120 101 107 122 115 141 101 106 129 115 101 135 141 133 131
233 236 216 155 193 179 270 283 119 215 119 371 137 127 182 178 113 115 135 128 128 151 136 136 120 128 128 117 113 138 108 116 142 100 142 143 95 121 83 108 100 137 121 139 144 127 104 110 119
192 245 250 407 100 267 200 323 303 143 162 361 310 216 167 130 128 132 120 116 124 126 140 139 119 113 122 105 130 112 117 137 130 132 130 127 137 128 139 99 112 138 142 120 108 133 143 136 109
220 233 276 383 265 224 331 317 110 306 208 343 344 299 291 152 131 132 121 131 107 142 126 143 132 117 106 90 108 116 118 111 123 129 139 136 134 143 141 138 136 121 135 122 131 102 102 132 122
230 250 163 357 356 339 319 305 297 103 184 334 103 302 254 279 135 137 129 119 133 134 122 111 136 123 118 148 126 116 135 122 126 116 90 139 131 119 154 122 128 104 111 100 123 113 126 110 100
228 269 350 330 313 313 303 199 286 288 244 326 326 241 274 271 190 152 128 136 137 116 125 134 148 134 140 133 147 105 124 121 135 142 124 130 132 142 124 144 134 123 125 119 116 115 115 116 120
91 125 346 121 247 289 279 280 279 283 318 313 309 249 261 230 265 261 174 134 133 146 125 144 130 143 105 132 107 142 129 132 128 135 136 136 119 112 124 132 128 126 124 109 99 116 109 109 111
230 268 91 105 286 263 284 287 299 311 294 308 317 242 248 239 241 250 129 241 106 131 136 116 140 115 132 140 140 162 142 116 102 87 124 137 127 142 141 131 118 117 122 141 110 110 110 112 112
268 264 322 282 283 101 268 279 286 294 277 283 290 233 235 238 239 133 120 171 148 135 120 134 102 105 129 129 120 132 111 138 128 140 148 120 134 138 123 124 118 120 130 124 126 118 129 118 131
295 131 285 289 266 181 258 273 279 285 178 278 270 272 251 230 184 241 233 134 233 171 148 142 137 138 124 129 139 129 148 135 133 113 140 138 119 119 132 120 106 125 118 122 132 115 148 113 117
328 301 294 266 266 257 266 268 276 274 126 265 266 237 224 242 223 193 129 141 115 142 217 145 121 127 140 143 142 141 138 144 147 144 148 131 120 142 118 118 130 117 116 111 118 105 120 127 113
321 274 262 266 263 273 266 269 257 247 128 249 246 243 238 253 226 248 242 235 243 132 246 140 125 133 141 126 215 123 145 149 129 142 111 133 166 118 122 127 147 119 111 116 138 121 127 113 131
279 267 265 284 273 276 282 280 105 247 246 118 234 225 148 245 249 117 249 204 256 244 236 252 181 126 141 138 117 141 137 138 122 128 108 114 121 125 122 125 127 120 120 118 123 122 119 127 121
267 267 267 262 265 266 255 246 259 257 140 237 110 199 151 205 248 248 233 134 202 235 126 232 247 244 135 154 138 145 166 182 174 124 140 116 143 120 126 130 121 119 116 117 122 128 130 124 134
262 268 273 251 249 240 244 267 262 267 263 126 127 120 232 240 216 244 248 234 231 231 239 257 237 220 140 222 153 130 136 150 141 211 129 147 118 127 120 123 118 119 123 143 127 127 134 138 172
240 253 265 247 241 243 231 236 244 242 244 248 213 120 118 216 152 235 237 240 239 178 233 211 271 169 226 162 137 147 157 215 206 131 146 115 123 121 116 118 122 116 127 142 180 132 168 143 209
266 253 246 240 241 240 223 230 236 237 239 235 252 253 235 169 253 238 133 183 124 175 134 170 235 148 188 217 216 149 180 183 138 129 131 119 123 125 125 118 124 123 130 136 121 206 206 183 200
274 254 247 235 236 227 237 231 236 227 231 241 234 218 236 148 125 229 226 235 209 234 235 164 215 210 235 185 154 198 159 124 149 189 205 125 120 123 113 114 121 133 125 189 210 206 205 202 204
252 220 236 242 240 222 228 236 247 245 231 236 231 249 221 234 230 219 164 149 137 135 142 143 229 226 124 145 146 124 129 135 137 114 122 130 130 133 126 120 131 128 203 205 205 204 209 196 207
222 243 238 239 248 239 226 229 248 243 231 229 227 238 229 193 216 218 222 221 124 218 202 161 182 122 118 118 145 124 126 129 131 129 121 152 165 152 154 132 149 197 206 209 212 196 211 213 206
222 271 221 244 237 229 227 226 230 238 241 233 132 151 226 147 138 222 215 216 216 127 212 132 132 136 128 125 126 121 114 166 127 190 190 179 192 193 164 195 196 208 203 202 208 211 210 214 223
206 271 230 247 233 230 228 234 234 230 235 240 138 234 224 216 198 224 221 124 209 171 202 125 125 182 146 140 160 121 119 122 140 131 208 210 207 206 204 207 203 200 210 208 219 221 204 222 210
218 227 239 219 238 226 228 243 233 225 223 223 227 229 241 219 212 121 119 207 200 167 178 203 119 132 119 123 214 141 135 216 143 195 218 219 211 211 209 207 218 213 211 214 204 225 221 208 205
213 218 250 217 227 232 226 227 223 226 231 221 140 151 118 209 227 144 224 210 204 208 122 161 166 146 182 127 161 137 224 226 223 226 222 216 215 217 220 215 217 221 204 212 212 209 209 205 207
213 216 268 225 222 237 227 218 216 218 218 219 218 163 145 133 219 220 223 188 127 164 188 123 126 127 132 213 213 215 216 213 216 218 220 216 216 216 215 212 203 212 217 204 205 201 196 204 204
176 209 241 245 214 221 236 229 218 216 220 217 210 212 217 213 216 215 215 216 215 214 135 214 213 213 211 214 215 214 216 222 219 218 215 205 204 217 204 207 221 224 203 200 201 196 202 200 201
204 206 221 259 225 224 248 232 229 220 217 214 210 213 229 232 219 219 213 214 215 215 214 215 215 213 207 214 222 222 216 210 204 204 227 204 202 203 205 215 225 202 204 207 204 201 196 197 203
189 177 216 222 245 232 222 245 226 231 222 216 216 217 225 235 222 219 213 219 222 218 216 216 217 218 215 213 210 205 202 203 202 204 203 198 202 211 216 210 204 201 203 205 206 199 196 197 197
203 179 183 214 270 240 223 221 233 231 229 218 212 218 212 211 219 221 221 220 213 213 214 210 208 206 209 207 224 206 205 205 196 196 202 220 202 205 211 197 199 199 200 199 201 194 195 198 204
183 200 213 196 227 255 237 234 221 236 228 213 221 218 216 215 219 213 213 214 212 214 210 202 203 206 205 205 206 206 205 203 203 218 195 204 217 215 205 201 198 197 195 199 195 192 199 205 207

GFSSGP_2pvu_pres_057.txt.gz
Presure
238 234 132 240 238 221 245 148 302 138 237 307 111 139 147 157 244 146 128 135 108 123 118 131 112 117 127 115 128 118 111 131 122 125 123 125 128 125 97 133 100 102 135 141 123 117 106 125 137
92 160 202 226 148 173 174 278 97 277 242 212 347 268 116 288 252 106 213 124 119 131 118 138 106 117 139 136 101 115 121 135 131 96 142 110 129 142 146 136 131 90 121 135 127 108 112 139 147
160 211 223 232 235 259 310 356 209 366 294 329 256 195 295 305 295 135 203 110 117 126 126 125 127 120 121 131 131 122 114 126 139 138 133 127 135 139 128 137 141 122 143 145 105 127 126 132 112
123 223 117 227 244 297 319 354 350 348 325 318 336 289 279 324 275 122 132 137 104 97 105 129 123 123 130 133 139 135 124 106 130 109 114 107 123 133 134 142 94 121 139 114 124 160 123 150 120
224 213 218 160 254 345 265 349 349 282 309 315 333 181 106 143 319 281 276 237 208 131 138 106 115 122 120 130 142 125 129 116 133 120 113 131 116 139 124 141 141 126 123 143 135 122 107 104 140
162 211 221 209 357 216 317 326 319 306 246 313 319 169 101 302 220 273 269 227 123 204 117 107 135 125 123 101 86 135 126 120 120 127 126 117 112 127 138 112 122 136 141 122 132 130 119 116 124
210 201 226 277 348 313 300 145 290 289 259 167 315 332 97 278 289 162 145 262 231 135 124 136 136 137 115 113 124 137 139 148 140 125 134 147 141 138 139 122 137 129 127 123 123 134 124 128 109
212 117 216 330 321 99 93 93 266 290 293 178 239 317 322 342 262 231 269 239 203 181 129 134 142 171 125 140 134 136 86 130 142 152 142 96 149 147 138 133 124 113 119 116 149 134 121 119 110
99 229 239 337 88 279 276 265 275 288 305 266 282 310 285 270 219 243 251 252 158 197 181 203 112 127 141 147 136 128 142 135 129 135 131 125 84 87 136 135 145 145 134 132 131 126 111 114 128
210 212 257 284 276 264 270 266 262 274 140 267 272 311 278 211 237 237 239 167 231 233 154 166 140 144 131 143 124 122 127 131 134 125 150 129 136 149 119 149 131 137 153 135 124 126 119 125 109
223 196 281 275 267 263 261 264 259 290 286 104 277 293 267 232 220 234 253 260 229 212 216 217 191 209 174 140 122 142 111 118 118 119 131 142 141 127 135 142 148 157 119 123 149 123 192 120 123
211 203 274 271 272 268 263 270 121 275 203 104 279 277 242 222 227 243 232 223 262 259 219 122 128 172 203 121 176 204 118 137 134 139 136 120 134 138 117 145 110 132 141 133 146 127 125 142 123
214 233 272 271 291 278 283 284 274 267 286 284 263 209 247 219 230 224 245 240 237 181 236 230 217 178 108 149 153 141 127 124 130 118 117 135 138 150 128 129 107 130 151 150 121 125 123 139 119
195 213 246 267 251 238 260 248 267 270 282 257 252 151 241 233 230 225 229 241 254 243 236 219 151 187 211 203 213 126 169 196 157 127 124 139 142 134 117 132 124 109 188 110 138 120 135 128 122
189 208 278 238 227 252 242 223 264 249 251 254 241 205 124 145 242 226 228 231 214 244 124 122 248 229 218 215 143 214 122 127 146 129 117 139 149 137 133 208 132 126 118 117 116 111 124 122 115
186 199 257 231 218 231 239 222 202 266 251 253 233 226 172 209 245 166 209 239 237 263 211 232 238 228 222 213 213 209 218 219 210 129 128 129 134 137 149 125 175 149 189 126 121 107 112 111 118
175 193 270 244 241 237 228 224 223 222 229 244 250 214 187 125 120 224 199 222 221 181 240 187 224 221 135 134 158 213 213 215 194 208 208 127 134 147 139 206 149 139 127 118 113 122 118 123 127
182 198 257 235 245 228 224 227 225 220 219 236 252 235 243 235 118 133 113 239 234 232 237 252 230 226 131 217 257 212 128 188 159 202 205 208 206 132 165 121 179 180 157 130 129 123 188 159 128
186 200 233 238 230 239 229 217 236 222 226 223 222 237 235 249 226 185 184 229 237 124 204 249 232 224 233 143 140 202 212 205 210 208 203 204 210 194 132 136 123 116 138 139 139 141 181 215 204
180 194 215 255 240 255 229 233 229 242 242 228 223 228 227 236 220 152 235 133 208 226 232 235 237 217 207 166 229 189 229 228 209 140 142 134 120 112 116 115 136 189 181 196 189 208 201 202 196
176 201 204 259 225 246 242 229 228 235 230 231 224 231 230 219 222 230 215 172 186 221 216 219 182 193 142 173 155 213 213 170 127 127 175 115 117 120 135 203 130 133 219 196 199 195 201 201 204
194 183 215 258 233 222 236 231 231 235 232 229 230 235 226 214 222 211 212 212 206 214 213 214 198 126 195 212 138 178 140 133 138 119 130 137 166 199 136 189 135 200 194 207 212 208 206 214 229
200 178 196 226 238 217 240 233 235 240 235 232 233 239 213 211 138 216 220 211 218 208 220 217 113 205 213 211 221 154 118 120 130 122 123 204 128 189 216 224 222 203 204 216 223 225 224 220 216
166 192 199 217 252 221 241 226 245 237 227 225 225 224 228 232 221 212 191 126 179 181 169 210 125 152 209 204 200 211 136 126 122 171 189 172 219 213 212 226 224 222 219 220 241 226 215 203 208
170 186 197 203 231 238 217 227 226 228 224 223 227 219 218 175 167 219 224 215 162 214 126 213 206 209 216 223 219 137 217 230 153 131 220 223 220 217 219 222 216 212 215 215 223 202 213 218 224
201 181 178 201 205 238 232 205 232 224 221 222 221 221 216 213 215 219 219 222 162 226 231 229 230 135 133 224 222 143 195 217 215 217 220 225 224 229 217 217 221 226 205 204 204 215 218 219 203
170 176 194 202 197 220 247 225 231 232 223 221 219 219 214 215 221 221 215 218 216 215 215 213 214 213 214 213 214 211 210 203 215 221 232 224 213 210 204 207 219 205 205 195 199 204 222 212 206
195 185 199 203 207 187 283 245 217 237 239 223 227 217 218 212 215 225 225 217 217 214 214 212 213 216 217 216 215 217 222 228 215 211 204 205 212 209 211 208 206 217 221 214 224 224 203 202 204
184 204 193 200 201 209 227 253 250 220 228 223 227 230 221 221 220 223 232 222 217 213 211 217 218 212 213 215 208 221 203 205 205 206 206 202 205 206 205 211 209 206 210 215 205 199 198 199 193
189 191 171 177 212 196 238 233 279 256 223 218 225 230 234 221 222 223 214 220 219 215 212 212 211 212 213 212 206 204 207 203 199 202 206 210 207 206 201 202 223 222 209 208 222 200 195 192 193

GFSSGP_2pvu_pres_060.txt.gz
Presure
143 231 223 156 238 240 245 119 248 242 308 90 345 351 337 109 120 220 156 118 71 81 146 137 139 133 133 130 130 103 138 120 95 121 113 97 125 127 124 124 124 120 112 118 117 90 103 102 149
221 170 124 199 233 112 259 186 162 362 149 261 275 95 275 108 250 328 331 162 78 92 112 119 89 100 118 125 122 136 105 125 78 129 129 130 113 126 130 129 116 114 127 125 111 142 140 132 120
200 199 243 227 204 238 249 243 241 363 355 357 340 188 252 230 224 315 280 206 152 98 102 120 114 110 120 123 104 124 131 125 137 102 124 115 118 121 114 118 136 123 143 114 140 140 136 111 147
127 134 230 94 242 124 253 258 372 171 363 337 359 314 239 114 105 230 111 189 195 130 122 139 161 119 124 106 114 124 123 134 117 137 121 124 133 122 133 142 110 120 137 142 134 118 95 129 129
228 222 207 234 237 241 265 372 348 375 330 292 305 316 229 93 138 236 245 185 122 189 202 104 229 181 129 129 128 128 130 132 129 121 141 135 138 128 109 119 117 119 141 130 107 120 140 135 137
233 226 187 225 235 246 344 333 341 350 106 256 246 235 214 211 207 215 200 274 183 107 200 196 185 189 106 132 126 132 128 141 141 136 138 141 144 131 134 121 120 106 129 121 125 134 131 137 128
110 220 224 224 229 144 314 262 325 263 241 226 124 204 231 223 225 185 253 334 127 197 160 162 135 176 137 187 124 123 124 139 128 129 137 134 146 148 141 129 133 141 137 143 148 126 145 118 136
209 211 216 231 241 300 304 318 278 252 88 97 244 206 188 204 227 79 116 93 146 193 149 103 183 182 183 183 132 142 136 137 133 143 133 142 149 146 153 153 144 143 133 143 158 132 130 127 137
216 207 210 223 290 297 288 187 261 253 149 200 223 259 203 191 189 201 197 148 108 234 209 172 172 151 184 206 136 109 199 144 143 142 133 145 142 139 146 136 141 141 140 140 140 146 147 148 127
204 210 215 223 289 297 146 273 272 289 271 221 199 271 180 193 224 180 262 210 278 253 202 180 190 175 186 163 159 199 135 126 126 137 121 122 136 128 128 122 113 115 130 138 113 150 146 135 147
208 206 219 220 301 330 299 278 278 218 232 237 114 232 252 219 264 215 270 253 257 226 194 205 104 176 180 187 158 138 143 128 133 124 119 139 128 132 134 132 143 134 157 157 138 162 137 132 128
201 203 205 214 267 283 285 325 291 203 203 232 201 214 217 239 321 256 293 240 257 216 199 195 188 180 182 193 156 173 182 188 149 105 145 131 139 125 120 118 120 128 118 136 122 144 144 115 111
204 198 193 211 267 268 260 243 223 226 235 217 304 235 215 218 280 272 256 218 271 238 209 201 186 203 184 182 193 179 166 182 153 120 117 129 123 130 114 183 127 131 143 130 154 137 128 118 117
201 201 206 212 267 264 262 234 228 226 224 243 117 267 232 265 259 242 224 241 243 235 208 197 191 193 193 191 187 180 187 188 179 167 189 139 147 138 120 114 121 137 125 141 136 128 129 125 179
201 199 204 219 282 260 267 241 214 213 205 208 309 269 256 259 257 239 243 220 262 282 233 194 192 191 184 185 186 191 118 203 126 149 122 132 124 133 145 142 142 126 136 130 175 133 128 141 137
201 196 197 204 253 271 229 237 228 222 196 205 264 264 242 248 123 164 231 242 273 126 216 231 221 203 199 198 203 191 196 186 203 140 200 184 139 200 125 186 125 138 138 160 143 139 200 140 179
178 198 190 218 250 267 242 225 219 220 236 207 267 243 192 228 232 124 207 174 204 231 247 233 215 212 197 208 186 187 121 135 194 194 198 171 172 164 204 125 131 197 196 135 133 174 168 127 179
190 201 193 195 233 244 247 250 224 199 240 224 242 244 232 216 209 247 230 246 238 237 230 235 248 256 240 218 211 202 204 196 200 145 152 147 195 196 199 179 197 200 123 194 199 207 202 192 116
191 202 190 186 198 249 237 235 239 234 218 220 228 240 256 221 226 232 234 124 248 169 120 217 127 224 237 214 202 210 206 205 209 213 197 203 205 198 123 112 143 206 193 173 202 138 118 132 138
199 199 196 191 198 265 229 238 239 245 206 223 231 223 216 239 257 214 132 230 139 215 221 231 244 158 231 223 204 234 228 223 216 211 215 143 201 178 134 199 127 150 141 174 135 134 133 138 155
194 182 186 195 189 247 244 243 235 237 235 237 229 215 212 218 243 221 232 186 236 184 223 234 233 243 251 237 223 213 214 219 209 194 210 154 125 201 202 133 127 124 162 123 155 128 207 170 205
179 203 185 187 194 195 257 225 226 234 237 234 234 221 216 218 209 223 230 221 200 213 214 135 171 222 229 232 241 228 227 225 217 144 132 209 136 120 118 127 141 218 194 133 135 131 200 201 202
190 197 187 187 190 201 254 232 236 225 240 238 235 228 229 229 212 210 215 207 216 215 217 220 165 216 215 217 213 214 157 207 131 127 130 208 206 122 123 132 198 128 201 195 203 199 200 202 224
195 188 177 191 178 193 212 252 222 234 226 239 233 235 232 217 214 213 215 223 211 214 222 213 212 178 210 215 209 209 210 188 209 214 213 215 186 217 186 127 179 205 156 212 212 229 224 214 230
186 188 184 191 192 188 197 224 243 225 237 227 233 229 227 240 220 110 218 216 213 207 173 126 123 210 209 212 217 205 204 175 190 206 208 133 206 158 177 202 205 216 218 221 223 221 225 214 206
192 195 191 191 174 202 198 198 240 235 240 225 223 232 230 224 214 213 211 217 216 215 222 119 203 222 211 204 203 137 201 212 220 226 225 231 214 144 218 224 219 222 228 228 221 205 201 206 212
184 195 191 177 174 180 185 197 292 244 232 236 229 218 222 220 223 218 213 218 218 216 216 223 227 227 230 232 232 227 224 219 221 214 219 207 195 194 212 216 233 211 205 203 205 210 207 209 203
181 180 194 191 171 175 184 205 202 273 245 229 243 227 221 221 220 219 221 220 221 225 218 219 221 216 215 217 215 215 212 222 205 214 223 225 222 223 210 210 210 210 212 212 210 206 210 212 211
192 178 190 197 190 190 182 202 214 239 251 253 227 230 218 222 226 220 216 223 223 233 231 225 220 218 214 214 227 215 213 205 222 192 189 197 207 207 198 204 209 211 207 202 206 210 207 221 216
178 181 183 187 196 169 176 191 171 198 222 252 263 226 237 223 224 226 226 214 219 218 213 222 219 219 215 213 206 215 202 218 187 197 203 206 201 197 205 206 204 195 203 205 203 207 210 216 205

GFSSGP_2pvu_pres_063.txt.gz
Presure
104 143 192 125 217 214 147 221 82 198 251 264 141 256 281 367 303 312 275 350 105 105 114 126 84 126 146 123 147 140 125 128 106 127 113 124 131 135 87 101 95 119 122 126 109 126 118 101 116
228 108 130 219 188 248 238 246 142 258 270 228 175 371 358 299 234 256 293 157 194 162 99 93 205 110 158 129 136 155 152 122 131 131 118 113 135 134 116 112 122 125 123 120 125 127 132 124 130
168 217 229 232 247 171 140 252 253 265 275 341 371 342 347 302 204 224 233 207 250 236 201 98 104 94 117 136 167 116 115 142 140 116 128 140 109 112 138 145 137 99 127 129 127 127 128 123 107
162 165 239 155 236 124 238 98 264 329 229 153 357 360 317 248 235 229 241 226 246 193 211 129 78 133 111 105 130 132 106 120 143 114 121 111 138 139 123 121 129 108 117 118 139 142 142 141 130
199 219 237 240 226 86 231 249 334 358 301 142 173 300 253 232 250 188 215 207 239 210 196 96 205 193 133 180 147 203 148 227 140 124 126 123 134 133 133 134 136 119 140 129 112 121 94 130 116
230 226 137 190 219 228 232 328 302 285 273 260 266 267 243 227 213 221 207 193 147 215 143 191 136 187 179 170 100 126 115 126 157 195 135 135 139 126 110 140 131 140 107 149 133 121 108 122 110
220 218 166 220 180 226 273 332 278 240 243 230 230 250 254 228 220 232 220 203 215 212 179 185 89 176 133 163 137 134 138 184 129 165 156 142 132 146 143 149 142 120 150 151 144 143 129 139 119
215 215 162 213 214 222 294 320 261 249 248 233 238 226 237 221 214 204 205 235 207 205 189 172 184 141 125 179 183 170 142 128 214 120 135 125 141 135 131 129 144 148 139 147 149 160 160 151 152
196 219 206 174 214 231 321 301 139 247 241 237 215 195 221 205 105 211 197 218 196 226 186 177 166 170 161 162 133 194 196 215 174 159 132 175 145 126 131 127 136 151 128 127 135 130 127 135 129
213 215 199 210 214 238 310 316 326 243 232 236 226 216 210 215 195 235 202 200 210 199 201 173 176 188 170 125 179 161 165 161 177 209 204 208 130 147 137 130 143 126 141 129 137 150 120 127 100
215 202 192 201 211 285 307 234 214 234 249 219 218 206 199 210 201 232 220 221 211 218 234 171 194 176 184 182 141 172 190 191 205 196 211 179 88 143 135 127 128 126 136 132 132 138 127 129 129
215 201 196 195 208 225 242 211 207 212 228 253 210 233 210 201 229 253 210 185 196 175 233 198 171 168 127 176 176 179 91 184 192 211 201 203 143 137 133 108 120 147 112 133 156 126 129 128 147
212 219 209 210 213 261 261 224 211 227 222 203 220 203 224 203 217 229 192 186 213 206 208 315 222 190 183 174 177 186 190 184 191 196 204 180 186 177 170 147 127 140 127 115 117 127 144 115 132
193 216 199 205 201 270 283 256 218 215 219 225 227 208 223 292 223 237 227 212 217 177 254 183 251 201 192 191 184 183 189 179 177 187 181 171 171 166 151 186 142 117 127 138 134 166 132 128 166
214 202 208 195 199 195 256 273 228 236 233 212 239 223 232 262 259 258 290 306 256 211 229 275 226 217 193 192 187 181 181 184 187 185 185 195 171 132 128 187 191 193 126 133 134 133 144 138 135
206 205 198 204 200 193 260 241 243 238 211 232 199 209 214 263 270 249 265 280 256 304 216 239 231 211 200 187 191 196 184 180 180 192 181 182 191 184 190 191 182 200 144 130 126 193 181 143 130
192 197 200 194 189 198 236 226 226 228 212 210 215 202 207 255 235 246 248 260 171 219 216 221 221 195 185 200 188 180 193 184 182 186 183 191 147 166 161 156 176 190 193 195 137 131 195 184 132
207 206 205 197 203 212 194 260 231 230 241 207 207 206 233 280 223 237 243 244 123 165 175 153 143 158 191 189 183 185 188 184 174 189 188 182 173 149 175 194 195 193 154 195 198 203 142 198 200
215 195 195 189 192 190 193 266 266 241 213 212 223 229 222 259 218 234 188 237 214 126 195 125 232 165 205 187 192 184 193 188 193 184 186 181 186 189 195 202 188 195 196 192 191 201 203 203 142
220 189 199 202 189 186 190 216 265 253 253 237 235 218 224 234 268 232 226 234 229 238 125 195 125 120 184 194 191 181 181 182 189 190 143 192 195 198 186 192 195 199 198 111 144 193 194 158 125
204 178 199 185 198 188 187 199 249 241 257 228 219 214 228 223 229 245 262 239 232 237 186 123 216 248 233 208 203 193 167 196 200 201 185 188 201 205 196 192 137 162 176 212 167 120 125 138 132
200 212 198 196 197 178 188 194 204 262 244 235 252 243 243 223 219 240 232 231 234 231 207 247 253 253 239 245 244 246 258 238 237 239 198 194 193 220 227 230 225 206 207 219 227 183 204 133 128
188 216 196 196 197 195 188 204 204 254 226 234 251 240 224 226 218 220 207 224 223 231 226 223 233 237 237 239 241 247 246 248 249 242 221 135 212 119 127 133 205 215 205 131 132 147 206 198 140
207 215 194 197 188 189 198 205 196 209 239 239 233 245 229 216 211 220 215 213 235 228 225 215 216 215 217 215 218 162 222 223 220 221 225 225 220 227 219 208 127 170 205 205 204 205 209 208 195
200 219 206 189 198 195 195 182 198 214 241 234 243 232 223 226 210 239 218 213 214 216 217 212 218 212 219 216 198 176 212 210 207 209 209 213 208 208 208 204 207 206 207 205 217 205 215 229 221
214 219 210 197 188 189 194 184 181 197 215 271 236 243 223 218 236 245 237 214 209 213 216 213 128 208 222 221 216 212 203 206 212 220 219 202 198 189 195 192 214 218 217 217 224 213 208 211 206
205 190 213 193 188 198 194 198 186 176 197 241 272 244 241 221 217 232 226 230 230 225 218 232 228 209 134 228 218 223 223 211 204 205 233 242 226 244 262 228 212 231 232 218 222 210 204 203 202
193 205 223 194 186 183 195 185 198 203 191 196 225 259 251 262 226 223 222 219 227 218 217 221 221 224 230 234 227 222 219 215 219 220 201 218 181 190 204 214 219 211 193 206 203 201 218 212 203
177 201 182 203 187 198 199 190 200 181 194 164 211 225 242 258 256 241 234 225 224 227 222 226 242 217 228 227 207 224 196 209 216 218 195 201 203 193 192 199 193 195 202 200 197 197 208 212 206
219 196 204 210 192 181 192 192 186 184 193 196 181 216 230 241 271 245 239 237 236 224 219 236 190 204 206 187 228 196 198 214 214 187 156 168 190 212 211 193 192 195 194 195 203 213 209 204 204

GFSSGP_2pvu_pres_069.txt.gz
Presure
220 127 101 129 149 232 216 218 153 147 234 181 179 141 206 268 247 255 265 270 242 252 76 272 224 265 252 117 93 124 130 137 133 140 136 84 125 108 122 121 128 116 140 126 120 118 139 144 140
192 121 163 83 189 162 180 207 254 225 226 165 241 144 237 251 251 233 257 259 255 214 268 260 269 254 180 252 258 124 77 94 155 146 129 144 121 142 135 133 136 142 112 126 133 124 141 115 138
110 181 127 204 132 217 236 248 246 240 243 188 245 251 261 260 343 366 337 383 195 264 262 276 126 291 72 256 236 229 211 176 116 135 146 152 137 106 141 125 124 132 150 130 118 125 120 120 115
223 209 183 226 249 255 205 239 244 229 244 240 250 258 266 391 369 364 358 369 377 260 263 115 284 238 259 262 232 249 222 196 155 159 203 227 160 141 138 141 136 152 121 113 144 125 124 118 133
136 233 220 210 219 221 230 225 244 242 234 230 241 266 355 382 372 370 366 295 325 253 303 244 227 178 210 176 82 120 225 173 169 111 199 199 199 116 100 130 121 126 127 135 141 114 116 128 139
214 194 216 181 189 219 214 221 216 230 223 215 281 300 305 311 307 233 357 269 252 267 263 269 219 228 207 210 138 207 150 165 150 130 205 154 109 127 162 212 158 194 142 118 120 144 136 137 130
216 207 227 205 217 213 208 209 233 202 259 333 270 268 290 299 310 250 249 285 293 239 214 206 239 197 203 194 193 122 101 176 188 173 126 121 125 175 121 180 162 120 158 148 143 131 129 154 144
212 220 205 223 198 192 239 229 222 253 232 307 258 259 277 287 263 241 241 247 224 83 213 215 195 193 188 175 84 182 168 165 98 194 122 181 122 124 104 126 135 104 122 114 190 169 157 144 124
196 206 205 217 201 233 234 234 229 231 241 224 214 246 264 261 255 231 226 229 192 215 221 205 223 195 183 192 201 162 174 177 188 178 188 126 178 125 133 136 115 125 111 122 115 111 112 96 156
204 196 194 196 218 226 207 212 205 212 301 219 242 234 228 252 248 221 211 214 202 219 206 223 222 202 195 178 142 174 134 153 177 104 132 187 102 176 201 178 176 127 173 178 113 122 164 163 188
192 213 208 210 242 232 197 219 201 207 245 223 236 229 235 255 238 220 205 219 192 212 209 209 211 195 192 188 178 162 110 176 135 172 174 168 195 202 191 177 135 188 145 204 221 177 134 134 150
206 179 202 195 217 233 214 209 206 220 213 241 233 209 212 254 243 224 205 217 218 193 210 198 196 197 180 181 178 179 181 110 172 173 160 177 177 125 179 169 100 201 177 152 200 174 159 122 164
207 184 201 202 200 219 217 206 215 207 280 237 236 217 209 207 226 230 187 224 198 209 209 197 203 195 192 191 189 194 173 188 165 182 129 170 145 186 147 185 90 174 169 169 176 204 201 168 186
200 178 204 185 208 204 218 208 201 194 234 273 225 239 216 194 220 248 205 196 200 196 203 205 206 201 175 196 193 190 172 167 174 187 180 196 199 107 194 163 181 186 195 177 176 186 191 157 207
188 204 199 177 198 200 221 209 198 212 207 281 270 235 213 200 198 236 201 202 197 196 215 177 196 184 194 183 178 197 176 171 173 170 193 189 183 173 169 179 181 203 165 188 193 194 120 160 172
192 201 180 162 190 190 180 218 199 203 199 205 265 233 234 214 214 196 208 250 197 187 182 216 213 166 187 173 192 178 174 190 174 188 180 170 171 186 190 188 188 172 182 181 193 172 186 197 185
196 175 173 171 188 198 207 221 203 205 203 203 269 246 247 227 247 217 211 202 245 200 189 171 182 204 189 171 177 192 196 163 181 187 170 178 172 181 178 174 195 183 189 185 181 180 173 185 189
175 198 189 178 167 187 185 177 223 202 200 198 221 262 241 234 238 210 223 243 248 273 192 182 177 178 191 170 212 192 127 173 184 181 135 182 191 181 181 195 173 188 186 191 182 188 185 189 190
178 194 179 172 199 186 192 197 180 213 191 192 216 257 256 241 233 228 221 251 263 272 232 232 183 175 203 193 183 182 190 177 180 168 201 151 158 157 197 182 181 184 172 182 178 184 179 195 177
162 168 184 192 181 203 193 196 197 225 196 208 211 262 255 256 249 249 232 241 264 250 260 193 248 194 204 184 190 169 136 165 158 182 196 190 190 182 191 190 188 184 184 193 174 182 195 201 180
183 187 157 198 194 187 189 193 191 226 202 196 206 269 250 246 239 234 213 237 238 256 240 198 254 232 193 184 122 191 189 174 120 164 176 186 187 199 184 188 186 182 188 195 202 182 199 195 192
190 159 207 180 198 157 186 204 182 206 210 182 195 226 257 250 257 249 255 243 247 250 239 237 235 247 204 205 194 193 133 121 143 180 171 164 180 170 180 185 196 198 199 184 184 180 174 193 182
196 151 186 193 181 208 191 184 189 221 211 191 190 205 276 248 239 244 241 235 235 241 239 247 227 229 235 189 189 184 136 178 185 195 172 197 248 204 174 177 174 186 241 196 195 182 202 188 188
176 176 145 197 154 186 206 201 210 188 206 215 194 196 238 259 234 258 239 233 231 224 231 234 236 242 258 252 249 239 239 229 222 207 217 206 227 214 216 199 200 179 187 192 186 181 194 185 184
198 182 183 205 176 204 186 181 196 206 207 194 205 198 197 243 254 261 226 215 223 226 222 233 229 227 226 237 233 235 200 212 234 234 233 235 224 223 212 180 204 194 186 194 191 186 211 221 215
196 191 195 188 167 174 189 183 199 188 213 211 190 189 208 222 236 253 242 226 219 216 228 221 227 233 225 222 225 232 226 232 232 227 223 217 216 215 214 208 206 193 191 210 217 208 214 226 246
181 193 201 203 193 188 195 200 183 202 230 208 186 203 211 204 225 227 266 244 228 229 231 232 220 215 209 216 225 219 226 227 218 224 224 233 219 218 215 210 215 222 221 223 210 237 227 234 220
197 190 194 193 199 203 178 188 186 191 206 209 203 185 198 203 217 229 221 256 257 234 231 232 234 217 223 214 220 219 219 224 219 227 221 217 222 221 220 224 216 224 213 226 221 209 222 211 196
192 201 182 184 194 162 193 179 192 175 200 194 197 195 188 198 178 227 232 221 289 254 238 232 226 230 222 210 207 225 234 211 207 201 175 205 204 212 206 206 206 175 212 177 187 191 197 190 205
202 198 204 201 194 203 195 192 202 185 207 207 211 200 179 185 207 192 227 229 232 296 244 232 224 216 206 202 227 211 215 217 206 202 202 196 195 202 214 213 214 215 191 189 187 191 188 189 181

GFSSGP_2pvu_pres_072.txt.gz
Presure
139 109 157 170 132 136 121 210 107 118 173 135 146 136 141 153 108 240 262 168 271 252 279 277 267 75 274 227 219 108 170 87 95 130 119 80 125 106 139 102 140 146 117 112 125 118 131 124 119
184 117 108 127 91 141 182 133 189 120 135 257 255 202 160 255 259 261 242 259 262 264 145 223 215 132 271 71 214 162 223 96 207 157 207 131 106 132 140 126 135 125 132 111 135 125 124 141 127
139 242 154 143 228 159 152 229 231 231 168 233 244 225 177 148 259 249 258 261 226 270 268 267 203 243 147 250 122 256 234 251 228 138 91 124 117 208 91 137 118 137 135 138 131 137 120 124 133
123 126 229 181 236 230 228 238 118 228 230 231 232 248 251 260 274 316 309 390 296 358 405 383 215 226 214 237 200 80 113 239 225 240 131 207 102 229 116 118 119 143 137 147 132 115 112 109 130
154 203 158 236 227 173 222 232 227 223 223 133 205 246 320 132 291 296 332 362 353 367 255 147 260 231 257 269 229 259 208 183 205 222 217 213 168 143 204 102 190 148 149 130 153 146 136 138 133
179 175 159 216 187 197 226 233 242 228 229 223 245 257 292 286 264 317 322 360 366 355 370 97 239 163 214 236 227 227 79 159 210 211 195 204 158 109 204 158 154 95 209 193 143 105 126 116 122
196 205 224 217 142 216 208 222 212 238 215 264 227 255 239 258 256 282 281 298 270 256 290 238 222 234 204 209 234 237 214 198 213 170 212 133 152 179 98 175 120 112 115 199 130 137 137 160 167
216 225 212 212 212 202 205 199 155 235 229 236 227 252 264 253 284 251 237 250 249 228 251 250 231 226 210 224 203 220 215 190 210 128 199 205 128 174 90 185 147 136 203 176 166 116 199 204 211
231 189 209 201 204 219 211 207 241 231 229 234 268 247 256 241 240 248 240 258 241 247 256 254 237 203 210 205 204 198 193 202 166 188 197 194 157 189 205 197 150 100 99 121 136 98 198 122 119
197 208 202 207 196 201 202 218 232 224 216 229 265 256 223 241 239 252 233 251 249 249 234 226 227 220 215 206 206 185 197 194 189 183 124 174 179 183 134 191 185 175 123 115 121 108 123 117 123
184 214 212 198 210 188 188 202 236 224 219 220 294 266 253 222 227 245 231 229 226 226 217 212 219 223 218 202 194 200 180 190 175 176 190 189 171 175 117 129 175 187 184 200 220 144 171 199 202
200 204 198 192 211 187 199 207 189 226 199 210 222 249 249 218 223 242 198 210 211 212 228 218 223 210 215 193 198 184 183 108 174 195 187 187 174 189 193 196 177 193 188 97 155 190 212 200 176
202 202 201 190 211 201 187 203 217 223 217 210 201 226 261 248 207 222 193 205 209 212 202 216 216 206 201 193 190 204 191 177 182 186 185 172 164 189 182 204 192 181 190 186 186 95 136 167 194
200 207 194 184 209 200 197 165 206 222 202 195 216 207 282 250 202 196 228 184 210 204 181 188 185 213 192 192 197 176 193 185 173 187 184 182 170 202 195 144 182 193 188 193 190 180 172 180 183
199 194 198 191 206 186 213 184 194 228 225 211 219 199 253 254 261 211 213 224 181 185 182 182 203 221 187 205 198 193 185 208 175 167 183 198 182 192 185 184 167 166 195 127 179 183 187 169 195
196 194 197 195 198 190 176 195 179 192 217 227 216 205 200 273 252 240 234 222 197 181 187 172 195 196 200 204 185 184 188 193 173 180 172 183 152 190 193 167 173 178 185 191 198 195 202 198 173
182 193 191 189 172 210 174 192 185 193 205 237 217 210 217 273 264 256 228 224 224 195 184 192 177 181 207 181 204 180 179 178 167 169 193 178 170 183 183 191 178 161 193 184 171 188 177 188 185
195 203 203 200 171 177 179 206 187 196 197 215 222 212 209 243 277 259 234 233 204 228 184 202 184 168 191 189 178 169 182 179 187 123 193 200 181 195 206 159 164 186 200 197 180 176 172 205 195
193 180 192 201 195 174 149 190 188 190 189 213 223 202 199 268 263 265 266 258 235 226 250 185 184 189 196 177 187 174 179 192 157 156 179 204 165 153 182 172 189 195 168 188 177 174 192 175 201
191 187 187 202 183 177 178 172 205 189 190 202 225 207 196 198 262 250 241 248 251 225 274 214 200 199 196 180 178 173 183 203 171 178 181 192 179 195 178 167 179 174 178 177 180 194 173 186 191
187 185 192 195 164 173 168 209 194 175 181 197 224 214 204 195 262 249 245 257 231 227 262 260 257 208 195 189 182 178 184 174 167 190 180 177 153 121 181 169 188 180 175 177 171 169 189 186 188
194 194 191 196 193 198 189 147 216 207 186 202 203 211 209 201 202 244 258 248 243 219 269 254 245 246 232 187 188 201 187 165 131 135 126 161 160 188 190 192 159 167 187 168 182 182 185 177 187
182 195 189 184 186 158 194 169 210 204 194 193 193 217 202 195 200 249 264 243 237 237 241 256 252 241 238 248 201 180 182 191 190 175 132 124 187 126 195 187 188 171 182 182 171 174 195 185 190
198 186 191 174 156 159 144 152 181 207 187 190 198 227 214 200 193 263 272 256 242 231 229 238 244 247 240 236 223 190 233 228 204 197 152 127 161 181 178 186 181 177 171 180 178 137 209 200 224
189 191 200 187 175 187 175 195 211 194 187 187 194 209 217 202 185 203 256 261 225 231 234 226 230 240 241 242 230 249 227 242 189 192 190 179 181 179 178 181 179 183 185 182 211 208 208 202 202
195 195 194 181 188 183 176 200 155 183 201 183 210 199 225 200 196 198 228 236 257 223 211 232 215 227 226 232 238 225 239 237 242 197 189 184 183 182 185 183 180 182 188 221 230 222 227 232 213
197 199 187 185 191 163 188 196 196 167 169 185 193 192 209 217 198 190 216 231 225 252 235 228 221 222 221 225 226 224 224 225 226 228 228 227 224 230 227 234 231 234 227 229 234 223 230 241 244
186 191 192 186 177 187 187 187 183 171 190 201 193 185 206 220 209 186 194 209 231 225 264 241 235 232 228 214 231 217 223 225 228 228 229 216 217 219 227 231 227 227 222 216 228 226 224 235 217
195 195 183 185 190 178 193 173 188 190 177 183 194 196 209 212 203 208 183 216 207 227 227 272 238 230 228 237 216 214 225 222 231 229 222 229 234 230 215 225 219 222 225 228 226 241 239 234 228
195 193 195 193 192 192 190 186 186 172 188 200 185 197 192 209 204 216 190 199 216 212 219 228 272 237 231 230 228 223 212 236 219 218 233 234 224 227 230 222 218 216 225 223 176 213 211 190 188

GFSSGP_2pvu_pres_075.txt.gz
Presure
99 98 89 111 110 110 121 146 103 146 145 121 130 90 118 124 117 151 130 263 279 189 105 122 264 257 195 135 74 143 276 137 131 90 102 104 99 130 83 102 100 99 93 102 105 130 99 148 106
135 106 93 119 175 139 151 187 183 187 136 129 154 236 137 181 240 204 206 249 252 255 235 281 215 198 222 159 74 268 132 171 221 154 114 170 114 132 124 133 110 123 120 127 126 133 131 132 145
151 84 201 149 112 231 226 140 111 197 167 234 215 162 220 182 247 269 259 261 255 311 257 99 254 254 330 209 131 189 83 259 252 237 218 204 198 196 90 79 142 128 191 130 135 133 131 132 125
132 253 245 130 218 101 208 167 227 238 244 229 160 222 260 232 257 82 265 156 349 361 161 248 243 169 221 215 221 241 249 224 241 180 215 129 170 231 217 219 106 88 132 143 142 132 133 138 129
179 169 177 163 224 167 152 215 228 203 200 249 248 249 161 253 235 238 275 302 339 387 266 336 245 384 241 245 249 216 211 226 295 204 244 216 210 192 222 161 159 129 145 147 124 142 118 125 133
134 169 209 226 232 220 152 222 170 227 227 226 216 243 253 247 271 268 297 256 334 353 264 238 263 279 276 231 227 190 205 202 216 172 230 89 161 150 158 231 196 208 209 96 213 156 171 144 141
198 236 225 214 232 200 212 217 203 223 230 253 252 244 272 265 263 253 267 244 245 254 272 251 231 161 254 227 212 293 203 236 195 205 75 228 219 205 215 190 108 97 98 92 147 188 118 209 172
238 185 236 236 214 211 164 211 207 206 137 223 250 231 254 265 253 228 261 264 229 252 264 246 239 251 248 235 222 245 253 221 205 194 210 207 214 215 202 200 195 176 113 198 90 110 103 100 114
219 213 202 205 191 213 210 204 218 217 202 240 244 229 220 259 255 234 243 252 246 258 245 249 229 228 225 223 216 225 239 226 199 200 207 194 203 202 207 206 192 190 198 171 191 182 102 93 111
206 197 207 203 205 211 211 204 208 210 212 216 243 224 218 214 234 231 234 231 233 244 250 240 250 218 219 219 222 224 207 229 222 213 195 198 199 201 205 198 200 194 205 190 193 213 182 181 148
201 194 213 204 197 208 200 193 210 204 207 237 240 228 218 271 278 229 222 237 217 240 237 245 229 217 218 216 225 206 205 211 207 214 195 197 190 182 191 201 195 205 189 196 199 214 203 202 133
197 204 204 204 192 196 205 201 195 200 191 205 243 223 224 207 262 244 222 239 217 228 235 229 247 240 217 228 204 194 216 194 199 194 203 190 194 175 190 173 192 195 108 206 187 204 165 182 188
206 206 193 200 199 192 194 201 193 213 200 199 228 241 214 201 287 253 242 231 217 217 215 189 239 230 228 222 213 212 192 206 220 194 191 194 178 186 198 190 199 193 188 201 199 214 156 212 194
205 203 202 205 207 189 197 186 187 185 199 215 228 241 224 216 234 272 217 233 216 206 251 228 199 227 213 202 206 202 202 196 197 190 193 190 195 180 176 185 187 161 195 196 155 173 176 194 194
196 197 197 205 202 200 203 184 213 192 202 195 191 233 235 205 214 278 265 231 236 192 221 202 207 189 177 212 202 199 200 205 200 197 196 182 211 194 206 178 206 208 191 199 203 197 179 185 197
191 206 187 199 197 192 192 186 178 182 201 189 197 221 234 225 218 285 270 260 225 205 182 212 205 190 207 180 196 191 193 193 189 189 188 186 204 117 178 179 182 189 177 196 191 197 200 189 188
197 195 199 201 184 198 196 192 206 178 202 188 194 220 233 215 212 241 279 263 255 225 205 215 204 192 176 169 201 193 178 175 195 173 175 191 177 180 183 175 176 195 175 167 142 184 189 182 184
198 194 198 201 189 190 207 178 200 184 188 195 192 199 218 228 204 213 278 280 257 246 228 204 198 213 184 181 181 189 176 176 190 194 171 171 195 199 191 174 163 175 194 185 182 178 191 162 175
183 198 189 204 164 187 204 197 172 175 214 181 193 196 211 225 225 204 272 260 264 245 240 238 202 193 201 202 203 187 192 176 205 193 186 168 149 207 180 177 163 184 188 185 171 165 213 202 164
189 196 194 192 182 186 198 197 177 165 214 185 186 187 220 227 219 214 211 253 261 263 257 233 213 196 194 201 187 199 192 184 171 171 190 175 157 178 154 198 182 159 160 172 194 186 166 166 206
193 190 196 198 192 186 194 198 168 185 157 213 191 181 199 227 219 212 200 257 275 254 241 240 233 235 196 187 201 185 194 184 188 181 172 133 136 171 154 165 161 160 172 175 201 170 176 171 176
196 193 188 199 186 192 190 186 182 198 172 199 194 195 190 228 218 216 207 222 269 250 255 229 239 244 237 195 188 205 182 182 191 190 176 181 191 179 178 177 135 153 161 186 191 177 182 172 186
189 191 191 180 196 186 190 176 189 184 180 142 183 215 183 202 221 210 204 209 264 250 245 248 255 232 246 254 221 246 190 201 196 184 180 157 155 123 164 118 125 124 166 191 166 181 175 170 189
197 196 194 194 180 189 178 181 176 199 143 137 184 206 189 199 206 216 202 207 212 243 234 240 239 241 233 251 241 238 216 202 189 177 183 185 176 176 176 142 143 168 186 183 181 178 171 174 182
193 197 193 190 194 177 181 175 182 164 158 195 181 194 181 192 204 219 191 199 205 247 242 227 234 236 240 234 245 236 236 253 244 234 190 182 179 181 175 188 181 183 187 190 181 189 185 182 181
200 195 201 206 179 176 184 181 185 189 187 196 197 201 189 212 191 214 214 201 192 199 229 241 223 217 219 234 226 227 234 239 245 241 203 233 192 195 191 185 205 217 204 196 194 190 187 186 189
196 201 197 199 194 184 182 175 185 185 190 187 190 200 168 170 182 217 192 207 193 195 223 227 265 232 216 222 224 218 224 229 233 232 217 233 235 186 138 219 216 218 213 185 190 189 201 200 191
196 198 198 196 186 184 178 181 183 183 188 176 194 190 202 182 206 201 213 196 210 192 194 217 225 264 238 226 223 215 222 214 218 221 225 226 227 225 223 220 216 212 187 204 204 233 205 176 201
200 187 197 194 198 191 176 179 180 184 191 189 183 193 195 169 197 193 211 208 205 186 195 192 212 225 264 246 238 229 215 221 222 214 216 215 216 214 213 219 228 240 237 231 225 229 230 235 233
204 200 195 198 195 186 193 176 177 187 196 190 192 190 194 199 189 189 192 211 209 184 182 196 193 211 231 260 235 240 240 221 215 220 215 223 215 223 223 221 223 229 232 231 197 233 217 231 191

GFSSGP_2pvu_pres_078.txt.gz
Presure
223 98 98 131 103 80 100 124 130 101 138 111 118 117 111 207 134 117 122 124 160 121 126 145 254 147 124 75 224 108 101 281 267 133 135 134 105 121 132 145 121 100 127 126 108 124 133 101 110
162 139 157 177 182 165 185 127 141 151 219 240 150 239 87 111 147 206 258 207 202 243 214 160 238 250 263 75 127 134 210 214 189 223 197 145 113 113 121 133 98 99 120 123 120 137 112 122 118
201 199 134 130 187 176 228 132 176 113 209 195 149 160 175 177 135 147 269 235 213 259 258 146 160 226 229 214 268 245 249 182 256 76 143 94 226 143 238 136 99 110 81 97 92 131 129 127 122
126 159 118 236 226 117 258 234 151 155 174 111 237 192 240 252 225 135 142 247 249 248 283 401 383 339 387 283 248 211 217 280 243 145 252 242 184 126 105 143 232 231 135 120 143 101 108 119 127
203 225 216 143 120 221 237 198 180 154 180 208 221 178 249 257 238 240 251 293 254 268 319 418 265 254 250 264 241 213 162 222 232 226 241 248 151 151 232 229 227 224 145 180 209 125 244 163 134
194 206 222 224 216 176 197 202 181 226 159 208 221 223 217 250 247 240 251 287 272 270 308 269 250 259 244 221 254 217 204 209 197 210 214 235 205 155 239 227 231 235 215 166 203 188 198 142 165
195 213 210 211 233 227 236 193 227 215 213 213 220 226 213 246 244 261 259 265 260 254 241 253 241 250 241 226 241 219 177 199 196 189 196 221 219 235 230 164 173 95 201 184 219 217 212 116 215
196 204 218 183 134 215 216 209 214 193 218 212 221 228 238 243 243 229 258 254 261 234 228 249 240 250 252 237 265 249 242 205 210 205 205 201 209 229 237 224 234 207 195 156 141 216 130 148 135
189 177 180 205 206 219 210 215 216 214 203 199 223 225 233 234 233 223 261 236 246 226 233 219 239 238 241 228 232 252 224 271 203 209 198 212 190 228 249 221 207 219 211 142 189 89 179 166 174
181 206 189 201 195 201 199 204 199 208 203 206 202 213 238 238 226 219 259 236 248 227 219 239 224 236 230 236 226 247 235 217 217 204 202 212 213 213 218 209 202 215 203 196 189 199 194 190 179
199 203 180 208 206 210 203 203 204 213 206 201 213 208 208 237 224 218 268 245 228 232 228 224 217 236 232 249 238 233 237 212 217 207 218 211 203 209 203 194 197 193 194 196 191 192 196 147 191
199 196 185 193 205 199 202 193 203 207 205 196 207 205 207 237 213 220 247 242 224 238 216 243 231 227 219 224 235 223 222 254 204 218 200 185 207 197 191 102 188 193 191 192 190 196 190 181 101
205 180 195 189 201 205 207 204 205 209 195 186 192 213 195 233 226 213 212 253 230 239 219 219 217 217 243 237 206 208 216 249 234 208 200 199 201 204 191 186 197 192 214 206 200 200 92 187 205
198 199 188 200 199 207 201 205 202 206 200 189 189 202 203 193 221 215 207 271 242 233 199 220 225 217 227 217 210 184 205 200 213 209 193 206 198 193 184 182 185 192 189 125 205 194 208 210 191
198 193 196 198 183 185 201 206 196 195 197 206 190 181 199 228 227 217 216 275 268 218 234 215 186 212 197 212 240 209 199 214 194 202 206 203 181 185 191 183 181 190 190 190 171 180 193 217 185
196 180 194 175 194 198 199 201 196 202 212 203 186 193 195 198 233 215 209 281 263 254 236 223 202 224 199 183 190 206 201 184 190 208 201 202 188 190 180 191 177 177 182 176 196 193 171 166 166
189 190 195 178 179 197 196 197 203 206 209 201 183 181 196 190 217 224 203 292 277 258 241 238 205 196 219 196 225 187 202 195 184 206 194 193 188 185 192 192 204 176 180 191 129 165 172 177 165
191 195 171 184 195 195 198 198 191 211 205 208 183 222 196 198 195 232 208 204 290 278 257 247 231 211 215 202 228 201 178 210 201 177 191 206 196 176 175 175 180 176 163 189 194 189 172 174 167
201 190 187 186 188 195 188 196 189 185 200 197 180 178 179 189 199 232 210 209 273 250 276 259 245 238 205 201 185 202 170 176 198 189 195 186 180 198 182 191 176 161 172 201 180 188 170 163 189
199 190 186 186 199 197 186 188 195 185 199 194 201 178 186 207 200 236 228 211 224 267 265 265 243 245 234 192 216 208 200 196 188 184 182 180 168 181 175 178 197 170 164 176 158 192 190 163 183
180 180 193 196 197 188 189 191 196 190 200 190 197 215 207 213 205 188 227 211 214 279 270 264 250 241 232 224 196 201 218 188 190 174 180 179 189 181 177 192 169 205 190 151 171 152 170 188 167
202 195 192 193 196 189 188 191 188 196 191 185 192 210 172 185 179 213 227 216 213 229 261 260 242 229 243 262 202 197 186 192 184 187 181 187 180 189 180 177 156 152 113 160 176 154 187 171 175
188 212 176 188 191 186 188 194 192 196 190 189 189 204 203 146 187 196 229 222 201 215 266 248 247 264 221 241 237 203 191 184 186 203 199 171 184 175 170 162 163 183 175 169 167 171 180 190 182
191 193 186 186 194 182 194 183 185 190 190 189 193 193 146 154 199 182 216 219 205 200 208 250 239 238 253 229 238 245 224 193 193 181 186 192 186 172 180 175 179 171 165 172 174 178 177 176 180
203 199 187 197 195 187 189 193 185 187 180 181 192 192 170 182 199 195 196 223 208 203 207 215 247 236 234 246 240 242 239 247 218 191 193 191 190 199 188 185 119 179 173 163 157 161 172 174 165
188 205 213 192 192 190 198 191 184 186 181 194 177 188 190 196 202 179 175 216 210 209 200 201 214 243 233 222 226 237 239 241 239 241 234 246 191 188 189 192 181 191 191 187 174 166 163 190 190
200 204 207 191 195 190 185 190 182 187 176 188 189 193 195 196 199 196 182 185 213 201 210 201 201 215 260 241 225 224 222 227 230 231 236 230 229 231 236 192 215 189 221 226 197 193 193 185 197
205 204 199 192 194 196 191 186 180 186 187 189 186 191 188 199 200 195 190 202 191 217 204 203 195 183 210 215 246 227 223 217 219 221 231 231 225 219 221 217 215 216 208 212 218 207 214 224 207
204 196 192 195 191 193 195 188 170 183 184 182 186 188 187 181 198 200 184 198 196 193 216 214 201 190 197 209 269 251 238 225 227 220 215 217 214 214 212 213 213 213 215 218 215 212 208 226 221
204 202 200 201 186 193 195 191 187 186 187 187 183 188 187 194 200 172 199 194 211 209 200 213 210 199 193 201 204 263 262 229 254 234 227 210 211 206 204 205 207 213 216 228 225 223 217 228 228

GFSSGP_2pvu_pres_081.txt.gz
Presure
121 140 207 150 102 145 134 91 106 106 117 127 130 119 108 109 217 92 110 170 125 223 143 157 118 104 101 140 112 121 118 112 127 103 135 112 149 120 159 126 114 117 87 136 116 129 121 116 123
154 210 207 206 224 165 191 147 199 192 223 166 208 219 247 241 157 249 201 168 256 263 191 251 247 186 188 147 265 263 201 263 280 281 121 280 161 209 133 135 114 93 138 97 109 105 134 120 135
161 205 141 160 200 205 124 143 160 188 117 179 113 133 126 244 124 167 241 208 143 179 239 272 245 132 182 258 189 174 289 201 193 255 74 276 252 222 267 170 237 132 129 207 128 123 82 86 118
184 136 210 206 206 95 247 152 121 126 209 228 120 139 235 235 219 159 206 266 136 132 265 225 298 289 194 146 218 389 401 189 172 161 92 162 253 252 160 143 215 247 232 143 141 79 95 143 141
185 197 190 193 174 148 188 142 244 221 96 199 186 206 228 238 213 221 148 224 241 279 260 295 315 321 280 227 142 225 217 210 186 204 234 93 234 204 174 224 245 245 127 200 219 227 118 233 187
157 189 197 200 194 139 213 229 228 226 204 219 189 191 204 221 222 241 193 236 264 272 260 290 252 264 255 260 250 234 227 197 175 189 199 218 206 238 197 254 207 76 234 230 179 227 172 97 238
205 200 192 193 209 213 198 196 155 210 234 223 153 224 224 239 230 163 232 251 231 281 253 262 269 245 253 248 250 247 220 176 191 191 187 182 196 198 220 228 222 238 119 215 173 161 218 204 186
168 178 199 208 208 195 190 203 176 211 173 132 135 162 206 219 223 236 250 238 244 261 250 239 241 232 225 224 225 256 215 195 206 207 194 195 184 206 219 218 226 237 236 229 85 172 222 214 204
179 190 182 201 200 207 210 208 201 201 213 205 208 210 203 202 229 219 249 233 271 252 266 243 227 231 237 244 240 242 212 206 190 199 200 213 196 210 192 222 240 229 224 223 218 218 206 204 210
200 199 198 202 200 204 206 198 215 211 208 212 203 206 205 146 203 217 247 237 245 248 248 243 240 235 231 217 227 229 215 205 215 189 205 186 186 187 189 213 232 243 218 204 209 191 196 192 195
177 192 191 191 199 186 198 200 191 207 203 203 206 206 207 205 206 212 235 234 282 247 226 234 236 233 230 232 235 240 219 227 207 190 185 183 179 203 213 206 193 195 232 206 206 201 200 192 133
194 201 196 189 201 207 195 198 194 189 203 204 205 207 197 203 198 217 214 237 228 264 228 237 236 223 226 217 220 238 227 248 215 214 197 195 194 190 185 183 181 215 203 194 200 191 97 196 195
194 191 170 185 184 207 190 203 202 215 205 211 214 218 197 202 196 214 219 237 231 293 235 232 229 233 236 217 219 224 232 227 224 229 200 219 198 200 194 192 213 197 206 194 203 194 191 165 162
193 187 191 187 188 189 203 192 195 206 196 210 211 211 200 195 200 190 208 234 231 293 270 229 225 205 226 234 225 221 229 226 219 208 203 183 184 188 200 212 188 185 193 185 132 182 190 185 190
197 203 184 178 191 186 196 205 179 190 202 202 197 202 198 190 191 193 208 233 225 229 285 223 231 217 216 228 185 232 231 187 210 236 198 194 186 194 194 172 192 100 187 190 183 186 189 190 161
208 200 199 185 185 186 193 193 181 170 203 204 211 217 201 198 182 204 204 196 218 216 279 278 227 224 208 221 205 206 232 212 190 230 204 196 193 202 176 185 180 187 182 184 188 193 182 172 185
194 230 200 195 184 186 196 194 180 181 198 199 196 205 205 225 218 188 206 194 228 216 274 271 269 234 222 215 195 219 216 212 202 194 204 195 187 177 197 193 178 182 180 179 181 169 173 181 171
230 211 206 196 173 185 186 193 181 184 200 204 198 197 203 187 201 190 188 220 221 224 265 280 271 248 237 209 214 198 187 238 202 190 193 184 184 190 188 183 189 175 191 177 192 184 176 191 177
83 211 198 185 161 166 178 193 184 187 200 201 194 202 199 220 207 189 192 178 223 214 256 261 259 276 258 222 207 209 183 238 205 198 208 176 186 202 193 189 194 180 173 199 173 170 178 199 166
217 207 196 194 192 178 187 184 187 183 206 196 196 187 196 198 211 211 191 228 213 216 273 276 272 274 259 244 202 219 187 222 190 189 197 203 185 185 186 184 200 180 174 173 187 168 176 157 188
209 208 203 202 195 186 187 186 190 193 197 198 199 195 191 202 216 200 167 236 226 216 241 271 259 261 268 256 218 195 208 207 196 188 172 186 198 200 168 175 195 172 174 162 164 170 163 172 190
201 218 210 194 192 190 179 182 190 196 194 197 192 194 196 189 210 208 198 175 198 215 204 272 252 264 256 246 237 222 202 195 194 183 184 181 173 185 179 175 173 190 160 173 185 153 193 112 189
210 215 199 198 201 176 176 183 176 194 196 196 194 192 192 188 191 212 163 201 191 222 203 227 252 253 259 221 227 245 213 202 188 208 181 177 191 182 185 202 171 181 185 188 198 177 112 181 174
211 217 212 196 175 208 184 188 185 193 194 189 187 191 192 187 187 143 143 196 203 225 215 203 224 248 243 262 225 252 227 250 204 189 195 183 175 178 180 176 176 172 175 181 186 168 133 166 155
209 206 198 188 180 198 183 178 185 192 196 192 193 189 193 187 183 141 209 186 207 206 216 214 210 220 234 243 249 253 250 226 231 195 203 190 190 188 184 191 189 176 170 176 177 174 178 172 169
208 206 202 191 203 198 182 178 182 186 191 190 191 190 187 188 190 180 189 201 186 188 208 213 215 208 223 224 249 234 252 245 228 208 230 196 201 185 183 187 177 170 173 179 183 182 180 170 171
195 199 198 195 200 192 193 185 187 189 189 183 193 189 190 190 182 188 199 190 202 196 185 219 215 212 204 216 216 257 235 236 244 247 237 208 214 194 191 187 188 184 189 187 188 142 183 206 186
211 205 199 197 194 199 202 189 195 185 188 179 192 189 189 189 192 192 185 195 200 198 199 186 202 215 211 199 213 218 271 247 236 237 237 238 239 243 246 206 195 187 220 198 185 182 183 192 178
214 203 198 197 187 200 190 201 193 187 189 188 185 191 190 184 188 191 192 181 197 199 195 209 207 205 214 212 201 209 215 252 253 235 226 230 228 228 235 232 227 223 218 215 213 213 212 211 212
213 213 197 205 204 199 198 197 190 186 190 194 191 194 194 188 189 193 189 190 196 207 206 194 187 194 194 212 212 199 199 204 227 269 236 221 220 221 222 217 216 213 213 208 209 212 213 215 217

GFSSGP_2pvu_pres_084.txt.gz
Presure
213 198 197 142 133 138 214 113 139 120 95 96 93 152 110 84 97 107 127 134 84 141 176 159 140 103 108 112 140 132 225 135 96 109 137 159 103 109 138 109 108 139 106 129 105 117 94 123 111
209 177 170 209 175 148 222 161 171 198 214 173 180 147 230 248 244 230 154 248 143 143 189 262 130 193 143 269 138 130 208 263 274 269 209 249 205 76 134 100 232 116 119 143 127 100 103 131 144
176 172 160 174 135 210 209 204 221 199 168 243 227 228 197 225 225 193 219 123 196 154 110 241 106 173 139 153 163 264 271 253 215 104 236 125 231 234 265 277 225 266 253 133 200 200 74 132 129
185 201 147 200 195 143 197 152 132 141 152 231 136 155 228 229 234 208 216 240 234 240 253 139 101 244 172 321 291 301 275 413 410 67 236 224 217 216 213 81 266 247 102 257 180 229 219 241 174
162 194 210 204 195 128 206 205 206 229 187 191 239 223 199 178 220 228 244 247 141 236 206 269 268 236 290 172 313 225 218 217 215 199 207 205 216 150 207 275 178 193 225 217 222 258 240 228 222
199 201 202 201 195 212 205 207 219 222 206 176 184 196 240 222 219 215 195 176 146 188 247 203 199 178 225 269 234 218 238 201 202 199 164 159 205 200 198 298 214 242 235 130 209 160 229 131 212
208 188 193 202 191 193 191 203 184 216 216 196 145 187 194 216 216 214 124 150 220 236 259 260 252 281 248 254 308 239 218 193 231 195 112 182 212 209 211 208 220 232 240 236 238 241 250 180 233
170 201 189 204 203 194 202 197 204 202 210 217 212 214 215 210 208 211 207 220 225 260 249 255 259 261 256 241 257 242 224 233 213 191 204 190 188 179 189 181 196 198 228 235 229 235 209 235 243
203 208 179 183 192 184 209 190 200 206 209 208 206 208 218 205 208 211 216 213 116 242 248 252 241 229 242 230 233 258 231 221 198 193 189 199 195 192 185 192 190 194 212 222 207 230 227 197 224
175 191 201 199 167 199 192 190 203 207 197 205 203 204 212 206 210 201 163 217 175 216 254 236 249 242 237 234 224 245 221 216 201 188 187 195 188 192 187 197 204 196 200 184 226 228 239 216 203
184 182 195 188 202 188 170 180 191 200 208 199 200 200 205 205 159 215 212 212 203 220 246 236 261 249 236 226 225 214 210 214 201 183 190 225 204 187 187 185 198 216 191 190 216 187 219 208 197
194 179 205 192 182 174 196 198 180 191 208 200 199 212 216 210 224 217 213 199 208 201 239 235 258 243 247 228 218 226 221 195 201 199 195 194 190 210 213 186 203 184 191 201 219 244 216 198 180
202 186 191 183 152 193 194 188 183 190 195 201 194 187 203 192 211 208 222 223 206 202 219 234 255 238 236 239 206 207 239 205 186 201 187 194 192 189 191 183 194 192 186 188 178 206 204 195 189
209 187 173 199 183 178 188 194 193 198 191 197 196 192 190 201 206 207 213 220 206 201 195 232 285 238 227 235 230 228 229 213 206 184 181 184 188 187 202 193 179 184 184 185 172 187 185 194 183
164 185 227 183 162 189 167 200 191 194 195 190 204 184 179 208 211 215 210 221 217 193 213 242 218 252 226 227 237 235 205 211 242 206 195 192 192 189 189 186 210 184 185 182 195 191 185 193 187
198 194 164 172 233 185 188 196 197 184 190 191 183 187 197 194 203 211 215 228 225 196 208 247 224 270 241 225 213 215 232 244 221 233 216 200 203 187 191 195 190 201 213 194 189 200 189 185 169
177 236 173 194 230 199 187 205 202 185 184 191 196 186 184 202 200 208 208 224 208 201 180 243 249 286 242 238 222 205 223 210 231 216 228 216 216 210 197 186 181 194 184 196 186 198 187 180 185
241 194 207 183 231 204 171 199 207 189 178 190 193 187 182 200 200 203 224 200 216 231 195 209 236 275 281 225 213 215 216 187 224 227 182 198 195 207 186 180 180 188 195 180 185 199 187 192 191
275 232 232 226 230 221 221 198 202 192 175 179 189 181 182 201 196 205 198 214 211 247 191 235 308 291 272 271 220 221 209 184 213 218 197 193 190 195 181 185 195 191 171 173 198 187 178 168 179
216 228 208 225 217 221 211 204 201 188 176 183 180 187 188 199 200 206 200 197 209 201 182 191 289 293 287 298 240 223 202 208 196 248 192 199 197 199 178 180 181 183 181 185 185 174 185 188 168
219 218 224 215 209 235 198 195 193 194 189 185 186 181 191 191 200 196 201 193 207 200 205 209 238 266 280 276 269 220 211 202 198 243 176 204 194 190 194 189 182 178 192 177 183 177 193 165 173
235 221 214 204 231 223 202 191 196 196 188 196 168 175 192 196 195 192 199 194 218 202 225 191 219 264 276 263 266 251 220 202 204 193 215 193 192 222 200 188 173 190 176 190 184 188 193 176 166
207 212 207 206 206 221 199 195 200 194 187 189 185 174 188 198 198 195 197 195 209 181 204 222 215 226 261 280 252 250 236 202 198 181 206 172 174 189 196 187 188 188 176 168 170 172 164 161 172
216 207 214 219 232 225 195 194 190 193 192 182 177 182 188 189 192 188 193 189 185 199 174 220 182 207 229 245 235 250 234 216 193 187 208 201 198 178 184 169 180 173 195 193 184 173 172 178 170
230 224 213 220 227 202 200 199 185 189 193 186 185 185 183 190 191 198 191 188 184 160 187 219 195 228 204 227 246 260 227 231 224 193 187 208 199 195 180 188 182 182 188 183 182 186 199 170 169
225 227 219 212 215 217 205 190 187 188 178 191 185 186 180 182 193 188 191 188 187 138 201 190 208 181 230 205 224 237 248 259 257 246 195 197 200 185 198 192 185 180 195 194 193 180 184 196 182
223 213 212 212 207 214 202 210 195 200 177 187 186 178 181 185 187 190 190 186 194 182 193 189 202 230 184 235 197 222 226 267 249 243 217 201 193 196 195 193 191 185 185 182 180 178 172 191 182
215 216 214 211 209 209 203 197 188 185 185 191 184 186 183 188 189 184 191 189 191 191 195 190 201 197 211 190 225 203 222 224 281 243 248 232 211 213 199 189 192 195 195 194 193 190 182 180 184
212 220 209 203 208 200 197 192 187 198 201 192 191 185 184 189 187 186 197 184 190 191 198 191 199 200 197 210 224 214 207 214 224 242 262 230 240 247 231 199 200 198 199 206 184 183 183 180 180
214 214 208 204 196 201 203 201 207 192 205 191 192 185 185 190 187 189 177 184 180 190 188 194 190 208 204 194 213 226 207 222 198 214 224 260 258 229 228 228 236 245 243 206 211 211 204 211 211

GFSSGP_2pvu_pres_087.txt.gz
Presure
133 206 144 209 150 112 170 167 139 147 231 132 133 141 218 147 90 134 109 211 95 98 107 106 109 135 116 240 154 144 256 127 104 133 150 144 243 136 106 135 108 114 125 96 112 137 123 128 126
212 132 221 210 221 191 216 136 213 183 202 231 211 187 224 154 178 175 143 107 251 238 122 140 89 229 177 135 133 276 131 179 280 131 274 210 221 189 243 75 102 189 182 221 131 163 151 121 82
198 150 222 128 208 125 197 151 151 140 207 220 219 172 213 179 174 158 144 243 231 210 238 251 165 250 241 266 152 142 260 259 280 162 286 134 172 157 216 239 84 209 198 132 260 260 265 228 179
127 223 158 226 194 169 191 154 160 192 132 229 134 233 80 153 240 237 233 239 233 237 239 237 244 174 162 91 187 238 122 275 125 143 203 251 76 236 115 247 124 210 211 250 160 242 248 263 258
189 177 196 171 173 122 215 142 148 202 211 212 229 230 223 200 226 220 235 215 219 229 229 226 228 257 114 269 140 189 229 217 241 206 226 206 132 173 219 220 217 212 159 205 213 215 239 244 250
187 215 197 207 210 199 208 199 168 206 216 220 217 206 202 220 218 215 205 218 115 220 220 227 240 132 249 269 289 184 285 221 209 167 228 209 196 212 226 204 217 220 203 209 211 239 230 129 202
191 195 200 200 201 189 224 158 195 184 217 206 155 193 189 222 216 224 217 225 221 225 228 226 237 226 271 291 246 272 272 306 206 220 205 202 187 185 200 217 205 215 208 253 248 237 231 235 244
199 184 212 183 152 148 208 203 179 204 202 213 209 218 212 215 215 205 228 214 219 227 218 225 217 218 243 277 259 264 279 252 222 204 235 190 216 189 183 187 214 223 224 225 228 252 255 159 234
201 187 187 186 193 181 186 206 209 197 201 197 210 175 217 211 207 204 203 211 217 220 226 214 216 251 244 266 250 262 255 233 219 216 208 211 200 201 193 198 192 202 211 208 186 188 192 224 217
186 192 189 200 200 194 199 183 188 216 188 209 198 194 213 213 209 212 218 218 220 226 224 215 213 238 239 252 248 255 235 216 215 208 206 182 199 203 193 200 193 201 193 194 194 216 191 225 232
193 195 176 184 181 207 195 195 182 193 186 193 208 208 214 209 202 203 213 209 214 219 239 236 206 211 238 238 237 252 225 201 198 194 195 177 174 197 203 184 207 201 197 197 189 195 189 201 218
187 180 191 208 205 189 207 219 196 184 206 199 192 207 195 206 202 203 206 84 210 215 218 223 206 201 238 226 230 235 232 210 225 207 200 188 182 196 204 197 203 193 197 200 185 202 201 204 192
197 181 202 214 187 204 217 198 243 194 175 199 197 199 201 203 217 194 191 198 210 233 222 239 222 200 237 220 246 219 223 206 200 206 204 200 194 196 213 196 185 174 196 192 183 164 179 183 214
201 198 197 210 220 217 227 200 229 178 172 204 201 196 200 201 203 198 191 192 211 220 238 241 207 202 238 217 264 225 221 214 199 204 192 202 197 190 195 193 200 183 182 197 168 187 184 174 200
184 211 186 191 209 232 213 224 229 179 202 179 192 189 190 197 199 193 190 200 213 222 248 240 215 202 250 218 239 250 238 218 199 200 191 184 198 196 183 179 197 187 212 187 191 178 199 192 178
160 211 223 169 248 249 244 162 221 216 233 205 189 201 188 188 198 201 194 208 205 207 236 233 212 194 247 225 214 232 240 227 206 199 198 190 182 182 193 183 179 179 183 175 204 188 200 181 201
218 176 208 213 180 222 235 162 217 221 208 182 185 200 195 188 189 198 190 207 204 211 227 233 222 214 241 272 239 240 228 237 221 216 200 199 203 186 182 182 184 184 180 182 188 188 188 197 192
205 251 218 255 223 196 237 239 185 220 210 203 207 205 196 191 189 197 189 206 203 212 216 227 209 201 241 237 232 238 222 210 240 210 212 214 204 202 186 188 188 201 171 191 181 197 189 209 196
233 206 249 301 209 223 235 226 149 221 202 201 200 202 194 179 173 190 194 205 202 203 215 230 211 198 234 312 292 277 240 220 206 223 227 203 214 207 200 195 192 218 188 189 198 198 194 195 183
263 279 332 290 236 252 274 226 229 219 214 205 207 197 192 186 181 190 184 196 201 199 212 236 206 218 229 287 287 280 257 220 220 207 217 233 247 226 228 224 218 206 203 203 201 190 180 174 180
190 187 262 278 231 226 266 232 220 216 212 199 208 195 189 188 182 186 188 199 199 201 204 193 214 215 228 280 286 279 272 240 214 215 222 174 238 213 215 220 209 205 186 191 181 176 179 177 183
362 300 243 273 224 246 229 222 218 209 216 214 201 189 188 187 189 185 173 198 199 196 196 198 220 215 217 250 274 270 274 257 210 212 210 194 237 220 195 192 185 197 189 193 180 182 182 189 171
317 284 283 233 268 226 222 223 223 216 215 205 196 188 187 183 182 187 179 191 197 191 196 187 166 202 223 217 252 254 267 252 215 215 201 206 199 221 195 196 199 202 192 191 201 175 179 186 181
238 276 224 221 218 219 229 212 217 212 206 203 194 192 186 186 183 180 189 189 198 198 193 185 181 140 197 180 216 255 245 250 248 216 211 197 198 231 196 187 177 182 206 190 188 184 179 172 189
275 254 212 261 239 228 213 199 201 197 205 205 197 194 189 189 183 183 186 180 195 188 194 191 190 157 197 220 201 216 253 272 242 223 211 196 201 191 194 201 189 196 195 191 184 190 181 182 186
260 261 247 251 218 200 209 191 178 197 195 219 203 195 186 187 180 184 187 181 189 190 196 191 151 184 181 196 234 214 208 234 274 234 216 197 195 193 195 213 202 189 183 188 207 191 191 169 174
251 254 247 235 236 230 204 209 196 197 198 196 197 190 189 187 182 182 184 179 187 186 182 194 182 173 200 187 220 220 213 203 233 282 226 215 199 191 192 195 207 204 201 186 181 183 182 201 173
247 234 247 234 224 222 226 218 202 194 195 196 192 185 188 186 180 185 180 190 181 190 187 198 194 193 199 178 191 211 204 218 202 226 270 261 219 209 200 193 192 195 202 196 190 189 194 198 189
243 241 244 226 222 222 218 213 209 195 196 195 196 191 192 202 190 186 181 182 181 191 188 182 178 194 193 200 192 198 208 219 217 201 219 243 275 231 215 203 202 193 191 189 191 190 190 190 192
236 241 234 231 226 218 217 208 206 205 204 201 189 195 189 190 180 190 184 183 187 191 166 191 184 194 198 194 196 191 184 208 230 208 203 199 225 244 269 251 203 201 197 195 196 192 192 192 195

GFSSGP_2pvu_pres_090.txt.gz
Presure
128 140 130 131 174 173 201 185 159 154 131 109 225 176 192 144 218 202 232 230 241 251 136 228 118 97 230 213 150 109 116 120 166 143 146 151 75 138 82 121 137 137 108 114 151 148 145 145 125
126 137 135 177 163 152 153 135 175 168 203 137 121 168 158 216 228 164 233 222 118 134 240 170 108 221 241 250 179 121 261 188 202 118 212 131 184 166 96 232 209 145 130 149 141 183 138 101 139
192 213 159 178 195 179 178 152 138 149 178 212 88 172 170 136 205 129 164 126 234 219 233 126 178 239 227 155 84 264 194 255 241 123 251 124 148 203 217 231 237 253 253 125 203 250 119 163 222
210 162 181 147 166 203 174 160 163 132 216 206 220 149 161 132 241 236 244 231 233 215 247 238 240 240 248 244 241 195 122 258 273 218 239 271 247 252 247 126 248 247 237 250 243 222 165 244 236
191 211 206 196 183 203 206 164 193 199 199 137 155 126 108 181 199 152 204 224 227 240 208 240 165 239 237 227 194 171 267 270 240 242 142 163 235 223 126 229 229 212 146 166 210 236 235 182 245
206 201 195 182 204 195 199 213 203 192 197 205 193 194 219 224 211 214 225 181 231 203 236 227 231 234 239 225 238 263 298 290 228 247 256 221 211 203 213 163 216 223 197 225 223 210 214 216 216
205 172 186 201 166 162 188 190 193 192 199 208 206 197 205 128 217 211 221 224 219 186 224 218 223 232 233 227 246 254 285 283 228 200 239 178 214 213 215 199 203 209 193 214 213 203 211 134 225
195 190 182 194 188 187 158 172 191 207 196 145 185 195 193 204 203 212 194 219 214 215 225 215 226 237 234 216 240 249 283 269 283 241 245 205 237 211 215 189 205 218 207 76 205 203 272 224 246
184 181 187 192 200 199 185 178 195 189 186 203 190 206 187 197 201 208 209 221 217 220 221 218 234 231 245 211 228 251 270 255 261 280 221 219 217 221 210 199 186 203 206 189 205 231 233 186 193
198 202 187 195 193 193 195 189 184 188 196 204 217 187 191 188 202 198 191 209 214 216 213 215 226 233 238 206 237 243 255 258 252 286 212 205 203 200 211 200 207 190 196 203 187 212 201 202 183
198 186 195 179 180 200 189 196 197 204 217 225 223 180 191 203 192 201 194 207 215 209 212 212 219 245 244 207 213 293 249 244 252 216 203 204 196 199 208 210 197 207 206 194 162 189 185 193 185
193 186 186 193 198 205 199 192 182 179 186 213 179 222 193 184 200 192 194 202 214 214 197 207 220 236 249 242 203 290 243 236 229 212 197 201 197 184 193 195 201 204 206 204 203 194 198 200 169
191 195 198 196 203 201 203 194 181 186 211 202 232 190 208 202 175 194 203 199 208 204 201 217 225 221 248 221 227 226 250 231 225 210 194 199 198 192 195 199 202 195 173 205 210 192 195 181 162
197 187 191 196 199 198 203 202 197 199 224 202 199 234 210 184 178 194 207 183 201 205 193 213 214 217 244 234 205 233 256 233 215 205 192 195 194 190 203 195 211 212 210 201 195 172 175 169 191
193 179 187 204 199 188 209 200 194 217 223 245 245 237 216 192 190 196 191 190 196 208 194 216 214 221 247 199 203 253 212 232 216 205 197 196 188 196 186 192 193 195 197 196 205 198 175 177 179
200 207 202 202 179 216 209 209 216 205 247 239 249 229 217 204 200 195 184 193 193 208 191 210 222 203 235 192 197 251 210 240 225 208 195 192 193 190 203 185 185 183 172 171 179 203 186 176 166
211 216 221 191 209 209 188 180 181 227 216 233 241 165 223 205 172 186 199 194 195 203 200 207 215 225 233 209 246 241 221 270 229 216 207 197 213 196 186 192 193 196 189 211 183 175 177 178 166
200 209 201 211 198 204 202 235 206 238 234 240 170 215 215 206 184 189 193 198 177 197 200 210 206 217 254 190 211 234 222 271 245 219 211 189 198 208 199 184 182 186 191 193 193 185 178 178 173
186 209 225 211 223 221 185 196 142 220 176 258 221 208 193 196 206 192 196 195 170 193 200 209 211 213 205 217 233 248 301 291 248 241 217 196 207 217 188 205 189 184 185 213 182 178 176 191 213
219 214 220 211 163 233 254 205 262 296 286 260 230 221 208 184 198 198 197 189 191 191 191 208 209 197 225 203 238 271 291 280 265 238 234 223 203 203 192 188 184 189 183 190 191 191 163 186 181
210 145 210 182 223 212 297 235 308 301 270 211 218 218 205 198 201 192 189 190 191 188 182 200 197 211 201 214 212 229 273 286 300 251 234 226 250 198 194 203 197 191 186 181 182 181 191 187 195
227 219 223 228 218 254 335 301 292 277 237 230 221 216 191 203 195 194 188 187 191 188 181 193 204 204 204 207 203 218 263 265 288 295 244 229 213 232 214 205 207 203 201 197 192 189 191 193 194
229 217 146 230 200 335 298 309 285 239 231 219 220 200 195 198 197 194 189 174 187 189 182 201 207 197 208 202 202 203 220 268 238 278 287 241 222 208 210 196 221 239 231 205 222 204 201 212 193
234 240 238 256 239 269 288 309 280 218 215 212 213 202 191 204 196 188 189 180 183 180 191 197 192 203 202 203 186 216 226 218 263 267 264 263 220 204 211 193 211 221 211 221 221 191 172 196 199
243 242 193 219 347 302 220 287 213 216 216 227 221 200 202 200 197 189 188 180 183 181 188 190 192 198 204 194 164 200 215 222 212 256 238 250 236 218 197 204 199 222 213 210 209 178 182 203 193
236 256 316 332 294 277 282 194 210 205 213 211 223 220 208 194 193 191 186 183 178 185 182 188 191 184 196 205 183 194 195 201 213 210 252 219 245 215 207 205 202 207 232 187 197 185 209 200 173
242 239 301 311 275 274 276 199 211 213 215 213 202 215 200 196 193 195 188 184 172 185 186 179 186 188 187 198 183 140 190 201 202 195 211 224 236 242 207 199 196 202 195 218 201 199 193 191 182
286 272 296 273 263 257 239 203 202 215 220 216 223 212 204 200 194 198 187 189 183 181 189 172 181 189 192 187 194 170 199 186 201 201 225 208 231 246 239 204 195 199 201 193 195 207 203 197 192
275 268 278 258 254 251 255 244 198 198 205 201 198 205 218 206 192 193 190 187 183 179 188 181 183 186 191 174 182 200 198 201 192 196 201 225 212 207 238 259 201 199 200 201 198 186 184 192 193
261 253 268 251 254 242 252 232 200 200 203 201 204 202 207 201 198 187 181 187 190 180 181 182 189 181 164 190 191 198 204 202 197 193 183 202 212 204 204 223 244 256 230 201 198 197 197 194 187

GFSSGP_2pvu_pres_093.txt.gz
Presure
140 132 136 102 127 128 104 136 108 124 131 125 145 224 128 134 179 208 202 87 142 227 209 132 249 216 265 241 147 197 144 135 141 221 110 126 138 111 157 89 106 126 124 134 128 139 139 137 143
134 112 123 131 139 171 176 136 176 205 215 126 219 157 138 184 182 214 169 84 200 195 170 178 141 218 109 178 139 136 178 242 249 206 257 267 150 177 112 158 137 98 158 152 141 143 143 145 147
155 197 126 216 200 125 176 216 212 213 197 154 184 191 213 128 185 145 145 212 134 134 132 168 227 241 219 214 197 187 181 156 180 158 267 133 212 133 268 245 188 184 132 139 135 158 126 143 151
178 180 224 123 157 224 151 208 208 206 225 193 200 211 180 190 208 228 176 135 161 202 154 245 230 244 236 248 240 240 241 239 248 266 215 249 254 278 242 244 172 243 260 255 251 245 125 138 83
159 169 147 151 164 190 204 214 189 200 200 205 195 173 214 169 213 222 220 205 214 154 141 241 244 240 249 230 236 205 230 234 220 257 161 144 299 189 238 241 224 108 212 220 238 155 230 239 243
198 190 150 187 209 165 203 191 192 197 197 198 198 181 196 201 145 206 220 141 207 212 232 202 137 231 235 243 239 253 240 235 264 261 272 210 265 219 216 238 191 154 173 225 205 235 233 228 145
201 210 192 143 139 156 199 197 196 186 190 207 211 206 197 183 195 199 217 228 213 205 203 135 226 235 140 227 241 241 229 229 251 242 235 242 238 199 237 220 228 202 149 228 220 228 200 223 217
196 193 135 185 208 189 213 130 187 179 186 183 189 210 194 190 231 212 143 208 186 199 136 224 229 233 229 213 229 245 243 228 234 228 242 237 252 247 224 220 198 213 203 224 206 220 204 207 215
200 175 181 193 195 197 192 189 188 189 193 201 195 192 211 194 202 208 225 199 206 191 207 199 220 226 220 234 234 243 218 213 224 263 232 270 246 242 230 222 218 199 197 213 197 183 208 226 156
194 182 201 200 190 190 191 201 202 196 190 197 186 193 189 198 191 206 237 215 180 199 203 194 225 215 223 230 237 246 216 217 293 265 240 276 233 232 238 221 196 222 204 202 214 208 192 212 182
192 151 179 190 204 188 180 199 193 209 199 191 183 210 196 192 216 221 240 210 219 207 203 192 221 221 198 234 228 241 209 103 251 243 257 266 218 217 216 205 199 203 198 219 195 201 209 186 191
190 191 168 184 158 205 186 205 199 196 196 200 200 206 201 169 182 191 233 222 207 185 196 185 209 208 223 224 228 253 212 206 259 235 254 255 218 209 218 203 216 192 194 214 189 195 85 196 191
199 181 193 197 178 200 192 197 184 196 199 202 207 144 198 198 223 235 225 225 214 192 204 198 187 212 225 223 218 192 208 240 247 227 246 231 206 208 204 194 194 201 196 210 189 173 196 199 192
195 178 193 187 166 189 179 188 193 187 195 211 202 217 194 192 228 244 224 221 208 199 202 195 190 209 224 232 227 244 203 226 248 223 238 221 204 197 194 197 191 193 197 204 185 197 164 192 191
186 198 193 188 188 188 196 191 198 219 204 203 218 222 199 229 214 233 216 222 188 201 182 193 192 209 218 224 208 236 228 204 257 220 228 211 208 199 195 195 189 201 202 206 194 202 208 210 188
180 190 196 196 196 195 204 169 210 201 205 221 212 206 171 229 211 236 218 222 186 199 184 193 192 205 215 224 222 223 198 195 260 215 219 213 202 202 192 191 197 193 186 194 197 213 207 207 214
202 182 195 202 168 195 200 180 204 208 210 214 192 229 226 238 214 239 220 203 211 193 184 193 195 205 213 216 237 210 213 185 226 232 225 207 202 201 197 194 194 194 193 179 201 187 177 189 177
191 201 196 197 202 195 178 191 201 195 209 159 218 216 242 266 218 234 211 223 201 185 186 196 170 208 214 212 207 229 198 252 243 313 217 217 203 203 196 196 193 201 200 196 202 192 183 177 177
197 195 196 194 188 197 210 206 205 211 202 217 188 190 270 261 256 234 181 219 194 189 194 199 172 207 206 207 208 225 244 306 310 216 217 226 212 203 211 197 195 196 190 186 198 199 179 187 185
194 202 203 199 199 197 207 205 195 187 212 214 225 246 301 297 253 183 218 212 195 198 199 196 199 202 204 209 209 215 217 241 283 295 303 215 218 206 203 198 183 182 194 195 192 190 185 177 172
209 221 209 223 230 197 221 237 214 229 188 150 253 319 335 252 235 201 213 198 197 194 198 191 196 184 194 209 199 209 211 241 269 286 293 302 216 212 214 199 196 192 192 189 189 180 186 199 184
226 214 237 237 237 242 218 229 212 206 199 229 309 290 257 236 211 213 210 194 198 188 191 191 197 180 203 203 210 201 208 216 232 282 277 295 275 217 201 204 198 202 196 194 192 186 181 177 196
214 226 245 228 239 236 235 172 245 231 284 308 297 252 249 235 210 213 210 192 196 193 190 187 192 184 202 200 198 212 210 222 216 221 280 267 282 291 245 199 197 198 187 184 190 183 195 210 183
228 245 232 240 155 238 211 255 219 283 327 284 280 242 234 211 218 224 206 208 192 192 190 182 190 192 188 189 204 198 215 209 208 214 226 258 255 262 274 246 216 220 201 190 186 190 197 189 194
245 229 240 239 231 233 251 241 241 314 290 264 264 238 230 232 230 229 208 209 198 192 191 185 187 191 196 193 196 200 208 204 157 219 213 227 237 245 252 264 214 209 210 207 203 202 214 230 224
244 238 242 228 246 246 260 256 153 189 142 251 246 236 241 229 215 211 202 207 198 191 190 182 182 186 190 191 193 197 198 213 178 196 209 218 233 260 244 266 215 208 206 215 197 194 215 232 208
239 241 239 236 254 237 245 139 272 265 267 241 242 213 217 217 208 210 205 204 196 192 190 190 182 186 188 174 193 194 189 203 207 177 206 207 204 226 253 260 253 208 198 195 201 192 196 235 213
246 240 234 236 248 278 293 311 253 265 240 231 230 210 216 212 202 199 200 207 193 196 189 187 182 185 189 183 191 195 184 194 205 146 198 202 206 208 225 229 264 238 218 206 205 194 198 194 200
236 236 239 246 258 269 275 286 246 252 232 227 217 201 223 211 209 198 214 204 187 195 191 187 189 186 168 184 183 193 182 193 194 203 210 195 198 205 202 221 211 230 248 206 207 197 194 196 199
232 245 244 262 312 158 265 260 237 225 232 215 216 197 221 210 213 208 197 199 196 196 191 184 188 174 183 188 192 184 195 180 192 194 200 207 211 181 205 196 199 211 206 217 234 227 187 189 191